Wetterdaten: Mittwoch, 21.06.2017
Datum Zeit Temp. A. Pool Temp. Feuchte A. Luftdruck Regen Wind Richtung Richtung Sonnenschein ET UV Solar Taupunkt Windchill Windben Empfang
21.06.2017 00:00 23,4 C 25,6 C 64 % 1012,4 hPa 0,0 l/m 8,7 km/h (2 Bft) S-SW 203 0 min 0,000 mm 0,0 UV-I 0 W/m 16,2 C 22,7 C 11,3 km/h (2 Bft) 100,00 %
21.06.2017 00:02 23,4 C 25,6 C 64 % 1012,4 hPa 0,0 l/m 7,8 km/h (2 Bft) S-SW 205 0 min 0,000 mm 0,0 UV-I 0 W/m 16,2 C 23,0 C 11,3 km/h (2 Bft) 93,75 %
21.06.2017 00:04 23,4 C 25,6 C 64 % 1012,4 hPa 0,0 l/m 6,3 km/h (2 Bft) SW 234 0 min 0,000 mm 0,0 UV-I 0 W/m 16,2 C 23,4 C 9,7 km/h (2 Bft) 97,87 %
21.06.2017 00:06 23,4 C 25,6 C 64 % 1012,4 hPa 0,0 l/m 7,8 km/h (2 Bft) SW 215 0 min 0,000 mm 0,0 UV-I 0 W/m 16,2 C 23,0 C 11,3 km/h (2 Bft) 100,00 %
21.06.2017 00:08 23,3 C 25,6 C 65 % 1012,4 hPa 0,0 l/m 7,4 km/h (2 Bft) S-SW 200 0 min 0,000 mm 0,0 UV-I 0 W/m 16,3 C 23,0 C 11,3 km/h (2 Bft) 97,87 %
21.06.2017 00:10 23,3 C 25,6 C 65 % 1012,3 hPa 0,0 l/m 6,4 km/h (2 Bft) S-SW 207 0 min 0,000 mm 0,0 UV-I 0 W/m 16,3 C 23,3 C 11,3 km/h (2 Bft) 97,87 %
21.06.2017 00:12 23,3 C 25,6 C 65 % 1012,4 hPa 0,0 l/m 5,9 km/h (2 Bft) S-SW 207 0 min 0,000 mm 0,0 UV-I 0 W/m 16,3 C 23,3 C 8,0 km/h (2 Bft) 100,00 %
21.06.2017 00:14 23,3 C 25,6 C 65 % 1012,3 hPa 0,0 l/m 5,9 km/h (2 Bft) SW 215 0 min 0,000 mm 0,0 UV-I 0 W/m 16,3 C 23,3 C 9,7 km/h (2 Bft) 98,21 %
21.06.2017 00:16 23,2 C 25,6 C 65 % 1012,4 hPa 0,0 l/m 5,3 km/h (1 Bft) SW 217 0 min 0,000 mm 0,0 UV-I 0 W/m 16,2 C 23,2 C 6,4 km/h (2 Bft) 97,87 %
21.06.2017 00:18 23,2 C 25,6 C 65 % 1012,4 hPa 0,0 l/m 5,2 km/h (1 Bft) S 180 0 min 0,000 mm 0,0 UV-I 0 W/m 16,2 C 23,2 C 6,4 km/h (2 Bft) 100,00 %
21.06.2017 00:20 23,2 C 25,6 C 66 % 1012,4 hPa 0,0 l/m 7,2 km/h (2 Bft) SW 216 0 min 0,000 mm 0,0 UV-I 0 W/m 16,5 C 23,0 C 9,7 km/h (2 Bft) 100,00 %
21.06.2017 00:22 23,2 C 25,6 C 66 % 1012,4 hPa 0,0 l/m 5,9 km/h (2 Bft) S-SW 204 0 min 0,000 mm 0,0 UV-I 0 W/m 16,5 C 23,2 C 9,7 km/h (2 Bft) 100,00 %
21.06.2017 00:24 23,1 C 25,6 C 66 % 1012,3 hPa 0,0 l/m 5,3 km/h (1 Bft) S-SW 211 0 min 0,000 mm 0,0 UV-I 0 W/m 16,4 C 23,1 C 8,0 km/h (2 Bft) 97,87 %
21.06.2017 00:26 23,1 C 25,6 C 66 % 1012,3 hPa 0,0 l/m 4,7 km/h (1 Bft) S-SW 212 0 min 0,000 mm 0,0 UV-I 0 W/m 16,4 C 23,1 C 9,7 km/h (2 Bft) 100,00 %
21.06.2017 00:28 23,1 C 25,6 C 66 % 1012,3 hPa 0,0 l/m 4,0 km/h (1 Bft) S-SW 207 0 min 0,000 mm 0,0 UV-I 0 W/m 16,4 C 23,1 C 4,8 km/h (1 Bft) 100,00 %
21.06.2017 00:30 23,1 C 25,6 C 67 % 1012,3 hPa 0,0 l/m 5,9 km/h (2 Bft) S-SW 204 0 min 0,000 mm 0,0 UV-I 0 W/m 16,6 C 23,1 C 8,0 km/h (2 Bft) 97,37 %
21.06.2017 00:32 23,1 C 25,6 C 67 % 1012,3 hPa 0,0 l/m 4,9 km/h (1 Bft) S-SW 209 0 min 0,000 mm 0,0 UV-I 0 W/m 16,6 C 23,1 C 8,0 km/h (2 Bft) 100,00 %
21.06.2017 00:34 23,0 C 25,6 C 67 % 1012,3 hPa 0,0 l/m 4,9 km/h (1 Bft) S-SW 209 0 min 0,000 mm 0,0 UV-I 0 W/m 16,5 C 23,0 C 6,4 km/h (2 Bft) 97,87 %
21.06.2017 00:36 22,9 C 25,6 C 67 % 1012,4 hPa 0,0 l/m 5,2 km/h (1 Bft) S-SW 213 0 min 0,000 mm 0,0 UV-I 0 W/m 16,4 C 22,9 C 8,0 km/h (2 Bft) 96,00 %
21.06.2017 00:38 22,9 C 25,6 C 67 % 1012,4 hPa 0,0 l/m 5,6 km/h (1 Bft) SW 221 0 min 0,000 mm 0,0 UV-I 0 W/m 16,4 C 22,9 C 8,0 km/h (2 Bft) 97,87 %
21.06.2017 00:40 22,9 C 25,6 C 67 % 1012,4 hPa 0,0 l/m 4,7 km/h (1 Bft) S-SW 211 0 min 0,000 mm 0,0 UV-I 0 W/m 16,4 C 22,9 C 6,4 km/h (2 Bft) 96,00 %
21.06.2017 00:42 22,8 C 25,6 C 67 % 1012,4 hPa 0,0 l/m 6,0 km/h (2 Bft) S-SW 203 0 min 0,000 mm 0,0 UV-I 0 W/m 16,3 C 22,8 C 8,0 km/h (2 Bft) 97,87 %
21.06.2017 00:44 22,8 C 25,6 C 68 % 1012,4 hPa 0,0 l/m 5,5 km/h (1 Bft) S-SW 203 0 min 0,000 mm 0,0 UV-I 0 W/m 16,6 C 22,8 C 8,0 km/h (2 Bft) 100,00 %
21.06.2017 00:46 22,7 C 25,6 C 68 % 1012,4 hPa 0,0 l/m 5,4 km/h (1 Bft) S-SW 201 0 min 0,000 mm 0,0 UV-I 0 W/m 16,5 C 22,7 C 6,4 km/h (2 Bft) 95,74 %
21.06.2017 00:48 22,7 C 25,0 C 68 % 1012,5 hPa 0,0 l/m 5,9 km/h (2 Bft) S-SW 201 0 min 0,000 mm 0,0 UV-I 0 W/m 16,5 C 22,7 C 9,7 km/h (2 Bft) 95,74 %
21.06.2017 00:50 22,6 C 25,0 C 68 % 1012,5 hPa 0,0 l/m 4,6 km/h (1 Bft) S-SW 200 0 min 0,000 mm 0,0 UV-I 0 W/m 16,4 C 22,6 C 6,4 km/h (2 Bft) 95,74 %
21.06.2017 00:52 22,6 C 25,0 C 68 % 1012,5 hPa 0,0 l/m 3,7 km/h (1 Bft) S-SW 201 0 min 0,000 mm 0,0 UV-I 0 W/m 16,4 C 22,6 C 6,4 km/h (2 Bft) 95,74 %
21.06.2017 00:54 22,5 C 25,0 C 69 % 1012,5 hPa 0,0 l/m 4,2 km/h (1 Bft) S-SW 201 0 min 0,000 mm 0,0 UV-I 0 W/m 16,5 C 22,5 C 6,4 km/h (2 Bft) 96,00 %
21.06.2017 00:56 22,4 C 25,0 C 69 % 1012,4 hPa 0,0 l/m 4,9 km/h (1 Bft) S-SW 201 0 min 0,000 mm 0,0 UV-I 0 W/m 16,4 C 22,4 C 8,0 km/h (2 Bft) 93,62 %
21.06.2017 00:58 22,4 C 25,0 C 69 % 1012,4 hPa 0,0 l/m 5,0 km/h (1 Bft) S-SW 200 0 min 0,000 mm 0,0 UV-I 0 W/m 16,4 C 22,4 C 6,4 km/h (2 Bft) 96,00 %
21.06.2017 01:00 22,4 C 25,0 C 69 % 1012,4 hPa 0,0 l/m 4,9 km/h (1 Bft) SW 216 0 min 0,025 mm 0,0 UV-I 0 W/m 16,4 C 22,4 C 8,0 km/h (2 Bft) 93,62 %
21.06.2017 01:02 22,4 C 25,0 C 69 % 1012,5 hPa 0,0 l/m 5,3 km/h (1 Bft) S-SW 212 0 min 0,000 mm 0,0 UV-I 0 W/m 16,4 C 22,4 C 8,0 km/h (2 Bft) 95,74 %
21.06.2017 01:04 22,5 C 25,0 C 69 % 1012,5 hPa 0,0 l/m 5,0 km/h (1 Bft) SW 219 0 min 0,000 mm 0,0 UV-I 0 W/m 16,5 C 22,5 C 8,0 km/h (2 Bft) 95,74 %
21.06.2017 01:06 22,5 C 25,0 C 69 % 1012,5 hPa 0,0 l/m 5,3 km/h (1 Bft) SW 234 0 min 0,000 mm 0,0 UV-I 0 W/m 16,5 C 22,5 C 8,0 km/h (2 Bft) 95,74 %
21.06.2017 01:08 22,6 C 25,0 C 69 % 1012,5 hPa 0,0 l/m 3,3 km/h (1 Bft) SW 234 0 min 0,000 mm 0,0 UV-I 0 W/m 16,6 C 22,6 C 6,4 km/h (2 Bft) 91,67 %
21.06.2017 01:10 22,5 C 25,0 C 69 % 1012,5 hPa 0,0 l/m 4,7 km/h (1 Bft) SW 234 0 min 0,000 mm 0,0 UV-I 0 W/m 16,5 C 22,5 C 6,4 km/h (2 Bft) 96,00 %
21.06.2017 01:12 22,4 C 25,0 C 69 % 1012,5 hPa 0,0 l/m 4,9 km/h (1 Bft) W-SW 244 0 min 0,000 mm 0,0 UV-I 0 W/m 16,4 C 22,4 C 6,4 km/h (2 Bft) 95,74 %
21.06.2017 01:14 22,4 C 25,0 C 70 % 1012,5 hPa 0,0 l/m 4,3 km/h (1 Bft) W-SW 251 0 min 0,000 mm 0,0 UV-I 0 W/m 16,7 C 22,4 C 6,4 km/h (2 Bft) 93,62 %
21.06.2017 01:16 22,4 C 25,0 C 70 % 1012,6 hPa 0,0 l/m 2,3 km/h (1 Bft) W-SW 251 0 min 0,000 mm 0,0 UV-I 0 W/m 16,7 C 22,4 C 4,8 km/h (1 Bft) 95,74 %
21.06.2017 01:18 22,3 C 25,0 C 70 % 1012,6 hPa 0,0 l/m 1,3 km/h (1 Bft) W-SW 251 0 min 0,000 mm 0,0 UV-I 0 W/m 16,6 C 22,3 C 3,2 km/h (1 Bft) 96,00 %
21.06.2017 01:20 22,3 C 25,0 C 70 % 1012,6 hPa 0,0 l/m 1,5 km/h (1 Bft) NW 305 0 min 0,000 mm 0,0 UV-I 0 W/m 16,6 C 22,3 C 4,8 km/h (1 Bft) 97,87 %
21.06.2017 01:22 22,2 C 25,0 C 71 % 1012,5 hPa 0,0 l/m 2,1 km/h (1 Bft) NW 304 0 min 0,000 mm 0,0 UV-I 0 W/m 16,7 C 22,2 C 3,2 km/h (1 Bft) 100,00 %
21.06.2017 01:24 22,1 C 25,0 C 71 % 1012,5 hPa 0,0 l/m 3,9 km/h (1 Bft) W 266 0 min 0,000 mm 0,0 UV-I 0 W/m 16,6 C 22,1 C 6,4 km/h (2 Bft) 98,00 %
21.06.2017 01:26 22,1 C 25,0 C 71 % 1012,5 hPa 0,0 l/m 4,6 km/h (1 Bft) W-SW 242 0 min 0,000 mm 0,0 UV-I 0 W/m 16,6 C 22,1 C 6,4 km/h (2 Bft) 96,00 %
21.06.2017 01:28 22,2 C 25,0 C 71 % 1012,5 hPa 0,0 l/m 4,5 km/h (1 Bft) W-SW 238 0 min 0,000 mm 0,0 UV-I 0 W/m 16,7 C 22,2 C 8,0 km/h (2 Bft) 100,00 %
21.06.2017 01:30 22,2 C 25,0 C 71 % 1012,4 hPa 0,0 l/m 5,9 km/h (2 Bft) SW 224 0 min 0,000 mm 0,0 UV-I 0 W/m 16,7 C 22,2 C 11,3 km/h (2 Bft) 96,00 %
21.06.2017 01:32 22,2 C 25,0 C 71 % 1012,4 hPa 0,0 l/m 6,8 km/h (2 Bft) SW 224 0 min 0,000 mm 0,0 UV-I 0 W/m 16,7 C 22,1 C 11,3 km/h (2 Bft) 100,00 %
21.06.2017 01:34 22,1 C 25,0 C 71 % 1012,4 hPa 0,0 l/m 7,4 km/h (2 Bft) SW 221 0 min 0,000 mm 0,0 UV-I 0 W/m 16,6 C 21,8 C 9,7 km/h (2 Bft) 97,87 %
21.06.2017 01:36 22,1 C 25,0 C 71 % 1012,4 hPa 0,0 l/m 6,5 km/h (2 Bft) S-SW 209 0 min 0,000 mm 0,0 UV-I 0 W/m 16,6 C 22,1 C 9,7 km/h (2 Bft) 96,00 %
21.06.2017 01:38 22,1 C 25,0 C 72 % 1012,4 hPa 0,0 l/m 6,3 km/h (2 Bft) SW 223 0 min 0,000 mm 0,0 UV-I 0 W/m 16,8 C 22,1 C 9,7 km/h (2 Bft) 97,87 %
21.06.2017 01:40 22,1 C 25,0 C 71 % 1012,3 hPa 0,0 l/m 5,0 km/h (1 Bft) SW 215 0 min 0,000 mm 0,0 UV-I 0 W/m 16,6 C 22,1 C 6,4 km/h (2 Bft) 100,00 %
21.06.2017 01:42 22,1 C 25,0 C 72 % 1012,3 hPa 0,0 l/m 4,5 km/h (1 Bft) SW 215 0 min 0,000 mm 0,0 UV-I 0 W/m 16,8 C 22,1 C 8,0 km/h (2 Bft) 94,00 %
21.06.2017 01:44 22,0 C 25,0 C 72 % 1012,3 hPa 0,0 l/m 4,7 km/h (1 Bft) SW 220 0 min 0,000 mm 0,0 UV-I 0 W/m 16,7 C 22,0 C 8,0 km/h (2 Bft) 98,00 %
21.06.2017 01:46 22,0 C 25,0 C 72 % 1012,3 hPa 0,0 l/m 5,3 km/h (1 Bft) W-SW 251 0 min 0,000 mm 0,0 UV-I 0 W/m 16,7 C 22,0 C 8,0 km/h (2 Bft) 97,87 %
21.06.2017 01:48 22,0 C 25,0 C 72 % 1012,3 hPa 0,0 l/m 3,1 km/h (1 Bft) W-SW 251 0 min 0,000 mm 0,0 UV-I 0 W/m 16,7 C 22,0 C 4,8 km/h (1 Bft) 100,00 %
21.06.2017 01:50 21,9 C 25,0 C 72 % 1012,4 hPa 0,0 l/m 1,4 km/h (1 Bft) W-SW 251 0 min 0,000 mm 0,0 UV-I 0 W/m 16,6 C 21,9 C 3,2 km/h (1 Bft) 97,87 %
21.06.2017 01:52 21,7 C 25,0 C 72 % 1012,4 hPa 0,0 l/m 1,0 km/h (0 Bft) N 9 0 min 0,000 mm 0,0 UV-I 0 W/m 16,4 C 21,7 C 3,2 km/h (1 Bft) 95,83 %
21.06.2017 01:54 21,3 C 25,0 C 74 % 1012,5 hPa 0,0 l/m 1,1 km/h (1 Bft) N-NO 24 0 min 0,000 mm 0,0 UV-I 0 W/m 16,5 C 21,3 C 3,2 km/h (1 Bft) 100,00 %
21.06.2017 01:56 20,9 C 25,0 C 76 % 1012,5 hPa 0,0 l/m 1,9 km/h (1 Bft) N-NW 345 0 min 0,000 mm 0,0 UV-I 0 W/m 16,5 C 20,9 C 4,8 km/h (1 Bft) 100,00 %
21.06.2017 01:58 20,7 C 25,0 C 76 % 1012,5 hPa 0,0 l/m 0,9 km/h (0 Bft) N-NW 344 0 min 0,000 mm 0,0 UV-I 0 W/m 16,3 C 20,7 C 3,2 km/h (1 Bft) 98,00 %
21.06.2017 02:00 20,8 C 25,0 C 76 % 1012,5 hPa 0,0 l/m 3,2 km/h (1 Bft) W-NW 282 0 min 0,000 mm 0,0 UV-I 0 W/m 16,4 C 20,8 C 6,4 km/h (2 Bft) 95,74 %
21.06.2017 02:02 21,0 C 25,0 C 76 % 1012,5 hPa 0,0 l/m 2,1 km/h (1 Bft) W 281 0 min 0,026 mm 0,0 UV-I 0 W/m 16,6 C 21,0 C 3,2 km/h (1 Bft) 97,37 %
21.06.2017 02:04 21,2 C 25,0 C 75 % 1012,5 hPa 0,0 l/m 1,5 km/h (1 Bft) W 279 0 min 0,000 mm 0,0 UV-I 0 W/m 16,6 C 21,2 C 6,4 km/h (2 Bft) 95,74 %
21.06.2017 02:06 21,2 C 25,0 C 75 % 1012,5 hPa 0,0 l/m 1,8 km/h (1 Bft) W-SW 255 0 min 0,000 mm 0,0 UV-I 0 W/m 16,6 C 21,2 C 6,4 km/h (2 Bft) 93,62 %
21.06.2017 02:08 21,1 C 25,0 C 75 % 1012,5 hPa 0,0 l/m 2,2 km/h (1 Bft) W-SW 256 0 min 0,000 mm 0,0 UV-I 0 W/m 16,5 C 21,1 C 4,8 km/h (1 Bft) 95,74 %
21.06.2017 02:10 21,2 C 25,0 C 75 % 1012,4 hPa 0,0 l/m 3,6 km/h (1 Bft) W-SW 249 0 min 0,000 mm 0,0 UV-I 0 W/m 16,6 C 21,2 C 6,4 km/h (2 Bft) 95,74 %
21.06.2017 02:12 21,3 C 25,0 C 75 % 1012,4 hPa 0,0 l/m 4,0 km/h (1 Bft) W-SW 252 0 min 0,000 mm 0,0 UV-I 0 W/m 16,7 C 21,3 C 6,4 km/h (2 Bft) 93,62 %
21.06.2017 02:14 21,4 C 25,0 C 74 % 1012,4 hPa 0,0 l/m 2,2 km/h (1 Bft) W-SW 252 0 min 0,000 mm 0,0 UV-I 0 W/m 16,6 C 21,4 C 4,8 km/h (1 Bft) 95,74 %
21.06.2017 02:16 21,5 C 25,0 C 74 % 1012,4 hPa 0,0 l/m 1,3 km/h (1 Bft) W-SW 252 0 min 0,000 mm 0,0 UV-I 0 W/m 16,7 C 21,5 C 3,2 km/h (1 Bft) 97,87 %
21.06.2017 02:18 21,5 C 25,0 C 74 % 1012,4 hPa 0,0 l/m 0,7 km/h (0 Bft) W-SW 252 0 min 0,000 mm 0,0 UV-I 0 W/m 16,7 C 21,5 C 3,2 km/h (1 Bft) 95,74 %
21.06.2017 02:20 21,4 C 25,0 C 74 % 1012,4 hPa 0,0 l/m 0,1 km/h (0 Bft) W-SW 252 0 min 0,000 mm 0,0 UV-I 0 W/m 16,6 C 21,4 C 1,6 km/h (1 Bft) 97,87 %
21.06.2017 02:22 21,5 C 25,0 C 74 % 1012,4 hPa 0,0 l/m 0,9 km/h (0 Bft) W-SW 252 0 min 0,000 mm 0,0 UV-I 0 W/m 16,7 C 21,5 C 3,2 km/h (1 Bft) 95,74 %
21.06.2017 02:24 21,5 C 25,0 C 74 % 1012,3 hPa 0,0 l/m 1,6 km/h (1 Bft) W-SW 252 0 min 0,000 mm 0,0 UV-I 0 W/m 16,7 C 21,5 C 3,2 km/h (1 Bft) 93,62 %
21.06.2017 02:26 21,5 C 25,0 C 74 % 1012,3 hPa 0,0 l/m 1,3 km/h (1 Bft) S-SW 208 0 min 0,000 mm 0,0 UV-I 0 W/m 16,7 C 21,5 C 3,2 km/h (1 Bft) 95,74 %
21.06.2017 02:28 21,4 C 25,0 C 74 % 1012,3 hPa 0,0 l/m 1,1 km/h (1 Bft) S-SW 208 0 min 0,000 mm 0,0 UV-I 0 W/m 16,6 C 21,4 C 3,2 km/h (1 Bft) 97,87 %
21.06.2017 02:30 21,3 C 25,0 C 75 % 1012,3 hPa 0,0 l/m 1,0 km/h (0 Bft) S-SW 208 0 min 0,000 mm 0,0 UV-I 0 W/m 16,7 C 21,3 C 1,6 km/h (1 Bft) 97,92 %
21.06.2017 02:32 21,2 C 25,0 C 75 % 1012,3 hPa 0,0 l/m 1,9 km/h (1 Bft) S-SW 208 0 min 0,000 mm 0,0 UV-I 0 W/m 16,6 C 21,2 C 3,2 km/h (1 Bft) 97,87 %
21.06.2017 02:34 21,1 C 25,0 C 75 % 1012,3 hPa 0,0 l/m 1,3 km/h (1 Bft) S-SW 208 0 min 0,000 mm 0,0 UV-I 0 W/m 16,5 C 21,1 C 4,8 km/h (1 Bft) 93,62 %
21.06.2017 02:36 21,1 C 25,0 C 75 % 1012,2 hPa 0,0 l/m 2,8 km/h (1 Bft) S-SW 208 0 min 0,000 mm 0,0 UV-I 0 W/m 16,5 C 21,1 C 4,8 km/h (1 Bft) 91,49 %
21.06.2017 02:38 21,1 C 25,0 C 75 % 1012,2 hPa 0,0 l/m 3,6 km/h (1 Bft) S-SW 208 0 min 0,000 mm 0,0 UV-I 0 W/m 16,5 C 21,1 C 4,8 km/h (1 Bft) 95,74 %
21.06.2017 02:40 21,2 C 25,0 C 75 % 1012,3 hPa 0,0 l/m 2,6 km/h (1 Bft) S-SW 208 0 min 0,000 mm 0,0 UV-I 0 W/m 16,6 C 21,2 C 4,8 km/h (1 Bft) 94,74 %
21.06.2017 02:42 21,2 C 25,0 C 75 % 1012,2 hPa 0,0 l/m 3,1 km/h (1 Bft) S-SW 208 0 min 0,000 mm 0,0 UV-I 0 W/m 16,6 C 21,2 C 4,8 km/h (1 Bft) 95,16 %
21.06.2017 02:44 21,1 C 25,0 C 75 % 1012,2 hPa 0,0 l/m 2,4 km/h (1 Bft) S-SW 208 0 min 0,000 mm 0,0 UV-I 0 W/m 16,5 C 21,1 C 4,8 km/h (1 Bft) 93,62 %
21.06.2017 02:46 21,1 C 25,0 C 75 % 1012,1 hPa 0,0 l/m 2,4 km/h (1 Bft) S-SW 208 0 min 0,000 mm 0,0 UV-I 0 W/m 16,5 C 21,1 C 4,8 km/h (1 Bft) 95,74 %
21.06.2017 02:48 21,0 C 25,0 C 75 % 1012,2 hPa 0,0 l/m 0,7 km/h (0 Bft) S-SW 208 0 min 0,000 mm 0,0 UV-I 0 W/m 16,4 C 21,0 C 3,2 km/h (1 Bft) 93,62 %
21.06.2017 02:50 20,9 C 25,0 C 75 % 1012,2 hPa 0,0 l/m 0,5 km/h (0 Bft) S-SW 208 0 min 0,000 mm 0,0 UV-I 0 W/m 16,3 C 20,9 C 3,2 km/h (1 Bft) 93,62 %
21.06.2017 02:52 20,8 C 25,0 C 75 % 1012,1 hPa 0,0 l/m 0,0 km/h (0 Bft) S-SW 208 0 min 0,000 mm 0,0 UV-I 0 W/m 16,2 C 20,8 C 1,6 km/h (1 Bft) 94,59 %
21.06.2017 02:54 20,8 C 25,0 C 76 % 1012,1 hPa 0,0 l/m 0,0 km/h (0 Bft) S-SW 208 0 min 0,000 mm 0,0 UV-I 0 W/m 16,4 C 20,8 C 0,0 km/h (0 Bft) 93,62 %
21.06.2017 02:56 20,7 C 25,0 C 76 % 1012,0 hPa 0,0 l/m 1,2 km/h (1 Bft) S-SW 208 0 min 0,000 mm 0,0 UV-I 0 W/m 16,3 C 20,7 C 4,8 km/h (1 Bft) 95,74 %
21.06.2017 02:58 20,6 C 25,0 C 77 % 1012,0 hPa 0,0 l/m 2,2 km/h (1 Bft) S-SW 208 0 min 0,000 mm 0,0 UV-I 0 W/m 16,4 C 20,6 C 4,8 km/h (1 Bft) 91,49 %
21.06.2017 03:00 20,6 C 25,0 C 77 % 1012,0 hPa 0,0 l/m 0,6 km/h (0 Bft) S-SW 208 0 min 0,025 mm 0,0 UV-I 0 W/m 16,4 C 20,6 C 1,6 km/h (1 Bft) 95,74 %
21.06.2017 03:02 20,4 C 25,0 C 77 % 1012,0 hPa 0,0 l/m 0,2 km/h (0 Bft) S-SW 208 0 min 0,000 mm 0,0 UV-I 0 W/m 16,2 C 20,4 C 1,6 km/h (1 Bft) 93,62 %
21.06.2017 03:04 20,4 C 25,0 C 77 % 1012,0 hPa 0,0 l/m 1,6 km/h (1 Bft) S-SW 208 0 min 0,000 mm 0,0 UV-I 0 W/m 16,2 C 20,4 C 3,2 km/h (1 Bft) 98,00 %
21.06.2017 03:06 20,3 C 25,0 C 77 % 1012,0 hPa 0,0 l/m 0,7 km/h (0 Bft) S-SW 208 0 min 0,000 mm 0,0 UV-I 0 W/m 16,1 C 20,3 C 1,6 km/h (1 Bft) 97,87 %
21.06.2017 03:09 20,3 C 25,0 C 78 % 1012,1 hPa 0,0 l/m 2,7 km/h (1 Bft) S-SW 208 0 min 0,000 mm 0,0 UV-I 0 W/m 16,3 C 20,3 C 6,4 km/h (2 Bft) 94,37 %
21.06.2017 03:10 20,3 C 25,0 C 78 % 1012,2 hPa 0,0 l/m 5,9 km/h (2 Bft) S-SW 208 0 min 0,000 mm 0,0 UV-I 0 W/m 16,3 C 20,3 C 8,0 km/h (2 Bft) 96,15 %
21.06.2017 03:12 20,3 C 25,0 C 78 % 1012,2 hPa 0,0 l/m 2,7 km/h (1 Bft) S-SW 208 0 min 0,000 mm 0,0 UV-I 0 W/m 16,3 C 20,3 C 6,4 km/h (2 Bft) 97,44 %
21.06.2017 03:14 20,3 C 25,0 C 78 % 1012,3 hPa 0,0 l/m 3,4 km/h (1 Bft) S-SW 205 0 min 0,000 mm 0,0 UV-I 0 W/m 16,3 C 20,3 C 6,4 km/h (2 Bft) 93,62 %
21.06.2017 03:16 20,2 C 25,0 C 78 % 1012,3 hPa 0,0 l/m 2,6 km/h (1 Bft) S-SW 205 0 min 0,000 mm 0,0 UV-I 0 W/m 16,2 C 20,2 C 4,8 km/h (1 Bft) 95,74 %
21.06.2017 03:18 20,2 C 25,0 C 78 % 1012,3 hPa 0,0 l/m 1,5 km/h (1 Bft) S-SW 205 0 min 0,000 mm 0,0 UV-I 0 W/m 16,2 C 20,2 C 4,8 km/h (1 Bft) 97,87 %
21.06.2017 03:20 20,2 C 25,0 C 78 % 1012,4 hPa 0,0 l/m 4,1 km/h (1 Bft) S-SW 203 0 min 0,000 mm 0,0 UV-I 0 W/m 16,2 C 20,2 C 8,0 km/h (2 Bft) 98,00 %
21.06.2017 03:22 20,2 C 25,0 C 78 % 1012,4 hPa 0,0 l/m 4,9 km/h (1 Bft) SW 216 0 min 0,000 mm 0,0 UV-I 0 W/m 16,2 C 20,2 C 6,4 km/h (2 Bft) 97,87 %
21.06.2017 03:24 20,2 C 25,0 C 78 % 1012,4 hPa 0,0 l/m 4,0 km/h (1 Bft) SW 214 0 min 0,000 mm 0,0 UV-I 0 W/m 16,2 C 20,2 C 6,4 km/h (2 Bft) 97,87 %
21.06.2017 03:26 20,2 C 25,0 C 78 % 1012,4 hPa 0,0 l/m 1,8 km/h (1 Bft) SW 214 0 min 0,000 mm 0,0 UV-I 0 W/m 16,2 C 20,2 C 3,2 km/h (1 Bft) 100,00 %
21.06.2017 03:28 20,1 C 25,0 C 78 % 1012,4 hPa 0,0 l/m 2,0 km/h (1 Bft) SW 214 0 min 0,000 mm 0,0 UV-I 0 W/m 16,1 C 20,1 C 3,2 km/h (1 Bft) 95,74 %
21.06.2017 03:30 20,1 C 25,0 C 78 % 1012,4 hPa 0,0 l/m 3,1 km/h (1 Bft) SW 214 0 min 0,000 mm 0,0 UV-I 0 W/m 16,1 C 20,1 C 4,8 km/h (1 Bft) 97,87 %
21.06.2017 03:32 20,1 C 25,0 C 78 % 1012,4 hPa 0,0 l/m 2,1 km/h (1 Bft) SW 214 0 min 0,000 mm 0,0 UV-I 0 W/m 16,1 C 20,1 C 4,8 km/h (1 Bft) 97,87 %
21.06.2017 03:34 20,0 C 25,0 C 78 % 1012,3 hPa 0,0 l/m 1,4 km/h (1 Bft) SW 214 0 min 0,000 mm 0,0 UV-I 0 W/m 16,0 C 20,0 C 3,2 km/h (1 Bft) 100,00 %
21.06.2017 03:36 19,9 C 25,0 C 78 % 1012,4 hPa 0,0 l/m 0,3 km/h (0 Bft) SW 214 0 min 0,000 mm 0,0 UV-I 0 W/m 15,9 C 19,9 C 1,6 km/h (1 Bft) 97,87 %
21.06.2017 03:38 19,9 C 25,0 C 78 % 1012,4 hPa 0,0 l/m 1,8 km/h (1 Bft) SW 214 0 min 0,000 mm 0,0 UV-I 0 W/m 15,9 C 19,9 C 4,8 km/h (1 Bft) 100,00 %
21.06.2017 03:40 19,9 C 25,0 C 78 % 1012,4 hPa 0,0 l/m 3,5 km/h (1 Bft) SW 214 0 min 0,000 mm 0,0 UV-I 0 W/m 15,9 C 19,9 C 4,8 km/h (1 Bft) 93,62 %
21.06.2017 03:42 19,9 C 25,0 C 78 % 1012,4 hPa 0,0 l/m 2,3 km/h (1 Bft) SW 214 0 min 0,000 mm 0,0 UV-I 0 W/m 15,9 C 19,9 C 3,2 km/h (1 Bft) 93,62 %
21.06.2017 03:44 19,8 C 25,0 C 78 % 1012,4 hPa 0,0 l/m 1,7 km/h (1 Bft) SW 214 0 min 0,000 mm 0,0 UV-I 0 W/m 15,8 C 19,8 C 3,2 km/h (1 Bft) 97,87 %
21.06.2017 03:46 19,8 C 25,0 C 79 % 1012,4 hPa 0,0 l/m 2,5 km/h (1 Bft) SW 214 0 min 0,000 mm 0,0 UV-I 0 W/m 16,0 C 19,8 C 3,2 km/h (1 Bft) 100,00 %
21.06.2017 03:48 19,9 C 25,0 C 78 % 1012,4 hPa 0,0 l/m 1,1 km/h (1 Bft) SW 214 0 min 0,000 mm 0,0 UV-I 0 W/m 15,9 C 19,9 C 1,6 km/h (1 Bft) 96,00 %
21.06.2017 03:50 19,9 C 25,0 C 78 % 1012,4 hPa 0,0 l/m 2,4 km/h (1 Bft) SW 214 0 min 0,000 mm 0,0 UV-I 0 W/m 15,9 C 19,9 C 4,8 km/h (1 Bft) 100,00 %
21.06.2017 03:52 19,9 C 25,0 C 78 % 1012,5 hPa 0,0 l/m 2,8 km/h (1 Bft) SW 214 0 min 0,000 mm 0,0 UV-I 0 W/m 15,9 C 19,9 C 4,8 km/h (1 Bft) 97,87 %
21.06.2017 03:54 19,9 C 25,0 C 78 % 1012,5 hPa 0,0 l/m 3,3 km/h (1 Bft) SW 214 0 min 0,000 mm 0,0 UV-I 0 W/m 15,9 C 19,9 C 4,8 km/h (1 Bft) 98,00 %
21.06.2017 03:56 19,9 C 25,0 C 78 % 1012,5 hPa 0,0 l/m 4,0 km/h (1 Bft) SW 215 0 min 0,000 mm 0,0 UV-I 0 W/m 15,9 C 19,9 C 6,4 km/h (2 Bft) 97,87 %
21.06.2017 03:58 19,9 C 25,0 C 78 % 1012,5 hPa 0,0 l/m 3,8 km/h (1 Bft) SW 223 0 min 0,000 mm 0,0 UV-I 0 W/m 15,9 C 19,9 C 8,0 km/h (2 Bft) 95,74 %
21.06.2017 04:00 19,9 C 25,0 C 78 % 1012,5 hPa 0,0 l/m 2,7 km/h (1 Bft) SW 224 0 min 0,026 mm 0,0 UV-I 0 W/m 15,9 C 19,9 C 4,8 km/h (1 Bft) 95,74 %
21.06.2017 04:05 20,1 C 25,0 C 77 % 1012,6 hPa 0,0 l/m 1,8 km/h (1 Bft) SW 224 0 min 0,000 mm 0,0 UV-I 0 W/m 15,9 C 20,1 C 3,2 km/h (1 Bft) 96,43 %
21.06.2017 04:06 20,2 C 25,0 C 77 % 1012,6 hPa 0,0 l/m 3,0 km/h (1 Bft) SW 224 0 min 0,000 mm 0,0 UV-I 0 W/m 16,0 C 20,2 C 4,8 km/h (1 Bft) 96,30 %
21.06.2017 04:08 20,2 C 25,0 C 77 % 1012,5 hPa 0,0 l/m 1,7 km/h (1 Bft) SW 224 0 min 0,000 mm 0,0 UV-I 0 W/m 16,0 C 20,2 C 4,8 km/h (1 Bft) 97,87 %
21.06.2017 04:10 20,2 C 25,0 C 77 % 1012,6 hPa 0,0 l/m 3,9 km/h (1 Bft) SW 224 0 min 0,000 mm 0,0 UV-I 0 W/m 16,0 C 20,2 C 6,4 km/h (2 Bft) 95,74 %
21.06.2017 04:12 20,3 C 25,0 C 77 % 1012,5 hPa 0,0 l/m 3,4 km/h (1 Bft) SW 224 0 min 0,000 mm 0,0 UV-I 0 W/m 16,1 C 20,3 C 4,8 km/h (1 Bft) 97,87 %
21.06.2017 04:14 20,3 C 25,0 C 77 % 1012,5 hPa 0,0 l/m 2,5 km/h (1 Bft) SW 224 0 min 0,000 mm 0,0 UV-I 0 W/m 16,1 C 20,3 C 4,8 km/h (1 Bft) 97,87 %
21.06.2017 04:16 20,3 C 25,0 C 77 % 1012,6 hPa 0,0 l/m 3,4 km/h (1 Bft) SW 224 0 min 0,000 mm 0,0 UV-I 0 W/m 16,1 C 20,3 C 4,8 km/h (1 Bft) 100,00 %
21.06.2017 04:18 20,2 C 25,0 C 77 % 1012,6 hPa 0,0 l/m 2,7 km/h (1 Bft) SW 224 0 min 0,000 mm 0,0 UV-I 0 W/m 16,0 C 20,2 C 4,8 km/h (1 Bft) 95,74 %
21.06.2017 04:20 20,2 C 25,0 C 77 % 1012,6 hPa 0,0 l/m 2,0 km/h (1 Bft) SW 224 0 min 0,000 mm 0,0 UV-I 0 W/m 16,0 C 20,2 C 3,2 km/h (1 Bft) 100,00 %
21.06.2017 04:22 20,1 C 25,0 C 77 % 1012,6 hPa 0,0 l/m 2,5 km/h (1 Bft) SW 224 0 min 0,000 mm 0,0 UV-I 0 W/m 15,9 C 20,1 C 4,8 km/h (1 Bft) 97,87 %
21.06.2017 04:24 20,1 C 25,0 C 77 % 1012,6 hPa 0,0 l/m 2,9 km/h (1 Bft) SW 224 0 min 0,000 mm 0,0 UV-I 0 W/m 15,9 C 20,1 C 4,8 km/h (1 Bft) 100,00 %
21.06.2017 04:26 20,0 C 25,0 C 77 % 1012,7 hPa 0,0 l/m 3,8 km/h (1 Bft) SW 224 0 min 0,000 mm 0,0 UV-I 0 W/m 15,8 C 20,0 C 6,4 km/h (2 Bft) 98,00 %
21.06.2017 04:28 19,9 C 25,0 C 78 % 1012,7 hPa 0,0 l/m 5,8 km/h (2 Bft) SW 223 0 min 0,000 mm 0,0 UV-I 0 W/m 15,9 C 19,9 C 8,0 km/h (2 Bft) 100,00 %
21.06.2017 04:30 19,8 C 25,0 C 78 % 1012,7 hPa 0,0 l/m 6,2 km/h (2 Bft) SW 223 0 min 0,000 mm 0,0 UV-I 0 W/m 15,8 C 19,8 C 8,0 km/h (2 Bft) 93,62 %
21.06.2017 04:32 19,7 C 25,0 C 78 % 1012,7 hPa 0,0 l/m 6,9 km/h (2 Bft) SW 234 0 min 0,000 mm 0,0 UV-I 0 W/m 15,8 C 19,5 C 9,7 km/h (2 Bft) 100,00 %
21.06.2017 04:34 19,6 C 25,0 C 79 % 1012,7 hPa 0,0 l/m 4,0 km/h (1 Bft) SW 229 0 min 0,000 mm 0,0 UV-I 0 W/m 15,9 C 19,6 C 6,4 km/h (2 Bft) 97,87 %
21.06.2017 04:36 19,5 C 25,0 C 79 % 1012,8 hPa 0,0 l/m 4,1 km/h (1 Bft) SW 229 0 min 0,000 mm 0,0 UV-I 0 W/m 15,8 C 19,5 C 6,4 km/h (2 Bft) 100,00 %
21.06.2017 04:38 19,4 C 25,0 C 79 % 1012,8 hPa 0,0 l/m 4,4 km/h (1 Bft) SW 229 0 min 0,000 mm 0,0 UV-I 0 W/m 15,7 C 19,4 C 6,4 km/h (2 Bft) 97,87 %
21.06.2017 04:40 19,4 C 25,0 C 79 % 1012,8 hPa 0,0 l/m 4,5 km/h (1 Bft) SW 229 0 min 0,000 mm 0,0 UV-I 0 W/m 15,7 C 19,4 C 6,4 km/h (2 Bft) 100,00 %
21.06.2017 04:42 19,5 C 25,0 C 79 % 1012,8 hPa 0,0 l/m 4,5 km/h (1 Bft) SW 229 0 min 0,000 mm 0,0 UV-I 0 W/m 15,8 C 19,5 C 6,4 km/h (2 Bft) 97,87 %
21.06.2017 04:44 19,5 C 25,0 C 79 % 1012,8 hPa 0,0 l/m 4,1 km/h (1 Bft) S-SW 200 0 min 0,000 mm 0,0 UV-I 0 W/m 15,8 C 19,5 C 6,4 km/h (2 Bft) 98,00 %
21.06.2017 04:46 19,5 C 25,0 C 79 % 1012,9 hPa 0,0 l/m 3,6 km/h (1 Bft) SW 236 0 min 0,000 mm 0,0 UV-I 0 W/m 15,8 C 19,5 C 6,4 km/h (2 Bft) 97,87 %
21.06.2017 04:48 19,4 C 25,0 C 80 % 1012,9 hPa 0,0 l/m 2,5 km/h (1 Bft) SW 232 0 min 0,000 mm 0,0 UV-I 0 W/m 15,9 C 19,4 C 4,8 km/h (1 Bft) 97,30 %
21.06.2017 04:50 19,4 C 25,0 C 80 % 1013,0 hPa 0,0 l/m 1,8 km/h (1 Bft) SW 232 0 min 0,000 mm 0,0 UV-I 2 W/m 15,9 C 19,4 C 3,2 km/h (1 Bft) 93,62 %
21.06.2017 04:52 19,4 C 25,0 C 80 % 1013,0 hPa 0,0 l/m 1,6 km/h (1 Bft) SW 232 0 min 0,000 mm 0,0 UV-I 5 W/m 15,9 C 19,4 C 3,2 km/h (1 Bft) 94,00 %
21.06.2017 04:54 19,4 C 25,0 C 80 % 1013,0 hPa 0,0 l/m 3,4 km/h (1 Bft) S-SW 212 0 min 0,000 mm 0,0 UV-I 5 W/m 15,9 C 19,4 C 9,7 km/h (2 Bft) 98,00 %
21.06.2017 04:56 19,5 C 25,0 C 80 % 1013,1 hPa 0,0 l/m 6,9 km/h (2 Bft) S-SW 205 0 min 0,000 mm 0,0 UV-I 5 W/m 16,0 C 19,3 C 11,3 km/h (2 Bft) 91,49 %
21.06.2017 04:58 19,5 C 25,0 C 80 % 1013,1 hPa 0,0 l/m 6,3 km/h (2 Bft) S-SW 204 0 min 0,000 mm 0,0 UV-I 5 W/m 16,0 C 19,5 C 11,3 km/h (2 Bft) 97,87 %
21.06.2017 05:00 19,4 C 25,0 C 80 % 1013,1 hPa 0,0 l/m 10,5 km/h (2 Bft) SW 217 0 min 0,025 mm 0,0 UV-I 5 W/m 15,9 C 17,8 C 16,1 km/h (3 Bft) 93,62 %
21.06.2017 05:02 19,4 C 25,0 C 80 % 1013,1 hPa 0,0 l/m 7,4 km/h (2 Bft) S-SW 202 0 min 0,000 mm 0,0 UV-I 5 W/m 15,9 C 19,0 C 11,3 km/h (2 Bft) 93,62 %
21.06.2017 05:04 19,4 C 25,0 C 80 % 1013,1 hPa 0,0 l/m 8,5 km/h (2 Bft) S-SW 203 0 min 0,000 mm 0,0 UV-I 7 W/m 15,9 C 18,5 C 11,3 km/h (2 Bft) 93,62 %
21.06.2017 05:06 19,5 C 25,0 C 80 % 1013,1 hPa 0,0 l/m 6,5 km/h (2 Bft) S-SW 212 0 min 0,000 mm 0,0 UV-I 7 W/m 16,0 C 19,5 C 11,3 km/h (2 Bft) 97,87 %
21.06.2017 05:08 19,5 C 25,0 C 80 % 1013,1 hPa 0,0 l/m 4,6 km/h (1 Bft) S 188 0 min 0,000 mm 0,0 UV-I 7 W/m 16,0 C 19,5 C 8,0 km/h (2 Bft) 98,00 %
21.06.2017 05:10 19,5 C 25,0 C 80 % 1013,1 hPa 0,0 l/m 7,3 km/h (2 Bft) S-SW 206 0 min 0,000 mm 0,0 UV-I 9 W/m 16,0 C 19,1 C 11,3 km/h (2 Bft) 97,87 %
21.06.2017 05:12 19,4 C 25,0 C 80 % 1013,1 hPa 0,0 l/m 5,6 km/h (1 Bft) S-SW 199 0 min 0,000 mm 0,0 UV-I 10 W/m 15,9 C 19,4 C 9,7 km/h (2 Bft) 94,44 %
21.06.2017 05:14 19,4 C 25,0 C 80 % 1013,2 hPa 0,0 l/m 7,0 km/h (2 Bft) W-SW 241 0 min 0,000 mm 0,0 UV-I 11 W/m 15,9 C 19,1 C 9,7 km/h (2 Bft) 93,62 %
21.06.2017 05:16 19,4 C 25,0 C 80 % 1013,1 hPa 0,0 l/m 4,9 km/h (1 Bft) S-SW 195 2 min 0,000 mm 0,0 UV-I 11 W/m 15,9 C 19,4 C 6,4 km/h (2 Bft) 100,00 %
21.06.2017 05:18 19,4 C 25,0 C 81 % 1013,2 hPa 0,0 l/m 5,1 km/h (1 Bft) SW 223 2 min 0,000 mm 0,0 UV-I 12 W/m 16,1 C 19,4 C 6,4 km/h (2 Bft) 93,62 %
21.06.2017 05:20 19,4 C 25,0 C 81 % 1013,2 hPa 0,0 l/m 5,5 km/h (1 Bft) SW 222 0 min 0,000 mm 0,0 UV-I 12 W/m 16,1 C 19,4 C 8,0 km/h (2 Bft) 100,00 %
21.06.2017 05:22 19,4 C 25,0 C 81 % 1013,2 hPa 0,0 l/m 7,3 km/h (2 Bft) W-SW 237 0 min 0,000 mm 0,0 UV-I 14 W/m 16,1 C 19,0 C 9,7 km/h (2 Bft) 100,00 %
21.06.2017 05:24 19,4 C 25,0 C 81 % 1013,2 hPa 0,0 l/m 8,2 km/h (2 Bft) SW 227 0 min 0,000 mm 0,0 UV-I 17 W/m 16,1 C 18,6 C 11,3 km/h (2 Bft) 100,00 %
21.06.2017 05:26 19,4 C 25,0 C 81 % 1013,2 hPa 0,0 l/m 8,6 km/h (2 Bft) SW 226 0 min 0,000 mm 0,0 UV-I 19 W/m 16,1 C 18,5 C 11,3 km/h (2 Bft) 100,00 %
21.06.2017 05:28 19,4 C 25,0 C 81 % 1013,2 hPa 0,0 l/m 7,4 km/h (2 Bft) SW 228 0 min 0,000 mm 0,0 UV-I 20 W/m 16,1 C 19,0 C 9,7 km/h (2 Bft) 97,87 %
21.06.2017 05:30 19,6 C 25,0 C 81 % 1013,2 hPa 0,0 l/m 8,3 km/h (2 Bft) SW 221 0 min 0,000 mm 0,0 UV-I 21 W/m 16,2 C 18,8 C 11,3 km/h (2 Bft) 95,74 %
21.06.2017 05:32 19,6 C 25,0 C 81 % 1013,2 hPa 0,0 l/m 5,6 km/h (1 Bft) SW 231 0 min 0,000 mm 0,0 UV-I 23 W/m 16,2 C 19,6 C 8,0 km/h (2 Bft) 100,00 %
21.06.2017 05:34 19,7 C 25,0 C 81 % 1013,2 hPa 0,0 l/m 4,4 km/h (1 Bft) W 263 0 min 0,000 mm 0,0 UV-I 24 W/m 16,3 C 19,7 C 6,4 km/h (2 Bft) 97,87 %
21.06.2017 05:36 19,7 C 25,0 C 80 % 1013,2 hPa 0,0 l/m 3,0 km/h (1 Bft) W 264 0 min 0,000 mm 0,0 UV-I 25 W/m 16,1 C 19,7 C 6,4 km/h (2 Bft) 100,00 %
21.06.2017 05:38 19,7 C 25,0 C 80 % 1013,2 hPa 0,0 l/m 4,5 km/h (1 Bft) SW 229 0 min 0,000 mm 0,0 UV-I 27 W/m 16,1 C 19,7 C 6,4 km/h (2 Bft) 97,87 %
21.06.2017 05:40 19,7 C 25,0 C 80 % 1013,2 hPa 0,0 l/m 2,5 km/h (1 Bft) SW 229 0 min 0,000 mm 0,0 UV-I 29 W/m 16,1 C 19,7 C 4,8 km/h (1 Bft) 95,74 %
21.06.2017 05:42 19,6 C 25,0 C 81 % 1013,2 hPa 0,0 l/m 3,7 km/h (1 Bft) SW 228 0 min 0,000 mm 0,0 UV-I 33 W/m 16,2 C 19,6 C 6,4 km/h (2 Bft) 98,00 %
21.06.2017 05:44 19,5 C 25,0 C 81 % 1013,2 hPa 0,0 l/m 3,5 km/h (1 Bft) SW 227 0 min 0,000 mm 0,0 UV-I 36 W/m 16,1 C 19,5 C 6,4 km/h (2 Bft) 97,87 %
21.06.2017 05:46 19,6 C 25,0 C 81 % 1013,2 hPa 0,0 l/m 1,4 km/h (1 Bft) SW 227 0 min 0,000 mm 0,0 UV-I 40 W/m 16,2 C 19,6 C 4,8 km/h (1 Bft) 95,83 %
21.06.2017 05:48 19,6 C 25,0 C 81 % 1013,2 hPa 0,0 l/m 1,8 km/h (1 Bft) SW 227 0 min 0,000 mm 0,0 UV-I 43 W/m 16,2 C 19,6 C 3,2 km/h (1 Bft) 93,62 %
21.06.2017 05:50 19,6 C 25,0 C 81 % 1013,2 hPa 0,0 l/m 0,4 km/h (0 Bft) SW 227 0 min 0,000 mm 0,0 UV-I 47 W/m 16,2 C 19,6 C 3,2 km/h (1 Bft) 94,74 %
21.06.2017 05:52 19,6 C 25,0 C 81 % 1013,3 hPa 0,0 l/m 0,0 km/h (0 Bft) SW 227 0 min 0,000 mm 0,0 UV-I 50 W/m 16,2 C 19,6 C 0,0 km/h (0 Bft) 94,12 %
21.06.2017 05:54 19,6 C 25,0 C 81 % 1013,3 hPa 0,0 l/m 0,0 km/h (0 Bft) SW 227 0 min 0,000 mm 0,0 UV-I 46 W/m 16,2 C 19,6 C 0,0 km/h (0 Bft) 97,87 %
21.06.2017 05:56 19,6 C 25,0 C 81 % 1013,4 hPa 0,0 l/m 0,2 km/h (0 Bft) SW 227 0 min 0,000 mm 0,0 UV-I 47 W/m 16,2 C 19,6 C 3,2 km/h (1 Bft) 95,74 %
21.06.2017 05:58 19,6 C 25,0 C 81 % 1013,4 hPa 0,0 l/m 1,7 km/h (1 Bft) SW 214 0 min 0,000 mm 0,0 UV-I 47 W/m 16,2 C 19,6 C 3,2 km/h (1 Bft) 97,87 %
21.06.2017 06:00 19,6 C 25,0 C 81 % 1013,4 hPa 0,0 l/m 0,2 km/h (0 Bft) SW 214 0 min 0,025 mm 0,0 UV-I 51 W/m 16,2 C 19,6 C 1,6 km/h (1 Bft) 95,74 %
21.06.2017 06:02 19,6 C 25,0 C 81 % 1013,3 hPa 0,0 l/m 0,0 km/h (0 Bft) SW 214 0 min 0,000 mm 0,0 UV-I 64 W/m 16,2 C 19,6 C 0,0 km/h (0 Bft) 95,74 %
21.06.2017 06:04 19,6 C 25,0 C 81 % 1013,4 hPa 0,0 l/m 0,8 km/h (0 Bft) SW 214 2 min 0,000 mm 0,0 UV-I 75 W/m 16,2 C 19,6 C 3,2 km/h (1 Bft) 96,00 %
21.06.2017 06:06 19,6 C 25,0 C 81 % 1013,4 hPa 0,0 l/m 0,0 km/h (0 Bft) SW 214 0 min 0,000 mm 0,0 UV-I 75 W/m 16,2 C 19,6 C 0,0 km/h (0 Bft) 95,74 %
21.06.2017 06:08 19,7 C 25,0 C 81 % 1013,4 hPa 0,0 l/m 0,0 km/h (0 Bft) SW 214 2 min 0,000 mm 0,0 UV-I 83 W/m 16,3 C 19,7 C 0,0 km/h (0 Bft) 93,62 %
21.06.2017 06:10 19,7 C 25,0 C 81 % 1013,5 hPa 0,0 l/m 0,0 km/h (0 Bft) SW 214 2 min 0,000 mm 0,0 UV-I 89 W/m 16,3 C 19,7 C 0,0 km/h (0 Bft) 97,87 %
21.06.2017 06:12 19,8 C 25,0 C 81 % 1013,5 hPa 0,0 l/m 0,3 km/h (0 Bft) SW 214 2 min 0,000 mm 0,0 UV-I 99 W/m 16,4 C 19,8 C 1,6 km/h (1 Bft) 97,87 %
21.06.2017 06:14 19,8 C 25,0 C 81 % 1013,5 hPa 0,0 l/m 0,0 km/h (0 Bft) SW 214 2 min 0,000 mm 0,0 UV-I 111 W/m 16,4 C 19,8 C 0,0 km/h (0 Bft) 97,87 %
21.06.2017 06:16 19,9 C 25,0 C 81 % 1013,5 hPa 0,0 l/m 0,4 km/h (0 Bft) SW 214 2 min 0,000 mm 0,0 UV-I 116 W/m 16,5 C 19,9 C 1,6 km/h (1 Bft) 93,62 %
21.06.2017 06:18 20,1 C 25,0 C 80 % 1013,5 hPa 0,0 l/m 0,0 km/h (0 Bft) SW 214 2 min 0,000 mm 0,0 UV-I 115 W/m 16,5 C 20,1 C 1,6 km/h (1 Bft) 97,37 %
21.06.2017 06:20 20,3 C 25,0 C 79 % 1013,6 hPa 0,0 l/m 0,5 km/h (0 Bft) SW 214 2 min 0,000 mm 0,0 UV-I 98 W/m 16,5 C 20,3 C 1,6 km/h (1 Bft) 97,92 %
21.06.2017 06:22 20,4 C 25,0 C 78 % 1013,6 hPa 0,0 l/m 1,4 km/h (1 Bft) SW 214 0 min 0,000 mm 0,0 UV-I 96 W/m 16,4 C 20,4 C 3,2 km/h (1 Bft) 97,87 %
21.06.2017 06:24 20,7 C 25,0 C 78 % 1013,6 hPa 0,0 l/m 1,2 km/h (1 Bft) SW 214 2 min 0,000 mm 0,0 UV-I 120 W/m 16,7 C 20,7 C 3,2 km/h (1 Bft) 93,62 %
21.06.2017 06:26 20,8 C 25,0 C 77 % 1013,6 hPa 0,0 l/m 1,1 km/h (1 Bft) SW 214 2 min 0,000 mm 0,0 UV-I 130 W/m 16,6 C 20,8 C 3,2 km/h (1 Bft) 94,00 %
21.06.2017 06:28 20,9 C 25,0 C 77 % 1013,6 hPa 0,0 l/m 1,0 km/h (0 Bft) SW 214 2 min 0,000 mm 0,0 UV-I 117 W/m 16,7 C 20,9 C 3,2 km/h (1 Bft) 95,74 %
21.06.2017 06:30 20,9 C 25,0 C 77 % 1013,6 hPa 0,0 l/m 1,0 km/h (0 Bft) SW 214 2 min 0,000 mm 0,0 UV-I 141 W/m 16,7 C 20,9 C 3,2 km/h (1 Bft) 96,00 %
21.06.2017 06:32 21,1 C 25,0 C 77 % 1013,6 hPa 0,0 l/m 0,8 km/h (0 Bft) SW 214 2 min 0,000 mm 0,0 UV-I 168 W/m 16,9 C 21,1 C 1,6 km/h (1 Bft) 100,00 %
21.06.2017 06:34 21,2 C 25,0 C 76 % 1013,5 hPa 0,0 l/m 0,9 km/h (0 Bft) SW 214 2 min 0,000 mm 0,0 UV-I 171 W/m 16,8 C 21,2 C 1,6 km/h (1 Bft) 95,74 %
21.06.2017 06:36 21,2 C 25,0 C 76 % 1013,6 hPa 0,0 l/m 0,9 km/h (0 Bft) SW 214 2 min 0,000 mm 0,0 UV-I 174 W/m 16,8 C 21,2 C 3,2 km/h (1 Bft) 93,62 %
21.06.2017 06:38 21,3 C 25,0 C 76 % 1013,6 hPa 0,0 l/m 0,0 km/h (0 Bft) SW 214 2 min 0,000 mm 0,0 UV-I 176 W/m 16,9 C 21,3 C 0,0 km/h (0 Bft) 97,87 %
21.06.2017 06:40 21,3 C 25,0 C 76 % 1013,6 hPa 0,0 l/m 1,5 km/h (1 Bft) SW 214 2 min 0,000 mm 0,0 UV-I 176 W/m 16,9 C 21,3 C 3,2 km/h (1 Bft) 93,62 %
21.06.2017 06:42 21,4 C 25,0 C 75 % 1013,7 hPa 0,0 l/m 1,7 km/h (1 Bft) SW 214 2 min 0,000 mm 0,0 UV-I 173 W/m 16,8 C 21,4 C 3,2 km/h (1 Bft) 97,37 %
21.06.2017 06:44 21,4 C 25,0 C 75 % 1013,7 hPa 0,0 l/m 2,4 km/h (1 Bft) SW 214 2 min 0,000 mm 0,0 UV-I 170 W/m 16,8 C 21,4 C 4,8 km/h (1 Bft) 92,00 %
21.06.2017 06:46 21,5 C 25,0 C 76 % 1013,7 hPa 0,0 l/m 2,2 km/h (1 Bft) SW 214 2 min 0,000 mm 0,0 UV-I 168 W/m 17,1 C 21,5 C 3,2 km/h (1 Bft) 95,74 %
21.06.2017 06:48 21,6 C 25,0 C 76 % 1013,7 hPa 0,0 l/m 2,0 km/h (1 Bft) SW 214 2 min 0,000 mm 0,0 UV-I 171 W/m 17,2 C 21,6 C 3,2 km/h (1 Bft) 98,00 %
21.06.2017 06:50 21,6 C 25,0 C 75 % 1013,7 hPa 0,0 l/m 2,8 km/h (1 Bft) SW 214 2 min 0,000 mm 0,0 UV-I 173 W/m 17,0 C 21,6 C 4,8 km/h (1 Bft) 95,74 %
21.06.2017 06:52 21,7 C 25,0 C 75 % 1013,7 hPa 0,0 l/m 2,0 km/h (1 Bft) SW 215 2 min 0,000 mm 0,0 UV-I 178 W/m 17,1 C 21,7 C 4,8 km/h (1 Bft) 93,62 %
21.06.2017 06:54 21,7 C 25,0 C 74 % 1013,7 hPa 0,0 l/m 4,0 km/h (1 Bft) SW 215 2 min 0,000 mm 0,0 UV-I 183 W/m 16,9 C 21,7 C 6,4 km/h (2 Bft) 95,74 %
21.06.2017 06:56 21,8 C 25,0 C 75 % 1013,7 hPa 0,0 l/m 1,9 km/h (1 Bft) W 274 2 min 0,000 mm 0,0 UV-I 189 W/m 17,2 C 21,8 C 6,4 km/h (2 Bft) 95,74 %
21.06.2017 06:58 21,8 C 25,0 C 74 % 1013,7 hPa 0,0 l/m 3,7 km/h (1 Bft) W-SW 255 2 min 0,000 mm 0,0 UV-I 192 W/m 17,0 C 21,8 C 6,4 km/h (2 Bft) 96,00 %
21.06.2017 07:00 21,8 C 25,0 C 73 % 1013,7 hPa 0,0 l/m 2,5 km/h (1 Bft) W 261 2 min 0,077 mm 0,0 UV-I 196 W/m 16,7 C 21,8 C 4,8 km/h (1 Bft) 95,74 %
21.06.2017 07:02 21,8 C 25,0 C 73 % 1013,8 hPa 0,0 l/m 2,9 km/h (1 Bft) W 261 2 min 0,000 mm 0,0 UV-I 202 W/m 16,7 C 21,8 C 4,8 km/h (1 Bft) 95,74 %
21.06.2017 07:04 21,9 C 25,0 C 73 % 1013,7 hPa 0,0 l/m 3,0 km/h (1 Bft) W 261 2 min 0,000 mm 0,0 UV-I 208 W/m 16,8 C 21,9 C 4,8 km/h (1 Bft) 97,44 %
21.06.2017 07:06 21,9 C 25,0 C 73 % 1013,8 hPa 0,0 l/m 4,9 km/h (1 Bft) W 277 2 min 0,000 mm 0,0 UV-I 215 W/m 16,8 C 21,9 C 9,7 km/h (2 Bft) 93,62 %
21.06.2017 07:08 22,1 C 25,0 C 74 % 1013,8 hPa 0,0 l/m 4,2 km/h (1 Bft) W 270 2 min 0,000 mm 0,0 UV-I 222 W/m 17,2 C 22,1 C 6,4 km/h (2 Bft) 95,74 %
21.06.2017 07:10 22,1 C 25,0 C 72 % 1013,8 hPa 0,0 l/m 5,3 km/h (1 Bft) W-SW 239 2 min 0,000 mm 0,3 UV-I 228 W/m 16,8 C 22,1 C 9,7 km/h (2 Bft) 97,87 %
21.06.2017 07:12 22,2 C 25,0 C 72 % 1013,8 hPa 0,0 l/m 6,4 km/h (2 Bft) W-NW 295 2 min 0,000 mm 0,5 UV-I 235 W/m 16,9 C 22,2 C 11,3 km/h (2 Bft) 97,87 %
21.06.2017 07:14 22,2 C 25,0 C 72 % 1013,8 hPa 0,0 l/m 5,1 km/h (1 Bft) W 261 2 min 0,000 mm 0,5 UV-I 241 W/m 16,9 C 22,2 C 9,7 km/h (2 Bft) 100,00 %
21.06.2017 07:16 22,2 C 25,0 C 72 % 1013,8 hPa 0,0 l/m 5,0 km/h (1 Bft) W 262 2 min 0,000 mm 0,5 UV-I 244 W/m 16,9 C 22,2 C 9,7 km/h (2 Bft) 93,62 %
21.06.2017 07:18 22,2 C 25,0 C 71 % 1013,8 hPa 0,0 l/m 2,4 km/h (1 Bft) W-SW 250 2 min 0,000 mm 0,5 UV-I 250 W/m 16,7 C 22,2 C 6,4 km/h (2 Bft) 98,00 %
21.06.2017 07:20 22,3 C 25,0 C 71 % 1013,8 hPa 0,0 l/m 3,3 km/h (1 Bft) W-SW 257 2 min 0,000 mm 0,5 UV-I 255 W/m 16,8 C 22,3 C 6,4 km/h (2 Bft) 100,00 %
21.06.2017 07:22 22,3 C 25,0 C 71 % 1013,8 hPa 0,0 l/m 4,3 km/h (1 Bft) W 268 2 min 0,000 mm 0,6 UV-I 259 W/m 16,8 C 22,3 C 9,7 km/h (2 Bft) 97,87 %
21.06.2017 07:24 22,3 C 25,0 C 72 % 1013,9 hPa 0,0 l/m 3,6 km/h (1 Bft) W 267 2 min 0,000 mm 0,6 UV-I 265 W/m 17,0 C 22,3 C 11,3 km/h (2 Bft) 97,87 %
21.06.2017 07:26 22,3 C 25,0 C 72 % 1013,8 hPa 0,0 l/m 4,7 km/h (1 Bft) W-SW 250 2 min 0,000 mm 0,6 UV-I 271 W/m 17,0 C 22,3 C 6,4 km/h (2 Bft) 97,87 %
21.06.2017 07:28 22,4 C 25,0 C 72 % 1013,8 hPa 0,0 l/m 3,2 km/h (1 Bft) W-SW 244 2 min 0,000 mm 0,6 UV-I 278 W/m 17,1 C 22,4 C 4,8 km/h (1 Bft) 97,87 %
21.06.2017 07:30 22,3 C 25,0 C 72 % 1013,8 hPa 0,0 l/m 4,3 km/h (1 Bft) W-NW 282 2 min 0,000 mm 0,6 UV-I 286 W/m 17,0 C 22,3 C 6,4 km/h (2 Bft) 97,87 %
21.06.2017 07:32 22,4 C 25,0 C 71 % 1013,8 hPa 0,0 l/m 6,3 km/h (2 Bft) SW 234 2 min 0,000 mm 0,7 UV-I 292 W/m 16,9 C 22,4 C 11,3 km/h (2 Bft) 95,74 %
21.06.2017 07:34 22,4 C 25,0 C 71 % 1013,8 hPa 0,0 l/m 6,1 km/h (2 Bft) W 270 2 min 0,000 mm 0,7 UV-I 296 W/m 16,9 C 22,4 C 12,9 km/h (3 Bft) 97,87 %
21.06.2017 07:36 22,4 C 25,0 C 71 % 1013,7 hPa 0,0 l/m 4,7 km/h (1 Bft) W-SW 258 2 min 0,000 mm 0,7 UV-I 298 W/m 16,9 C 22,4 C 9,7 km/h (2 Bft) 100,00 %
21.06.2017 07:38 22,5 C 25,0 C 71 % 1013,8 hPa 0,0 l/m 8,8 km/h (2 Bft) SW 234 2 min 0,000 mm 0,7 UV-I 304 W/m 17,0 C 21,7 C 12,9 km/h (3 Bft) 97,87 %
21.06.2017 07:40 22,5 C 25,0 C 71 % 1013,8 hPa 0,0 l/m 8,0 km/h (2 Bft) W-SW 250 2 min 0,000 mm 0,8 UV-I 310 W/m 17,0 C 22,0 C 12,9 km/h (3 Bft) 100,00 %
21.06.2017 07:42 22,6 C 25,0 C 71 % 1013,7 hPa 0,0 l/m 5,8 km/h (2 Bft) W-SW 240 2 min 0,000 mm 0,8 UV-I 314 W/m 17,1 C 22,6 C 12,9 km/h (3 Bft) 97,92 %
21.06.2017 07:44 22,6 C 25,0 C 70 % 1013,7 hPa 0,0 l/m 4,6 km/h (1 Bft) W-SW 254 2 min 0,000 mm 0,8 UV-I 321 W/m 16,8 C 22,6 C 8,0 km/h (2 Bft) 97,83 %
21.06.2017 07:46 22,6 C 25,0 C 71 % 1013,7 hPa 0,0 l/m 6,0 km/h (2 Bft) W-SW 243 2 min 0,000 mm 0,8 UV-I 326 W/m 17,1 C 22,6 C 9,7 km/h (2 Bft) 97,92 %
21.06.2017 07:48 22,7 C 25,0 C 71 % 1013,7 hPa 0,0 l/m 3,8 km/h (1 Bft) W-SW 240 2 min 0,000 mm 0,8 UV-I 331 W/m 17,2 C 22,7 C 6,4 km/h (2 Bft) 97,87 %
21.06.2017 07:50 22,7 C 25,0 C 71 % 1013,8 hPa 0,0 l/m 3,6 km/h (1 Bft) W 259 2 min 0,000 mm 0,9 UV-I 338 W/m 17,2 C 22,7 C 6,4 km/h (2 Bft) 100,00 %
21.06.2017 07:52 22,8 C 25,0 C 71 % 1013,8 hPa 0,0 l/m 4,3 km/h (1 Bft) W 259 2 min 0,000 mm 0,9 UV-I 345 W/m 17,3 C 22,8 C 8,0 km/h (2 Bft) 97,87 %
21.06.2017 07:54 22,9 C 25,0 C 70 % 1013,7 hPa 0,0 l/m 3,3 km/h (1 Bft) W-SW 242 2 min 0,000 mm 0,9 UV-I 354 W/m 17,1 C 22,9 C 4,8 km/h (1 Bft) 95,74 %
21.06.2017 07:56 23,1 C 25,0 C 71 % 1013,8 hPa 0,0 l/m 1,4 km/h (1 Bft) W-SW 257 2 min 0,000 mm 1,0 UV-I 358 W/m 17,5 C 23,1 C 4,8 km/h (1 Bft) 100,00 %
21.06.2017 07:58 23,2 C 25,0 C 71 % 1013,7 hPa 0,0 l/m 1,9 km/h (1 Bft) W-SW 257 2 min 0,000 mm 1,0 UV-I 360 W/m 17,6 C 23,2 C 4,8 km/h (1 Bft) 100,00 %
21.06.2017 08:00 23,2 C 25,0 C 70 % 1013,8 hPa 0,0 l/m 3,1 km/h (1 Bft) W-SW 257 2 min 0,203 mm 1,0 UV-I 365 W/m 17,4 C 23,2 C 4,8 km/h (1 Bft) 97,87 %
21.06.2017 08:02 23,2 C 25,0 C 69 % 1013,8 hPa 0,0 l/m 2,4 km/h (1 Bft) W-SW 257 2 min 0,000 mm 1,0 UV-I 371 W/m 17,2 C 23,2 C 6,4 km/h (2 Bft) 100,00 %
21.06.2017 08:04 23,3 C 25,0 C 70 % 1013,8 hPa 0,0 l/m 1,5 km/h (1 Bft) W-SW 257 2 min 0,000 mm 1,1 UV-I 376 W/m 17,5 C 23,3 C 3,2 km/h (1 Bft) 97,87 %
21.06.2017 08:06 23,3 C 25,0 C 69 % 1013,9 hPa 0,0 l/m 2,4 km/h (1 Bft) W 260 2 min 0,000 mm 1,1 UV-I 384 W/m 17,3 C 23,3 C 6,4 km/h (2 Bft) 100,00 %
21.06.2017 08:08 23,3 C 25,0 C 69 % 1013,9 hPa 0,0 l/m 1,5 km/h (1 Bft) W 260 2 min 0,000 mm 1,1 UV-I 389 W/m 17,3 C 23,3 C 4,8 km/h (1 Bft) 97,87 %
21.06.2017 08:10 23,4 C 25,0 C 69 % 1013,9 hPa 0,0 l/m 1,4 km/h (1 Bft) W-SW 249 2 min 0,000 mm 1,2 UV-I 396 W/m 17,4 C 23,4 C 6,4 km/h (2 Bft) 97,87 %
21.06.2017 08:12 23,6 C 25,0 C 69 % 1013,9 hPa 0,0 l/m 1,5 km/h (1 Bft) W 274 2 min 0,000 mm 1,2 UV-I 397 W/m 17,6 C 23,6 C 9,7 km/h (2 Bft) 100,00 %
21.06.2017 08:14 23,6 C 25,0 C 67 % 1013,9 hPa 0,0 l/m 4,9 km/h (1 Bft) W 264 2 min 0,000 mm 1,2 UV-I 400 W/m 17,1 C 23,6 C 9,7 km/h (2 Bft) 97,87 %
21.06.2017 08:16 23,6 C 25,0 C 68 % 1013,9 hPa 0,0 l/m 3,1 km/h (1 Bft) W-SW 242 2 min 0,000 mm 1,2 UV-I 403 W/m 17,3 C 23,6 C 6,4 km/h (2 Bft) 100,00 %
21.06.2017 08:18 23,6 C 25,0 C 68 % 1013,9 hPa 0,0 l/m 5,0 km/h (1 Bft) W-SW 254 2 min 0,000 mm 1,3 UV-I 406 W/m 17,3 C 23,6 C 8,0 km/h (2 Bft) 100,00 %
21.06.2017 08:20 23,6 C 25,0 C 67 % 1013,9 hPa 0,0 l/m 1,9 km/h (1 Bft) W 267 2 min 0,000 mm 1,3 UV-I 410 W/m 17,1 C 23,6 C 4,8 km/h (1 Bft) 100,00 %
21.06.2017 08:22 23,6 C 25,0 C 67 % 1013,9 hPa 0,0 l/m 1,4 km/h (1 Bft) W 267 2 min 0,000 mm 1,3 UV-I 415 W/m 17,1 C 23,6 C 3,2 km/h (1 Bft) 97,92 %
21.06.2017 08:24 23,6 C 25,0 C 69 % 1013,9 hPa 0,0 l/m 2,7 km/h (1 Bft) W 267 2 min 0,000 mm 1,3 UV-I 422 W/m 17,6 C 23,6 C 4,8 km/h (1 Bft) 100,00 %
21.06.2017 08:26 23,7 C 25,0 C 67 % 1013,9 hPa 0,0 l/m 0,7 km/h (0 Bft) W 267 2 min 0,000 mm 1,4 UV-I 433 W/m 17,2 C 23,7 C 3,2 km/h (1 Bft) 97,92 %
21.06.2017 08:28 23,7 C 25,0 C 68 % 1014,0 hPa 0,0 l/m 1,4 km/h (1 Bft) W 275 2 min 0,000 mm 1,4 UV-I 440 W/m 17,4 C 23,7 C 4,8 km/h (1 Bft) 100,00 %
21.06.2017 08:30 23,7 C 25,0 C 67 % 1014,0 hPa 0,0 l/m 1,2 km/h (1 Bft) W 275 2 min 0,000 mm 1,5 UV-I 447 W/m 17,2 C 23,7 C 3,2 km/h (1 Bft) 97,14 %
21.06.2017 08:32 23,7 C 25,0 C 66 % 1014,0 hPa 0,0 l/m 1,8 km/h (1 Bft) W 267 2 min 0,000 mm 1,5 UV-I 450 W/m 17,0 C 23,7 C 3,2 km/h (1 Bft) 98,11 %
21.06.2017 08:34 23,8 C 25,0 C 67 % 1014,0 hPa 0,0 l/m 4,0 km/h (1 Bft) SW 229 2 min 0,000 mm 1,5 UV-I 451 W/m 17,3 C 23,8 C 8,0 km/h (2 Bft) 100,00 %
21.06.2017 08:36 24,1 C 25,0 C 67 % 1014,0 hPa 0,0 l/m 4,5 km/h (1 Bft) W-SW 258 2 min 0,000 mm 1,5 UV-I 456 W/m 17,6 C 24,1 C 8,0 km/h (2 Bft) 97,87 %
21.06.2017 08:38 24,2 C 25,0 C 66 % 1014,0 hPa 0,0 l/m 3,9 km/h (1 Bft) SW 221 2 min 0,000 mm 1,6 UV-I 459 W/m 17,4 C 24,2 C 6,4 km/h (2 Bft) 95,74 %
21.06.2017 08:40 24,3 C 25,0 C 65 % 1014,0 hPa 0,0 l/m 4,4 km/h (1 Bft) SW 229 2 min 0,000 mm 1,6 UV-I 467 W/m 17,3 C 24,3 C 6,4 km/h (2 Bft) 97,87 %
21.06.2017 08:42 24,3 C 25,0 C 65 % 1014,1 hPa 0,0 l/m 1,0 km/h (0 Bft) SW 229 2 min 0,000 mm 1,7 UV-I 473 W/m 17,3 C 24,3 C 3,2 km/h (1 Bft) 94,00 %
21.06.2017 08:44 24,4 C 25,0 C 65 % 1014,1 hPa 0,0 l/m 0,4 km/h (0 Bft) SW 229 2 min 0,000 mm 1,7 UV-I 478 W/m 17,4 C 24,4 C 3,2 km/h (1 Bft) 95,74 %
21.06.2017 08:46 24,6 C 25,0 C 66 % 1014,1 hPa 0,0 l/m 2,8 km/h (1 Bft) SW 229 2 min 0,000 mm 1,7 UV-I 486 W/m 17,8 C 24,6 C 4,8 km/h (1 Bft) 95,74 %
21.06.2017 08:48 24,6 C 25,0 C 65 % 1014,1 hPa 0,0 l/m 6,1 km/h (2 Bft) SW 219 2 min 0,000 mm 1,8 UV-I 488 W/m 17,6 C 24,6 C 9,7 km/h (2 Bft) 94,74 %
21.06.2017 08:50 24,6 C 25,0 C 64 % 1014,1 hPa 0,0 l/m 4,0 km/h (1 Bft) W-SW 246 2 min 0,000 mm 1,8 UV-I 491 W/m 17,3 C 24,6 C 8,0 km/h (2 Bft) 97,87 %
21.06.2017 08:52 24,4 C 25,0 C 65 % 1014,1 hPa 0,0 l/m 1,0 km/h (0 Bft) W-SW 246 2 min 0,000 mm 1,8 UV-I 495 W/m 17,4 C 24,4 C 4,8 km/h (1 Bft) 94,00 %
21.06.2017 08:54 24,3 C 25,0 C 66 % 1014,1 hPa 0,0 l/m 2,7 km/h (1 Bft) S-SW 192 2 min 0,000 mm 1,9 UV-I 502 W/m 17,5 C 24,3 C 6,4 km/h (2 Bft) 95,74 %
21.06.2017 08:56 24,4 C 25,0 C 65 % 1014,2 hPa 0,0 l/m 4,5 km/h (1 Bft) SW 232 2 min 0,000 mm 1,9 UV-I 506 W/m 17,4 C 24,4 C 6,4 km/h (2 Bft) 93,62 %
21.06.2017 08:58 24,4 C 25,0 C 65 % 1014,1 hPa 0,0 l/m 4,8 km/h (1 Bft) W-SW 244 2 min 0,000 mm 1,9 UV-I 511 W/m 17,4 C 24,4 C 8,0 km/h (2 Bft) 93,62 %
21.06.2017 09:00 24,4 C 25,0 C 64 % 1014,1 hPa 0,0 l/m 3,7 km/h (1 Bft) W-SW 244 2 min 0,279 mm 2,0 UV-I 516 W/m 17,1 C 24,4 C 6,4 km/h (2 Bft) 95,83 %
21.06.2017 09:02 24,4 C 25,0 C 63 % 1014,1 hPa 0,0 l/m 1,7 km/h (1 Bft) NW 311 2 min 0,000 mm 2,0 UV-I 520 W/m 16,9 C 24,4 C 4,8 km/h (1 Bft) 97,87 %
21.06.2017 09:04 24,5 C 25,0 C 64 % 1014,1 hPa 0,0 l/m 2,6 km/h (1 Bft) W-SW 244 2 min 0,000 mm 2,1 UV-I 526 W/m 17,2 C 24,5 C 6,4 km/h (2 Bft) 93,62 %
21.06.2017 09:06 24,5 C 25,0 C 63 % 1014,1 hPa 0,0 l/m 3,2 km/h (1 Bft) W-NW 300 2 min 0,000 mm 2,1 UV-I 531 W/m 17,0 C 24,5 C 6,4 km/h (2 Bft) 95,74 %
21.06.2017 09:08 24,5 C 25,0 C 64 % 1014,1 hPa 0,0 l/m 0,8 km/h (0 Bft) W-NW 300 2 min 0,000 mm 2,1 UV-I 537 W/m 17,2 C 24,5 C 4,8 km/h (1 Bft) 97,87 %
21.06.2017 09:10 24,7 C 25,0 C 65 % 1014,1 hPa 0,0 l/m 2,7 km/h (1 Bft) S-SW 200 2 min 0,000 mm 2,2 UV-I 537 W/m 17,7 C 24,7 C 6,4 km/h (2 Bft) 97,87 %
21.06.2017 09:12 24,9 C 25,0 C 64 % 1014,1 hPa 0,0 l/m 5,4 km/h (1 Bft) S-SW 196 2 min 0,000 mm 2,2 UV-I 540 W/m 17,6 C 24,9 C 8,0 km/h (2 Bft) 97,87 %
21.06.2017 09:14 25,1 C 25,0 C 63 % 1014,1 hPa 0,0 l/m 6,6 km/h (2 Bft) SW 215 2 min 0,000 mm 2,2 UV-I 544 W/m 17,5 C 25,1 C 11,3 km/h (2 Bft) 97,87 %
21.06.2017 09:16 25,2 C 25,0 C 63 % 1014,1 hPa 0,0 l/m 4,6 km/h (1 Bft) SW 228 2 min 0,000 mm 2,2 UV-I 550 W/m 17,6 C 25,2 C 8,0 km/h (2 Bft) 98,00 %
21.06.2017 09:18 25,3 C 25,0 C 63 % 1014,1 hPa 0,0 l/m 3,0 km/h (1 Bft) W-SW 244 2 min 0,000 mm 2,3 UV-I 551 W/m 17,7 C 25,3 C 6,4 km/h (2 Bft) 100,00 %
21.06.2017 09:20 25,3 C 25,0 C 61 % 1014,1 hPa 0,0 l/m 4,1 km/h (1 Bft) W-SW 253 2 min 0,000 mm 2,3 UV-I 557 W/m 17,2 C 25,3 C 6,4 km/h (2 Bft) 97,87 %
21.06.2017 09:22 25,3 C 25,0 C 62 % 1014,1 hPa 0,0 l/m 4,7 km/h (1 Bft) W-SW 238 2 min 0,000 mm 2,4 UV-I 567 W/m 17,5 C 25,3 C 8,0 km/h (2 Bft) 100,00 %
21.06.2017 09:24 25,2 C 25,0 C 62 % 1014,1 hPa 0,0 l/m 5,0 km/h (1 Bft) S-SW 208 2 min 0,000 mm 2,4 UV-I 574 W/m 17,4 C 25,2 C 8,0 km/h (2 Bft) 97,14 %
21.06.2017 09:26 25,2 C 25,0 C 62 % 1014,0 hPa 0,0 l/m 6,5 km/h (2 Bft) W-SW 255 2 min 0,000 mm 2,5 UV-I 579 W/m 17,4 C 25,2 C 9,7 km/h (2 Bft) 100,00 %
21.06.2017 09:28 25,2 C 25,0 C 61 % 1014,1 hPa 0,0 l/m 4,4 km/h (1 Bft) SW 225 2 min 0,000 mm 2,5 UV-I 584 W/m 17,1 C 25,2 C 8,0 km/h (2 Bft) 100,00 %
21.06.2017 09:30 25,2 C 25,0 C 61 % 1014,0 hPa 0,0 l/m 6,6 km/h (2 Bft) W-NW 294 2 min 0,000 mm 2,6 UV-I 589 W/m 17,1 C 25,2 C 12,9 km/h (3 Bft) 100,00 %
21.06.2017 09:32 25,2 C 25,0 C 63 % 1014,1 hPa 0,0 l/m 1,9 km/h (1 Bft) NW 308 2 min 0,000 mm 2,6 UV-I 593 W/m 17,6 C 25,2 C 3,2 km/h (1 Bft) 100,00 %
21.06.2017 09:34 25,2 C 25,0 C 63 % 1014,0 hPa 0,0 l/m 1,5 km/h (1 Bft) NW 309 2 min 0,000 mm 2,6 UV-I 598 W/m 17,6 C 25,2 C 3,2 km/h (1 Bft) 95,74 %
21.06.2017 09:36 25,1 C 25,0 C 61 % 1014,0 hPa 0,0 l/m 1,0 km/h (0 Bft) NW 310 2 min 0,000 mm 2,7 UV-I 609 W/m 17,0 C 25,1 C 3,2 km/h (1 Bft) 100,00 %
21.06.2017 09:38 25,2 C 25,0 C 62 % 1014,1 hPa 0,0 l/m 0,6 km/h (0 Bft) NW 310 2 min 0,000 mm 2,8 UV-I 618 W/m 17,4 C 25,2 C 1,6 km/h (1 Bft) 97,92 %
21.06.2017 09:40 25,2 C 25,0 C 62 % 1014,1 hPa 0,0 l/m 1,6 km/h (1 Bft) NW 304 2 min 0,000 mm 2,8 UV-I 622 W/m 17,4 C 25,2 C 4,8 km/h (1 Bft) 100,00 %
21.06.2017 09:42 25,2 C 25,0 C 61 % 1014,1 hPa 0,0 l/m 1,5 km/h (1 Bft) NW 311 2 min 0,000 mm 2,9 UV-I 623 W/m 17,1 C 25,2 C 3,2 km/h (1 Bft) 98,00 %
21.06.2017 09:44 25,3 C 25,0 C 63 % 1014,1 hPa 0,0 l/m 1,6 km/h (1 Bft) NW 322 2 min 0,000 mm 2,9 UV-I 631 W/m 17,7 C 25,3 C 4,8 km/h (1 Bft) 97,87 %
21.06.2017 09:46 25,4 C 25,0 C 61 % 1014,1 hPa 0,0 l/m 1,6 km/h (1 Bft) N-NW 329 2 min 0,000 mm 2,9 UV-I 634 W/m 17,3 C 25,4 C 4,8 km/h (1 Bft) 98,00 %
21.06.2017 09:48 25,5 C 25,0 C 62 % 1014,1 hPa 0,0 l/m 1,9 km/h (1 Bft) N-NW 336 2 min 0,000 mm 3,0 UV-I 642 W/m 17,7 C 25,5 C 6,4 km/h (2 Bft) 97,87 %
21.06.2017 09:50 25,7 C 25,0 C 61 % 1014,0 hPa 0,0 l/m 1,0 km/h (0 Bft) NW 311 2 min 0,000 mm 3,1 UV-I 644 W/m 17,6 C 25,7 C 4,8 km/h (1 Bft) 95,74 %
21.06.2017 09:52 25,7 C 25,0 C 60 % 1014,0 hPa 0,0 l/m 3,3 km/h (1 Bft) W 280 2 min 0,000 mm 3,1 UV-I 655 W/m 17,3 C 25,7 C 6,4 km/h (2 Bft) 100,00 %
21.06.2017 09:54 25,7 C 25,0 C 59 % 1014,0 hPa 0,0 l/m 4,0 km/h (1 Bft) SW 220 2 min 0,000 mm 3,2 UV-I 665 W/m 17,1 C 25,7 C 6,4 km/h (2 Bft) 97,87 %
21.06.2017 09:56 25,7 C 25,0 C 59 % 1014,0 hPa 0,0 l/m 5,2 km/h (1 Bft) W-SW 254 2 min 0,000 mm 3,2 UV-I 672 W/m 17,1 C 25,7 C 9,7 km/h (2 Bft) 97,87 %
21.06.2017 09:58 25,7 C 25,0 C 61 % 1014,0 hPa 0,0 l/m 3,5 km/h (1 Bft) W-NW 284 2 min 0,000 mm 3,3 UV-I 680 W/m 17,6 C 25,7 C 6,4 km/h (2 Bft) 97,87 %
21.06.2017 10:00 25,7 C 25,0 C 60 % 1014,0 hPa 0,0 l/m 2,6 km/h (1 Bft) W-NW 299 2 min 0,381 mm 3,3 UV-I 680 W/m 17,3 C 25,7 C 9,7 km/h (2 Bft) 100,00 %
21.06.2017 10:02 25,7 C 25,0 C 61 % 1014,0 hPa 0,0 l/m 1,6 km/h (1 Bft) W-NW 302 2 min 0,000 mm 3,4 UV-I 683 W/m 17,6 C 25,7 C 3,2 km/h (1 Bft) 95,74 %
21.06.2017 10:04 25,7 C 25,0 C 59 % 1014,0 hPa 0,0 l/m 1,1 km/h (1 Bft) W-NW 302 2 min 0,000 mm 3,4 UV-I 687 W/m 17,1 C 25,7 C 3,2 km/h (1 Bft) 93,62 %
21.06.2017 10:06 25,8 C 25,0 C 59 % 1014,0 hPa 0,0 l/m 3,2 km/h (1 Bft) W-SW 243 2 min 0,000 mm 3,5 UV-I 691 W/m 17,2 C 25,8 C 6,4 km/h (2 Bft) 95,74 %
21.06.2017 10:08 25,9 C 25,0 C 60 % 1014,0 hPa 0,0 l/m 2,5 km/h (1 Bft) W-SW 242 2 min 0,000 mm 3,5 UV-I 696 W/m 17,5 C 25,9 C 4,8 km/h (1 Bft) 98,00 %
21.06.2017 10:10 25,9 C 25,0 C 59 % 1013,9 hPa 0,0 l/m 3,9 km/h (1 Bft) W-SW 244 2 min 0,000 mm 3,6 UV-I 702 W/m 17,3 C 25,9 C 6,4 km/h (2 Bft) 95,74 %
21.06.2017 10:12 25,9 C 25,0 C 57 % 1014,0 hPa 0,0 l/m 2,8 km/h (1 Bft) S-SW 209 2 min 0,000 mm 3,6 UV-I 706 W/m 16,7 C 25,9 C 8,0 km/h (2 Bft) 96,00 %
21.06.2017 10:14 25,9 C 25,0 C 58 % 1014,0 hPa 0,0 l/m 2,0 km/h (1 Bft) S-SW 207 2 min 0,000 mm 3,7 UV-I 713 W/m 17,0 C 25,9 C 8,0 km/h (2 Bft) 97,87 %
21.06.2017 10:16 26,1 C 25,0 C 58 % 1013,9 hPa 0,0 l/m 7,5 km/h (2 Bft) S-SW 212 2 min 0,000 mm 3,7 UV-I 716 W/m 17,2 C 25,9 C 12,9 km/h (3 Bft) 93,62 %
21.06.2017 10:18 26,2 C 25,0 C 58 % 1013,9 hPa 0,0 l/m 6,2 km/h (2 Bft) W-SW 250 2 min 0,000 mm 3,8 UV-I 722 W/m 17,3 C 26,2 C 11,3 km/h (2 Bft) 95,74 %
21.06.2017 10:20 26,2 C 25,0 C 57 % 1013,9 hPa 0,0 l/m 8,8 km/h (2 Bft) W 280 2 min 0,000 mm 3,8 UV-I 730 W/m 17,0 C 25,7 C 11,3 km/h (2 Bft) 97,87 %
21.06.2017 10:22 26,1 C 25,0 C 55 % 1013,9 hPa 0,0 l/m 5,3 km/h (1 Bft) W-SW 248 2 min 0,000 mm 3,9 UV-I 737 W/m 16,3 C 26,1 C 9,7 km/h (2 Bft) 95,83 %
21.06.2017 10:24 26,1 C 25,0 C 56 % 1013,9 hPa 0,0 l/m 0,4 km/h (0 Bft) W-SW 248 2 min 0,000 mm 3,9 UV-I 738 W/m 16,6 C 26,1 C 3,2 km/h (1 Bft) 95,74 %
21.06.2017 10:26 26,2 C 25,0 C 56 % 1013,9 hPa 0,0 l/m 1,8 km/h (1 Bft) W-NW 287 2 min 0,000 mm 4,0 UV-I 745 W/m 16,7 C 26,2 C 4,8 km/h (1 Bft) 97,37 %
21.06.2017 10:28 26,3 C 25,0 C 57 % 1013,9 hPa 0,0 l/m 2,5 km/h (1 Bft) NW 306 2 min 0,000 mm 4,0 UV-I 757 W/m 17,1 C 26,3 C 6,4 km/h (2 Bft) 92,00 %
21.06.2017 10:30 26,3 C 25,0 C 56 % 1013,9 hPa 0,0 l/m 2,2 km/h (1 Bft) W 271 2 min 0,000 mm 3,9 UV-I 712 W/m 16,8 C 26,3 C 4,8 km/h (1 Bft) 95,74 %
21.06.2017 10:32 26,3 C 25,0 C 57 % 1013,9 hPa 0,0 l/m 5,5 km/h (1 Bft) W 259 2 min 0,000 mm 3,8 UV-I 641 W/m 17,1 C 26,3 C 9,7 km/h (2 Bft) 93,62 %
21.06.2017 10:34 26,1 C 25,0 C 56 % 1013,8 hPa 0,0 l/m 3,2 km/h (1 Bft) W-NW 287 2 min 0,000 mm 3,9 UV-I 734 W/m 16,6 C 26,1 C 4,8 km/h (1 Bft) 91,49 %
21.06.2017 10:36 26,0 C 25,0 C 58 % 1013,8 hPa 0,0 l/m 3,0 km/h (1 Bft) W 267 2 min 0,000 mm 3,9 UV-I 699 W/m 17,1 C 26,0 C 9,7 km/h (2 Bft) 91,67 %
21.06.2017 10:38 26,1 C 25,0 C 56 % 1013,8 hPa 0,0 l/m 3,3 km/h (1 Bft) W-NW 286 2 min 0,000 mm 4,0 UV-I 670 W/m 16,6 C 26,1 C 6,4 km/h (2 Bft) 93,62 %
21.06.2017 10:40 26,1 C 25,0 C 57 % 1013,8 hPa 0,0 l/m 3,4 km/h (1 Bft) W-NW 296 2 min 0,000 mm 3,7 UV-I 603 W/m 16,9 C 26,1 C 6,4 km/h (2 Bft) 94,00 %
21.06.2017 10:42 26,1 C 25,0 C 56 % 1013,7 hPa 0,0 l/m 4,4 km/h (1 Bft) N-NW 331 2 min 0,000 mm 4,0 UV-I 750 W/m 16,6 C 26,1 C 8,0 km/h (2 Bft) 92,11 %
21.06.2017 10:44 26,3 C 25,0 C 56 % 1013,7 hPa 0,0 l/m 3,3 km/h (1 Bft) N-NW 327 2 min 0,000 mm 4,2 UV-I 784 W/m 16,8 C 26,3 C 6,4 km/h (2 Bft) 91,49 %
21.06.2017 10:46 26,4 C 25,0 C 57 % 1013,7 hPa 0,0 l/m 4,2 km/h (1 Bft) W 271 2 min 0,000 mm 4,1 UV-I 688 W/m 17,2 C 26,4 C 9,7 km/h (2 Bft) 91,49 %
21.06.2017 10:48 26,5 C 25,0 C 56 % 1013,7 hPa 0,0 l/m 8,1 km/h (2 Bft) W 279 2 min 0,000 mm 3,8 UV-I 647 W/m 17,0 C 26,2 C 11,3 km/h (2 Bft) 95,74 %
21.06.2017 10:50 26,4 C 25,0 C 55 % 1013,7 hPa 0,0 l/m 5,4 km/h (1 Bft) NW 308 2 min 0,000 mm 4,1 UV-I 689 W/m 16,6 C 26,4 C 9,7 km/h (2 Bft) 93,62 %
21.06.2017 10:52 26,3 C 25,0 C 57 % 1013,7 hPa 0,0 l/m 2,9 km/h (1 Bft) W-NW 291 2 min 0,000 mm 4,1 UV-I 659 W/m 17,1 C 26,3 C 4,8 km/h (1 Bft) 93,62 %
21.06.2017 10:54 26,4 C 25,0 C 55 % 1013,7 hPa 0,0 l/m 2,9 km/h (1 Bft) W-NW 291 2 min 0,000 mm 4,2 UV-I 708 W/m 16,6 C 26,4 C 4,8 km/h (1 Bft) 93,75 %
21.06.2017 10:56 26,4 C 25,6 C 55 % 1013,7 hPa 0,0 l/m 5,2 km/h (1 Bft) SW 227 2 min 0,000 mm 4,4 UV-I 647 W/m 16,6 C 26,4 C 9,7 km/h (2 Bft) 91,49 %
21.06.2017 10:58 26,9 C 25,0 C 55 % 1013,7 hPa 0,0 l/m 7,9 km/h (2 Bft) S-SW 195 2 min 0,000 mm 4,7 UV-I 806 W/m 17,1 C 26,6 C 12,9 km/h (3 Bft) 96,00 %
21.06.2017 11:00 27,2 C 25,0 C 56 % 1013,7 hPa 0,0 l/m 4,3 km/h (1 Bft) S-SW 192 2 min 0,483 mm 4,7 UV-I 722 W/m 17,6 C 27,2 C 8,0 km/h (2 Bft) 93,62 %
21.06.2017 11:02 27,4 C 25,0 C 53 % 1013,7 hPa 0,0 l/m 6,6 km/h (2 Bft) S-SO 160 2 min 0,000 mm 4,8 UV-I 819 W/m 17,0 C 27,4 C 14,5 km/h (3 Bft) 93,62 %
21.06.2017 11:04 27,3 C 25,0 C 53 % 1013,7 hPa 0,0 l/m 5,0 km/h (1 Bft) S-SO 167 2 min 0,000 mm 4,9 UV-I 819 W/m 16,9 C 27,3 C 8,0 km/h (2 Bft) 93,62 %
21.06.2017 11:06 27,3 C 25,6 C 54 % 1013,7 hPa 0,0 l/m 4,2 km/h (1 Bft) S-SO 165 2 min 0,000 mm 4,9 UV-I 824 W/m 17,2 C 27,3 C 8,0 km/h (2 Bft) 95,74 %
21.06.2017 11:08 27,4 C 25,6 C 53 % 1013,7 hPa 0,0 l/m 5,1 km/h (1 Bft) S 180 2 min 0,000 mm 5,0 UV-I 837 W/m 17,0 C 27,4 C 8,0 km/h (2 Bft) 91,49 %
21.06.2017 11:10 27,3 C 25,6 C 53 % 1013,7 hPa 0,0 l/m 3,8 km/h (1 Bft) S-SO 165 2 min 0,000 mm 5,0 UV-I 838 W/m 16,9 C 27,3 C 8,0 km/h (2 Bft) 93,62 %
21.06.2017 11:12 27,4 C 25,6 C 54 % 1013,7 hPa 0,0 l/m 6,9 km/h (2 Bft) S-SW 198 2 min 0,000 mm 5,0 UV-I 813 W/m 17,3 C 27,3 C 11,3 km/h (2 Bft) 97,87 %
21.06.2017 11:14 27,6 C 25,6 C 53 % 1013,7 hPa 0,0 l/m 5,2 km/h (1 Bft) S-SO 168 2 min 0,000 mm 5,0 UV-I 818 W/m 17,1 C 27,6 C 11,3 km/h (2 Bft) 95,74 %
21.06.2017 11:16 27,7 C 25,6 C 51 % 1013,7 hPa 0,0 l/m 5,7 km/h (1 Bft) SW 223 2 min 0,000 mm 4,8 UV-I 825 W/m 16,6 C 27,7 C 12,9 km/h (3 Bft) 93,62 %
21.06.2017 11:18 27,5 C 25,6 C 52 % 1013,7 hPa 0,0 l/m 6,8 km/h (2 Bft) W 273 2 min 0,000 mm 3,8 UV-I 801 W/m 16,7 C 27,4 C 12,9 km/h (3 Bft) 98,00 %
21.06.2017 11:20 27,3 C 25,6 C 53 % 1013,7 hPa 0,0 l/m 6,8 km/h (2 Bft) S-SW 212 0 min 0,000 mm 3,5 UV-I 439 W/m 16,9 C 27,2 C 12,9 km/h (3 Bft) 93,62 %
21.06.2017 11:22 27,2 C 25,6 C 54 % 1013,7 hPa 0,0 l/m 2,9 km/h (1 Bft) W-NW 294 2 min 0,000 mm 4,2 UV-I 611 W/m 17,1 C 27,2 C 8,0 km/h (2 Bft) 94,74 %
21.06.2017 11:24 27,3 C 25,6 C 53 % 1013,7 hPa 0,0 l/m 3,8 km/h (1 Bft) N-NW 346 2 min 0,000 mm 4,1 UV-I 606 W/m 16,9 C 27,3 C 8,0 km/h (2 Bft) 95,74 %
21.06.2017 11:26 27,3 C 25,6 C 54 % 1013,7 hPa 0,0 l/m 4,2 km/h (1 Bft) W-NW 292 2 min 0,000 mm 4,5 UV-I 722 W/m 17,2 C 27,3 C 6,4 km/h (2 Bft) 94,00 %
21.06.2017 11:28 27,4 C 25,6 C 52 % 1013,7 hPa 0,0 l/m 3,2 km/h (1 Bft) W-SW 238 2 min 0,000 mm 4,8 UV-I 745 W/m 16,7 C 27,4 C 11,3 km/h (2 Bft) 97,87 %
21.06.2017 11:30 27,6 C 25,6 C 54 % 1013,7 hPa 0,0 l/m 7,6 km/h (2 Bft) W-NW 285 2 min 0,000 mm 5,0 UV-I 760 W/m 17,4 C 27,4 C 12,9 km/h (3 Bft) 95,74 %
21.06.2017 11:32 27,7 C 25,6 C 51 % 1013,7 hPa 0,0 l/m 7,2 km/h (2 Bft) W-SW 246 2 min 0,000 mm 5,4 UV-I 873 W/m 16,6 C 27,6 C 11,3 km/h (2 Bft) 95,74 %
21.06.2017 11:34 27,8 C 25,6 C 51 % 1013,7 hPa 0,0 l/m 4,6 km/h (1 Bft) W 270 2 min 0,000 mm 5,6 UV-I 906 W/m 16,7 C 27,8 C 11,3 km/h (2 Bft) 97,87 %
21.06.2017 11:36 27,7 C 25,6 C 52 % 1013,7 hPa 0,0 l/m 7,8 km/h (2 Bft) W-NW 293 2 min 0,000 mm 5,7 UV-I 926 W/m 16,9 C 27,5 C 16,1 km/h (3 Bft) 97,92 %
21.06.2017 11:38 27,6 C 25,6 C 51 % 1013,6 hPa 0,0 l/m 3,4 km/h (1 Bft) NO 42 2 min 0,000 mm 5,3 UV-I 844 W/m 16,5 C 27,6 C 11,3 km/h (2 Bft) 98,00 %
21.06.2017 11:40 27,7 C 25,6 C 52 % 1013,7 hPa 0,0 l/m 5,0 km/h (1 Bft) S-SW 198 2 min 0,000 mm 5,3 UV-I 846 W/m 16,9 C 27,7 C 12,9 km/h (3 Bft) 100,00 %
21.06.2017 11:42 27,9 C 25,6 C 53 % 1013,6 hPa 0,0 l/m 5,1 km/h (1 Bft) SW 222 2 min 0,000 mm 5,4 UV-I 882 W/m 17,4 C 27,9 C 12,9 km/h (3 Bft) 95,83 %
21.06.2017 11:44 28,1 C 25,6 C 51 % 1013,6 hPa 0,0 l/m 9,6 km/h (2 Bft) W-SW 242 2 min 0,000 mm 5,5 UV-I 890 W/m 17,0 C 27,6 C 14,5 km/h (3 Bft) 100,00 %
21.06.2017 11:46 28,2 C 25,6 C 49 % 1013,6 hPa 0,0 l/m 6,9 km/h (2 Bft) SW 223 2 min 0,000 mm 5,4 UV-I 874 W/m 16,5 C 28,1 C 14,5 km/h (3 Bft) 100,00 %
21.06.2017 11:48 28,1 C 25,6 C 50 % 1013,6 hPa 0,0 l/m 0,7 km/h (0 Bft) S-SO 163 2 min 0,000 mm 4,9 UV-I 752 W/m 16,7 C 28,1 C 3,2 km/h (1 Bft) 100,00 %
21.06.2017 11:50 28,1 C 25,6 C 52 % 1013,6 hPa 0,0 l/m 4,0 km/h (1 Bft) N-NO 15 2 min 0,000 mm 4,6 UV-I 662 W/m 17,3 C 28,1 C 6,4 km/h (2 Bft) 97,30 %
21.06.2017 11:52 28,2 C 25,6 C 51 % 1013,6 hPa 0,0 l/m 4,7 km/h (1 Bft) N-NO 26 2 min 0,000 mm 4,3 UV-I 617 W/m 17,1 C 28,2 C 8,0 km/h (2 Bft) 100,00 %
21.06.2017 11:54 28,3 C 25,6 C 52 % 1013,6 hPa 0,0 l/m 6,4 km/h (2 Bft) W-NW 301 2 min 0,000 mm 4,5 UV-I 656 W/m 17,5 C 28,3 C 11,3 km/h (2 Bft) 97,87 %
21.06.2017 11:56 28,4 C 25,6 C 51 % 1013,6 hPa 0,0 l/m 4,1 km/h (1 Bft) W-SW 252 2 min 0,000 mm 4,2 UV-I 612 W/m 17,3 C 28,4 C 12,9 km/h (3 Bft) 100,00 %
21.06.2017 11:58 28,3 C 25,6 C 51 % 1013,6 hPa 0,0 l/m 3,7 km/h (1 Bft) S-SW 196 2 min 0,000 mm 4,1 UV-I 584 W/m 17,2 C 28,3 C 8,0 km/h (2 Bft) 93,62 %
21.06.2017 12:00 28,3 C 25,6 C 50 % 1013,6 hPa 0,0 l/m 12,1 km/h (2 Bft) W-SW 254 2 min 0,533 mm 4,5 UV-I 651 W/m 16,9 C 27,6 C 19,3 km/h (3 Bft) 100,00 %
21.06.2017 12:02 28,3 C 25,6 C 50 % 1013,6 hPa 0,0 l/m 11,8 km/h (2 Bft) SW 231 2 min 0,000 mm 4,5 UV-I 637 W/m 16,9 C 27,6 C 17,7 km/h (3 Bft) 95,74 %
21.06.2017 12:04 28,2 C 25,6 C 49 % 1013,6 hPa 0,0 l/m 7,1 km/h (2 Bft) W-SW 252 2 min 0,000 mm 4,6 UV-I 683 W/m 16,5 C 28,1 C 14,5 km/h (3 Bft) 95,74 %
21.06.2017 12:06 28,2 C 25,6 C 49 % 1013,5 hPa 0,0 l/m 4,6 km/h (1 Bft) W 272 2 min 0,000 mm 4,8 UV-I 684 W/m 16,5 C 28,2 C 8,0 km/h (2 Bft) 97,87 %
21.06.2017 12:08 28,1 C 25,6 C 50 % 1013,5 hPa 0,0 l/m 4,4 km/h (1 Bft) W 268 2 min 0,000 mm 4,7 UV-I 652 W/m 16,7 C 28,1 C 12,9 km/h (3 Bft) 100,00 %
21.06.2017 12:10 28,1 C 25,6 C 52 % 1013,5 hPa 0,0 l/m 7,9 km/h (2 Bft) SW 233 2 min 0,000 mm 4,8 UV-I 688 W/m 17,3 C 27,9 C 12,9 km/h (3 Bft) 98,00 %
21.06.2017 12:12 28,2 C 25,6 C 52 % 1013,5 hPa 0,0 l/m 7,5 km/h (2 Bft) SW 234 2 min 0,000 mm 5,2 UV-I 764 W/m 17,4 C 28,0 C 11,3 km/h (2 Bft) 97,87 %
21.06.2017 12:14 28,4 C 25,6 C 52 % 1013,5 hPa 0,0 l/m 7,1 km/h (2 Bft) S-SW 207 2 min 0,000 mm 5,2 UV-I 769 W/m 17,6 C 28,3 C 9,7 km/h (2 Bft) 97,87 %
21.06.2017 12:16 28,3 C 25,6 C 51 % 1013,5 hPa 0,0 l/m 1,9 km/h (1 Bft) S-SW 200 2 min 0,000 mm 5,1 UV-I 733 W/m 17,2 C 28,3 C 6,4 km/h (2 Bft) 97,22 %
21.06.2017 12:18 28,4 C 25,6 C 53 % 1013,6 hPa 0,0 l/m 1,2 km/h (1 Bft) N-NW 331 2 min 0,000 mm 5,7 UV-I 861 W/m 17,9 C 28,4 C 3,2 km/h (1 Bft) 100,00 %
21.06.2017 12:20 28,4 C 25,6 C 49 % 1013,6 hPa 0,0 l/m 5,2 km/h (1 Bft) W 262 2 min 0,000 mm 5,9 UV-I 904 W/m 16,6 C 28,4 C 6,4 km/h (2 Bft) 96,00 %
21.06.2017 12:22 28,2 C 25,6 C 49 % 1013,5 hPa 0,0 l/m 4,2 km/h (1 Bft) W 280 2 min 0,000 mm 5,7 UV-I 841 W/m 16,5 C 28,2 C 9,7 km/h (2 Bft) 96,00 %
21.06.2017 12:24 28,3 C 25,6 C 49 % 1013,5 hPa 0,0 l/m 9,1 km/h (2 Bft) SW 234 2 min 0,000 mm 5,8 UV-I 869 W/m 16,5 C 27,9 C 12,9 km/h (3 Bft) 95,12 %
21.06.2017 12:26 28,6 C 25,6 C 50 % 1013,4 hPa 0,0 l/m 7,8 km/h (2 Bft) W-SW 244 2 min 0,000 mm 6,0 UV-I 900 W/m 17,1 C 28,4 C 16,1 km/h (3 Bft) 95,92 %
21.06.2017 12:28 28,9 C 25,6 C 48 % 1013,4 hPa 0,0 l/m 11,2 km/h (2 Bft) W 275 2 min 0,000 mm 5,9 UV-I 889 W/m 16,8 C 28,4 C 20,9 km/h (4 Bft) 93,62 %
21.06.2017 12:30 29,0 C 25,6 C 48 % 1013,4 hPa 0,0 l/m 8,7 km/h (2 Bft) W 278 2 min 0,000 mm 6,0 UV-I 884 W/m 16,9 C 28,7 C 14,5 km/h (3 Bft) 95,74 %
21.06.2017 12:32 28,9 C 25,6 C 48 % 1013,5 hPa 0,0 l/m 9,7 km/h (2 Bft) S-SW 212 2 min 0,000 mm 6,0 UV-I 864 W/m 16,8 C 28,5 C 14,5 km/h (3 Bft) 95,74 %
21.06.2017 12:34 28,8 C 25,6 C 49 % 1013,5 hPa 0,0 l/m 5,8 km/h (2 Bft) SW 223 2 min 0,000 mm 5,8 UV-I 862 W/m 17,0 C 28,8 C 11,3 km/h (2 Bft) 97,87 %
21.06.2017 12:36 29,1 C 25,6 C 48 % 1013,5 hPa 0,0 l/m 12,2 km/h (2 Bft) W-SW 254 2 min 0,000 mm 5,6 UV-I 793 W/m 16,9 C 28,5 C 17,7 km/h (3 Bft) 93,88 %
21.06.2017 12:38 29,0 C 25,6 C 47 % 1013,4 hPa 0,0 l/m 6,7 km/h (2 Bft) SW 215 2 min 0,000 mm 5,9 UV-I 845 W/m 16,5 C 29,0 C 11,3 km/h (2 Bft) 95,74 %
21.06.2017 12:40 29,2 C 25,6 C 48 % 1013,5 hPa 0,0 l/m 8,9 km/h (2 Bft) S-SW 196 2 min 0,000 mm 5,8 UV-I 800 W/m 17,0 C 28,9 C 12,9 km/h (3 Bft) 97,87 %
21.06.2017 12:42 29,3 C 25,6 C 48 % 1013,5 hPa 0,0 l/m 8,7 km/h (2 Bft) SW 230 2 min 0,000 mm 6,0 UV-I 888 W/m 17,1 C 29,0 C 16,1 km/h (3 Bft) 89,36 %
21.06.2017 12:44 29,4 C 26,1 C 47 % 1013,5 hPa 0,0 l/m 10,9 km/h (2 Bft) SW 227 2 min 0,000 mm 6,1 UV-I 923 W/m 16,9 C 28,9 C 16,1 km/h (3 Bft) 97,14 %
21.06.2017 12:46 29,3 C 26,1 C 46 % 1013,5 hPa 0,0 l/m 5,6 km/h (1 Bft) W-SW 240 2 min 0,000 mm 5,9 UV-I 879 W/m 16,5 C 29,3 C 9,7 km/h (2 Bft) 96,00 %
21.06.2017 12:48 29,2 C 26,1 C 47 % 1013,4 hPa 0,0 l/m 4,0 km/h (1 Bft) S 182 2 min 0,000 mm 5,8 UV-I 864 W/m 16,7 C 29,2 C 12,9 km/h (3 Bft) 95,74 %
21.06.2017 12:50 29,3 C 26,1 C 47 % 1013,4 hPa 0,0 l/m 2,3 km/h (1 Bft) NW 324 2 min 0,000 mm 5,7 UV-I 831 W/m 16,8 C 29,3 C 8,0 km/h (2 Bft) 96,00 %
21.06.2017 12:52 29,3 C 26,1 C 45 % 1013,4 hPa 0,0 l/m 3,5 km/h (1 Bft) W-SW 254 2 min 0,000 mm 5,6 UV-I 810 W/m 16,1 C 29,3 C 8,0 km/h (2 Bft) 95,74 %
21.06.2017 12:54 29,4 C 26,1 C 46 % 1013,4 hPa 0,0 l/m 5,7 km/h (1 Bft) W-NW 298 2 min 0,000 mm 5,9 UV-I 860 W/m 16,5 C 29,4 C 12,9 km/h (3 Bft) 100,00 %
21.06.2017 12:56 29,5 C 26,1 C 45 % 1013,4 hPa 0,0 l/m 7,6 km/h (2 Bft) W-SW 242 2 min 0,000 mm 5,9 UV-I 897 W/m 16,3 C 29,4 C 14,5 km/h (3 Bft) 95,74 %
21.06.2017 12:58 29,6 C 26,1 C 44 % 1013,3 hPa 0,0 l/m 6,2 km/h (2 Bft) SW 216 2 min 0,000 mm 5,9 UV-I 880 W/m 16,0 C 29,6 C 11,3 km/h (2 Bft) 97,87 %
21.06.2017 13:00 29,4 C 26,1 C 44 % 1013,3 hPa 0,0 l/m 5,2 km/h (1 Bft) N 350 2 min 0,000 mm 5,6 UV-I 803 W/m 15,8 C 29,4 C 9,7 km/h (2 Bft) 98,00 %
21.06.2017 13:02 29,4 C 26,1 C 44 % 1013,3 hPa 0,0 l/m 3,2 km/h (1 Bft) W-NW 284 2 min 0,610 mm 5,4 UV-I 809 W/m 15,8 C 29,4 C 6,4 km/h (2 Bft) 97,87 %
21.06.2017 13:04 29,5 C 26,1 C 44 % 1013,2 hPa 0,0 l/m 6,9 km/h (2 Bft) W 275 2 min 0,000 mm 5,6 UV-I 779 W/m 15,9 C 29,4 C 11,3 km/h (2 Bft) 95,74 %
21.06.2017 13:06 29,4 C 26,1 C 45 % 1013,2 hPa 0,0 l/m 3,3 km/h (1 Bft) W 262 2 min 0,000 mm 6,1 UV-I 920 W/m 16,2 C 29,4 C 6,4 km/h (2 Bft) 97,14 %
21.06.2017 13:08 29,4 C 26,1 C 45 % 1013,1 hPa 0,0 l/m 7,4 km/h (2 Bft) W-SW 249 2 min 0,000 mm 5,6 UV-I 758 W/m 16,2 C 29,3 C 12,9 km/h (3 Bft) 98,00 %
21.06.2017 13:10 29,6 C 26,1 C 45 % 1013,1 hPa 0,0 l/m 6,5 km/h (2 Bft) SW 221 2 min 0,000 mm 6,3 UV-I 848 W/m 16,4 C 29,6 C 16,1 km/h (3 Bft) 97,87 %
21.06.2017 13:12 29,7 C 26,1 C 45 % 1013,0 hPa 0,0 l/m 10,8 km/h (2 Bft) SW 229 2 min 0,000 mm 5,0 UV-I 832 W/m 16,5 C 29,3 C 19,3 km/h (3 Bft) 100,00 %
21.06.2017 13:14 29,8 C 26,1 C 45 % 1013,0 hPa 0,0 l/m 9,3 km/h (2 Bft) S-SW 209 2 min 0,000 mm 4,8 UV-I 731 W/m 16,6 C 29,5 C 14,5 km/h (3 Bft) 100,00 %
21.06.2017 13:16 29,7 C 26,1 C 43 % 1013,0 hPa 0,0 l/m 8,5 km/h (2 Bft) W-NW 285 2 min 0,000 mm 5,5 UV-I 735 W/m 15,8 C 29,5 C 14,5 km/h (3 Bft) 94,29 %
21.06.2017 13:18 29,7 C 26,1 C 45 % 1013,0 hPa 0,0 l/m 8,0 km/h (2 Bft) W 267 2 min 0,000 mm 5,8 UV-I 844 W/m 16,5 C 29,5 C 14,5 km/h (3 Bft) 96,00 %
21.06.2017 13:20 29,8 C 26,1 C 44 % 1013,0 hPa 0,0 l/m 8,0 km/h (2 Bft) SW 222 2 min 0,000 mm 5,8 UV-I 863 W/m 16,2 C 29,6 C 12,9 km/h (3 Bft) 100,00 %
21.06.2017 13:22 30,1 C 26,1 C 43 % 1012,9 hPa 0,0 l/m 5,9 km/h (2 Bft) S-SW 192 2 min 0,000 mm 5,5 UV-I 845 W/m 16,1 C 30,1 C 14,5 km/h (3 Bft) 98,00 %
21.06.2017 13:24 30,3 C 26,1 C 43 % 1012,9 hPa 0,0 l/m 6,5 km/h (2 Bft) W-NW 282 2 min 0,000 mm 5,8 UV-I 843 W/m 16,3 C 30,3 C 11,3 km/h (2 Bft) 100,00 %
21.06.2017 13:26 30,2 C 26,1 C 42 % 1012,8 hPa 0,0 l/m 3,8 km/h (1 Bft) W-NW 300 2 min 0,000 mm 5,7 UV-I 828 W/m 15,8 C 30,2 C 12,9 km/h (3 Bft) 97,87 %
21.06.2017 13:28 30,1 C 26,1 C 41 % 1012,9 hPa 0,0 l/m 3,8 km/h (1 Bft) N-NW 339 2 min 0,000 mm 6,0 UV-I 928 W/m 15,4 C 30,1 C 8,0 km/h (2 Bft) 100,00 %
21.06.2017 13:30 30,1 C 26,1 C 42 % 1012,9 hPa 0,0 l/m 3,0 km/h (1 Bft) W-NW 284 2 min 0,000 mm 6,1 UV-I 953 W/m 15,7 C 30,1 C 11,3 km/h (2 Bft) 100,00 %
21.06.2017 13:32 30,1 C 26,1 C 43 % 1012,8 hPa 0,0 l/m 4,8 km/h (1 Bft) N-NW 328 2 min 0,000 mm 5,9 UV-I 947 W/m 16,1 C 30,1 C 11,3 km/h (2 Bft) 97,87 %
21.06.2017 13:34 30,0 C 26,1 C 44 % 1012,8 hPa 0,0 l/m 4,7 km/h (1 Bft) W-SW 250 2 min 0,000 mm 6,0 UV-I 971 W/m 16,4 C 30,0 C 12,9 km/h (3 Bft) 95,83 %
21.06.2017 13:36 30,1 C 26,1 C 42 % 1012,8 hPa 0,0 l/m 5,5 km/h (1 Bft) W-NW 289 2 min 0,000 mm 6,2 UV-I 988 W/m 15,7 C 30,1 C 11,3 km/h (2 Bft) 100,00 %
21.06.2017 13:38 29,9 C 26,1 C 44 % 1012,7 hPa 0,0 l/m 4,4 km/h (1 Bft) N 355 2 min 0,000 mm 6,2 UV-I 983 W/m 16,3 C 29,9 C 8,0 km/h (2 Bft) 97,87 %
21.06.2017 13:40 30,2 C 26,1 C 41 % 1012,8 hPa 0,0 l/m 8,8 km/h (2 Bft) W-SW 251 2 min 0,000 mm 5,5 UV-I 969 W/m 15,5 C 30,0 C 20,9 km/h (4 Bft) 97,87 %
21.06.2017 13:42 30,3 C 26,1 C 39 % 1012,8 hPa 0,0 l/m 8,4 km/h (2 Bft) S-SW 211 2 min 0,000 mm 6,1 UV-I 918 W/m 14,8 C 30,1 C 16,1 km/h (3 Bft) 100,00 %
21.06.2017 13:44 30,4 C 26,1 C 40 % 1012,7 hPa 0,0 l/m 9,7 km/h (2 Bft) SW 215 2 min 0,000 mm 6,2 UV-I 939 W/m 15,3 C 30,1 C 16,1 km/h (3 Bft) 97,87 %
21.06.2017 13:46 30,6 C 26,1 C 38 % 1012,7 hPa 0,0 l/m 11,8 km/h (2 Bft) W 265 2 min 0,000 mm 5,7 UV-I 900 W/m 14,6 C 30,2 C 17,7 km/h (3 Bft) 97,87 %
21.06.2017 13:48 30,5 C 26,1 C 36 % 1012,7 hPa 0,0 l/m 10,0 km/h (2 Bft) S-SW 212 2 min 0,000 mm 5,8 UV-I 879 W/m 13,7 C 30,2 C 16,1 km/h (3 Bft) 97,87 %
21.06.2017 13:50 30,4 C 26,1 C 37 % 1012,6 hPa 0,0 l/m 12,4 km/h (3 Bft) W-SW 252 2 min 0,000 mm 5,7 UV-I 842 W/m 14,0 C 30,0 C 19,3 km/h (3 Bft) 100,00 %
21.06.2017 13:52 30,5 C 26,1 C 37 % 1012,6 hPa 0,0 l/m 5,4 km/h (1 Bft) W 267 2 min 0,000 mm 5,7 UV-I 838 W/m 14,1 C 30,5 C 12,9 km/h (3 Bft) 96,00 %
21.06.2017 13:54 30,6 C 26,1 C 37 % 1012,5 hPa 0,0 l/m 6,7 km/h (2 Bft) O-NO 59 2 min 0,000 mm 5,9 UV-I 876 W/m 14,2 C 30,6 C 17,7 km/h (3 Bft) 100,00 %
21.06.2017 13:56 30,6 C 26,1 C 39 % 1012,5 hPa 0,0 l/m 6,2 km/h (2 Bft) W-SW 250 2 min 0,000 mm 6,1 UV-I 925 W/m 15,0 C 30,6 C 11,3 km/h (2 Bft) 97,87 %
21.06.2017 13:58 30,7 C 26,1 C 39 % 1012,5 hPa 0,0 l/m 4,4 km/h (1 Bft) W 274 2 min 0,000 mm 6,1 UV-I 935 W/m 15,1 C 30,7 C 11,3 km/h (2 Bft) 95,74 %
21.06.2017 14:00 30,7 C 26,1 C 38 % 1012,4 hPa 0,0 l/m 10,4 km/h (2 Bft) W-NW 290 2 min 0,635 mm 5,7 UV-I 941 W/m 14,7 C 30,4 C 16,1 km/h (3 Bft) 100,00 %
21.06.2017 14:02 30,6 C 26,1 C 38 % 1012,5 hPa 0,0 l/m 8,6 km/h (2 Bft) NW 305 2 min 0,000 mm 5,3 UV-I 814 W/m 14,6 C 30,4 C 16,1 km/h (3 Bft) 97,87 %
21.06.2017 14:04 30,6 C 26,1 C 39 % 1012,4 hPa 0,0 l/m 5,3 km/h (1 Bft) N-NW 344 2 min 0,000 mm 5,4 UV-I 871 W/m 15,0 C 30,6 C 12,9 km/h (3 Bft) 97,37 %
21.06.2017 14:06 30,5 C 26,1 C 36 % 1012,4 hPa 0,0 l/m 8,8 km/h (2 Bft) W-NW 284 2 min 0,000 mm 5,1 UV-I 889 W/m 13,7 C 30,3 C 16,1 km/h (3 Bft) 95,74 %
21.06.2017 14:08 30,4 C 26,1 C 36 % 1012,4 hPa 0,0 l/m 5,5 km/h (1 Bft) NW 306 2 min 0,000 mm 5,5 UV-I 845 W/m 13,6 C 30,4 C 11,3 km/h (2 Bft) 95,83 %
21.06.2017 14:10 30,4 C 26,1 C 37 % 1012,3 hPa 0,0 l/m 6,0 km/h (2 Bft) SW 234 2 min 0,000 mm 5,6 UV-I 870 W/m 14,0 C 30,4 C 12,9 km/h (3 Bft) 97,87 %
21.06.2017 14:12 30,8 C 26,1 C 34 % 1012,4 hPa 0,0 l/m 10,1 km/h (2 Bft) W-NW 286 2 min 0,000 mm 5,6 UV-I 855 W/m 13,1 C 30,6 C 17,7 km/h (3 Bft) 93,62 %
21.06.2017 14:14 30,8 C 26,1 C 36 % 1012,3 hPa 0,0 l/m 8,3 km/h (2 Bft) N-NO 19 2 min 0,000 mm 5,2 UV-I 830 W/m 14,0 C 30,7 C 14,5 km/h (3 Bft) 96,00 %
21.06.2017 14:16 30,8 C 26,1 C 37 % 1012,4 hPa 0,0 l/m 9,4 km/h (2 Bft) W-NW 286 2 min 0,000 mm 4,6 UV-I 838 W/m 14,4 C 30,6 C 19,3 km/h (3 Bft) 96,00 %
21.06.2017 14:18 30,7 C 26,1 C 38 % 1012,4 hPa 0,0 l/m 7,2 km/h (2 Bft) W 272 2 min 0,000 mm 4,9 UV-I 768 W/m 14,7 C 30,6 C 12,9 km/h (3 Bft) 95,74 %
21.06.2017 14:20 30,8 C 26,1 C 35 % 1012,4 hPa 0,0 l/m 8,9 km/h (2 Bft) W-NW 286 2 min 0,000 mm 4,9 UV-I 764 W/m 13,5 C 30,6 C 19,3 km/h (3 Bft) 95,74 %
21.06.2017 14:22 30,5 C 26,1 C 36 % 1012,4 hPa 0,0 l/m 3,4 km/h (1 Bft) W 279 2 min 0,000 mm 4,7 UV-I 686 W/m 13,7 C 30,5 C 6,4 km/h (2 Bft) 91,49 %
21.06.2017 14:24 30,4 C 26,1 C 37 % 1012,4 hPa 0,0 l/m 4,7 km/h (1 Bft) W-SW 249 2 min 0,000 mm 4,5 UV-I 609 W/m 14,0 C 30,4 C 6,4 km/h (2 Bft) 95,74 %
21.06.2017 14:26 30,5 C 26,1 C 36 % 1012,3 hPa 0,0 l/m 8,7 km/h (2 Bft) W 268 2 min 0,000 mm 4,5 UV-I 619 W/m 13,7 C 30,3 C 16,1 km/h (3 Bft) 93,62 %
21.06.2017 14:28 30,7 C 26,1 C 36 % 1012,3 hPa 0,0 l/m 7,2 km/h (2 Bft) SW 215 2 min 0,000 mm 4,8 UV-I 765 W/m 13,9 C 30,6 C 14,5 km/h (3 Bft) 87,23 %
21.06.2017 14:30 30,8 C 26,1 C 35 % 1012,2 hPa 0,0 l/m 13,1 km/h (3 Bft) W-SW 251 2 min 0,000 mm 4,9 UV-I 781 W/m 13,5 C 30,4 C 20,9 km/h (4 Bft) 93,62 %
21.06.2017 14:32 30,9 C 26,1 C 35 % 1012,2 hPa 0,0 l/m 10,3 km/h (2 Bft) W-SW 242 2 min 0,000 mm 4,9 UV-I 776 W/m 13,6 C 30,7 C 17,7 km/h (3 Bft) 94,74 %
21.06.2017 14:34 31,0 C 26,1 C 35 % 1012,2 hPa 0,0 l/m 10,1 km/h (2 Bft) W-NW 283 2 min 0,000 mm 5,0 UV-I 783 W/m 13,7 C 30,8 C 14,5 km/h (3 Bft) 92,00 %
21.06.2017 14:36 31,1 C 26,7 C 31 % 1012,2 hPa 0,0 l/m 13,7 km/h (3 Bft) W 273 2 min 0,000 mm 5,0 UV-I 791 W/m 11,9 C 30,7 C 20,9 km/h (4 Bft) 92,00 %
21.06.2017 14:38 31,1 C 26,7 C 31 % 1012,2 hPa 0,0 l/m 9,8 km/h (2 Bft) W-SW 248 2 min 0,000 mm 5,0 UV-I 781 W/m 11,9 C 30,9 C 16,1 km/h (3 Bft) 95,74 %
21.06.2017 14:40 31,0 C 26,7 C 29 % 1012,2 hPa 0,0 l/m 10,1 km/h (2 Bft) W-SW 246 2 min 0,000 mm 5,2 UV-I 816 W/m 10,9 C 30,8 C 16,1 km/h (3 Bft) 95,74 %
21.06.2017 14:42 31,2 C 26,7 C 31 % 1012,2 hPa 0,0 l/m 5,6 km/h (1 Bft) W-NW 285 2 min 0,000 mm 5,0 UV-I 787 W/m 12,0 C 31,2 C 14,5 km/h (3 Bft) 91,49 %
21.06.2017 14:44 31,2 C 26,7 C 32 % 1012,2 hPa 0,0 l/m 9,7 km/h (2 Bft) W-SW 252 2 min 0,000 mm 5,0 UV-I 795 W/m 12,5 C 31,0 C 14,5 km/h (3 Bft) 95,74 %
21.06.2017 14:46 31,0 C 26,7 C 32 % 1012,3 hPa 0,0 l/m 10,7 km/h (2 Bft) W-SW 252 2 min 0,000 mm 5,2 UV-I 838 W/m 12,3 C 30,8 C 16,1 km/h (3 Bft) 91,49 %
21.06.2017 14:48 30,8 C 26,7 C 32 % 1012,3 hPa 0,0 l/m 7,6 km/h (2 Bft) W 266 2 min 0,000 mm 5,3 UV-I 870 W/m 12,2 C 30,7 C 19,3 km/h (3 Bft) 94,87 %
21.06.2017 14:50 30,8 C 26,7 C 34 % 1012,3 hPa 0,0 l/m 7,3 km/h (2 Bft) W-SW 255 2 min 0,000 mm 5,3 UV-I 873 W/m 13,1 C 30,7 C 12,9 km/h (3 Bft) 94,00 %
21.06.2017 14:52 31,0 C 26,7 C 34 % 1012,4 hPa 0,0 l/m 9,1 km/h (2 Bft) W-SW 257 2 min 0,000 mm 5,1 UV-I 864 W/m 13,3 C 30,8 C 14,5 km/h (3 Bft) 91,49 %
21.06.2017 14:54 31,2 C 26,7 C 34 % 1012,4 hPa 0,0 l/m 10,4 km/h (2 Bft) W-SW 250 2 min 0,000 mm 5,0 UV-I 828 W/m 13,4 C 31,0 C 17,7 km/h (3 Bft) 97,87 %
21.06.2017 14:56 31,2 C 26,7 C 34 % 1012,6 hPa 0,0 l/m 8,7 km/h (2 Bft) W 267 2 min 0,000 mm 4,9 UV-I 868 W/m 13,4 C 31,1 C 14,5 km/h (3 Bft) 98,00 %
21.06.2017 14:58 31,1 C 26,7 C 36 % 1012,6 hPa 0,0 l/m 5,5 km/h (1 Bft) W-NW 300 2 min 0,000 mm 4,3 UV-I 874 W/m 14,2 C 31,1 C 11,3 km/h (2 Bft) 100,00 %
21.06.2017 15:00 31,1 C 26,7 C 33 % 1012,6 hPa 0,0 l/m 4,5 km/h (1 Bft) NW 322 2 min 0,609 mm 4,4 UV-I 768 W/m 12,9 C 31,1 C 8,0 km/h (2 Bft) 97,87 %
21.06.2017 15:03 30,9 C 26,7 C 34 % 1012,6 hPa 0,0 l/m 5,7 km/h (1 Bft) N-NW 346 3 min 0,000 mm 3,7 UV-I 693 W/m 13,2 C 30,9 C 14,5 km/h (3 Bft) 97,14 %
21.06.2017 15:04 30,9 C 26,7 C 34 % 1012,6 hPa 0,0 l/m 2,8 km/h (1 Bft) NW 309 1 min 0,000 mm 4,0 UV-I 629 W/m 13,2 C 30,9 C 4,8 km/h (1 Bft) 95,83 %
21.06.2017 15:06 30,8 C 26,7 C 34 % 1012,6 hPa 0,0 l/m 5,4 km/h (1 Bft) W-NW 298 2 min 0,000 mm 4,3 UV-I 664 W/m 13,1 C 30,8 C 11,3 km/h (2 Bft) 97,87 %
21.06.2017 15:08 30,8 C 26,7 C 33 % 1012,6 hPa 0,0 l/m 3,5 km/h (1 Bft) W-NW 290 2 min 0,000 mm 4,4 UV-I 730 W/m 12,6 C 30,8 C 6,4 km/h (2 Bft) 100,00 %
21.06.2017 15:10 30,9 C 26,7 C 35 % 1012,5 hPa 0,0 l/m 4,2 km/h (1 Bft) W-SW 246 2 min 0,000 mm 4,5 UV-I 760 W/m 13,6 C 30,9 C 8,0 km/h (2 Bft) 94,74 %
21.06.2017 15:12 31,0 C 26,7 C 35 % 1012,5 hPa 0,0 l/m 16,0 km/h (3 Bft) S-SW 213 2 min 0,000 mm 4,4 UV-I 742 W/m 13,7 C 30,5 C 22,5 km/h (4 Bft) 100,00 %
21.06.2017 15:14 31,0 C 26,7 C 34 % 1012,4 hPa 0,0 l/m 9,9 km/h (2 Bft) W 276 2 min 0,000 mm 4,9 UV-I 833 W/m 13,3 C 30,8 C 24,1 km/h (4 Bft) 97,87 %
21.06.2017 15:16 31,1 C 26,7 C 36 % 1012,3 hPa 0,0 l/m 8,6 km/h (2 Bft) W-SW 254 2 min 0,000 mm 5,0 UV-I 897 W/m 14,2 C 31,0 C 20,9 km/h (4 Bft) 100,00 %
21.06.2017 15:18 31,3 C 26,7 C 35 % 1012,3 hPa 0,0 l/m 12,7 km/h (3 Bft) SW 215 2 min 0,000 mm 5,0 UV-I 873 W/m 14,0 C 31,0 C 20,9 km/h (4 Bft) 98,08 %
21.06.2017 15:20 31,4 C 26,7 C 35 % 1012,3 hPa 0,0 l/m 10,9 km/h (2 Bft) W-SW 258 2 min 0,000 mm 4,8 UV-I 850 W/m 14,1 C 31,2 C 20,9 km/h (4 Bft) 97,56 %
21.06.2017 15:22 31,5 C 26,7 C 34 % 1012,2 hPa 0,0 l/m 9,1 km/h (2 Bft) W-SW 243 2 min 0,000 mm 4,8 UV-I 833 W/m 13,7 C 31,4 C 16,1 km/h (3 Bft) 98,00 %
21.06.2017 15:24 31,6 C 26,7 C 35 % 1012,2 hPa 0,0 l/m 9,7 km/h (2 Bft) W 275 2 min 0,000 mm 4,8 UV-I 838 W/m 14,2 C 31,5 C 14,5 km/h (3 Bft) 100,00 %
21.06.2017 15:26 31,7 C 26,7 C 33 % 1012,2 hPa 0,0 l/m 11,5 km/h (2 Bft) W-NW 286 2 min 0,000 mm 4,7 UV-I 826 W/m 13,4 C 31,5 C 16,1 km/h (3 Bft) 97,87 %
21.06.2017 15:28 31,6 C 26,7 C 34 % 1012,3 hPa 0,0 l/m 5,4 km/h (1 Bft) O 84 2 min 0,000 mm 4,6 UV-I 777 W/m 13,8 C 31,6 C 12,9 km/h (3 Bft) 100,00 %
21.06.2017 15:30 31,8 C 26,7 C 35 % 1012,4 hPa 0,0 l/m 2,7 km/h (1 Bft) NW 324 2 min 0,000 mm 4,4 UV-I 745 W/m 14,4 C 31,8 C 9,7 km/h (2 Bft) 93,75 %
21.06.2017 15:32 31,9 C 26,7 C 33 % 1012,3 hPa 0,0 l/m 6,3 km/h (2 Bft) SW 232 2 min 0,000 mm 4,5 UV-I 795 W/m 13,6 C 31,9 C 9,7 km/h (2 Bft) 100,00 %
21.06.2017 15:34 31,9 C 26,7 C 34 % 1012,3 hPa 0,0 l/m 6,1 km/h (2 Bft) W-SW 246 2 min 0,000 mm 4,3 UV-I 727 W/m 14,1 C 31,9 C 12,9 km/h (3 Bft) 95,74 %
21.06.2017 15:36 32,0 C 26,7 C 32 % 1012,3 hPa 0,0 l/m 6,9 km/h (2 Bft) W 263 2 min 0,000 mm 4,4 UV-I 775 W/m 13,2 C 32,0 C 16,1 km/h (3 Bft) 97,87 %
21.06.2017 15:38 31,9 C 26,7 C 32 % 1012,4 hPa 0,0 l/m 6,8 km/h (2 Bft) W-NW 296 2 min 0,000 mm 4,2 UV-I 770 W/m 13,1 C 31,9 C 14,5 km/h (3 Bft) 100,00 %
21.06.2017 15:40 31,9 C 26,7 C 33 % 1012,4 hPa 0,0 l/m 8,0 km/h (2 Bft) W 279 2 min 0,000 mm 4,2 UV-I 768 W/m 13,6 C 31,8 C 16,1 km/h (3 Bft) 97,87 %
21.06.2017 15:42 31,9 C 26,7 C 34 % 1012,3 hPa 0,0 l/m 4,0 km/h (1 Bft) N 11 2 min 0,000 mm 4,2 UV-I 751 W/m 14,1 C 31,9 C 14,5 km/h (3 Bft) 97,37 %
21.06.2017 15:44 31,8 C 26,7 C 34 % 1012,3 hPa 0,0 l/m 4,6 km/h (1 Bft) N-NO 23 2 min 0,000 mm 4,2 UV-I 779 W/m 14,0 C 31,8 C 14,5 km/h (3 Bft) 97,87 %
21.06.2017 15:46 31,8 C 26,7 C 34 % 1012,2 hPa 0,0 l/m 6,4 km/h (2 Bft) W-NW 290 2 min 0,000 mm 4,1 UV-I 796 W/m 14,0 C 31,8 C 12,9 km/h (3 Bft) 98,00 %
21.06.2017 15:48 31,6 C 26,7 C 32 % 1012,2 hPa 0,0 l/m 9,0 km/h (2 Bft) NW 311 2 min 0,000 mm 4,0 UV-I 764 W/m 12,9 C 31,5 C 19,3 km/h (3 Bft) 97,67 %
21.06.2017 15:50 31,6 C 26,7 C 35 % 1012,1 hPa 0,0 l/m 9,0 km/h (2 Bft) N-NW 348 2 min 0,000 mm 4,0 UV-I 758 W/m 14,2 C 31,5 C 17,7 km/h (3 Bft) 97,87 %
21.06.2017 15:52 31,6 C 26,7 C 33 % 1012,1 hPa 0,0 l/m 11,1 km/h (2 Bft) W-SW 254 2 min 0,000 mm 4,1 UV-I 794 W/m 13,3 C 31,4 C 16,1 km/h (3 Bft) 100,00 %
21.06.2017 15:54 31,8 C 26,7 C 34 % 1012,1 hPa 0,0 l/m 9,2 km/h (2 Bft) W-SW 240 2 min 0,000 mm 3,8 UV-I 768 W/m 14,0 C 31,7 C 14,5 km/h (3 Bft) 95,74 %
21.06.2017 15:56 31,8 C 26,7 C 33 % 1012,0 hPa 0,0 l/m 11,7 km/h (2 Bft) W 262 2 min 0,000 mm 3,6 UV-I 689 W/m 13,5 C 31,6 C 20,9 km/h (4 Bft) 100,00 %
21.06.2017 15:58 31,7 C 26,7 C 33 % 1012,0 hPa 0,0 l/m 11,3 km/h (2 Bft) W-SW 248 2 min 0,000 mm 3,8 UV-I 689 W/m 13,4 C 31,5 C 17,7 km/h (3 Bft) 98,11 %
21.06.2017 16:00 31,7 C 26,7 C 33 % 1012,0 hPa 0,0 l/m 10,3 km/h (2 Bft) W-SW 257 2 min 0,000 mm 3,8 UV-I 763 W/m 13,4 C 31,6 C 17,7 km/h (3 Bft) 97,87 %
21.06.2017 16:02 31,5 C 26,7 C 33 % 1012,0 hPa 0,0 l/m 7,2 km/h (2 Bft) NW 315 2 min 0,610 mm 3,5 UV-I 658 W/m 13,2 C 31,5 C 12,9 km/h (3 Bft) 100,00 %
21.06.2017 16:04 31,4 C 26,7 C 33 % 1012,0 hPa 0,0 l/m 4,2 km/h (1 Bft) S-SW 206 2 min 0,000 mm 3,6 UV-I 696 W/m 13,2 C 31,4 C 8,0 km/h (2 Bft) 100,00 %
21.06.2017 16:06 31,6 C 26,7 C 33 % 1012,0 hPa 0,0 l/m 11,8 km/h (2 Bft) SW 234 2 min 0,000 mm 3,7 UV-I 750 W/m 13,3 C 31,4 C 20,9 km/h (4 Bft) 100,00 %
21.06.2017 16:08 31,8 C 26,7 C 33 % 1011,9 hPa 0,0 l/m 11,6 km/h (2 Bft) W 262 2 min 0,000 mm 3,7 UV-I 774 W/m 13,5 C 31,6 C 16,1 km/h (3 Bft) 97,87 %
21.06.2017 16:10 31,9 C 26,7 C 34 % 1011,9 hPa 0,0 l/m 11,3 km/h (2 Bft) W-SW 246 2 min 0,000 mm 3,7 UV-I 752 W/m 14,1 C 31,8 C 24,1 km/h (4 Bft) 100,00 %
21.06.2017 16:12 32,0 C 26,7 C 32 % 1011,9 hPa 0,0 l/m 17,5 km/h (3 Bft) SW 229 2 min 0,000 mm 3,5 UV-I 706 W/m 13,2 C 31,7 C 25,7 km/h (4 Bft) 96,00 %
21.06.2017 16:14 31,8 C 26,7 C 32 % 1011,9 hPa 0,0 l/m 9,5 km/h (2 Bft) W 262 2 min 0,000 mm 3,2 UV-I 641 W/m 13,0 C 31,7 C 16,1 km/h (3 Bft) 98,00 %
21.06.2017 16:16 31,7 C 26,7 C 33 % 1011,9 hPa 0,0 l/m 8,6 km/h (2 Bft) W-SW 257 2 min 0,000 mm 2,9 UV-I 644 W/m 13,4 C 31,6 C 16,1 km/h (3 Bft) 97,87 %
21.06.2017 16:18 31,7 C 26,7 C 32 % 1011,9 hPa 0,0 l/m 12,9 km/h (3 Bft) SW 226 2 min 0,000 mm 3,0 UV-I 737 W/m 12,9 C 31,5 C 17,7 km/h (3 Bft) 95,74 %
21.06.2017 16:20 31,8 C 26,7 C 33 % 1012,0 hPa 0,0 l/m 9,5 km/h (2 Bft) W 265 2 min 0,000 mm 3,4 UV-I 728 W/m 13,5 C 31,7 C 16,1 km/h (3 Bft) 91,49 %
21.06.2017 16:22 31,8 C 26,7 C 32 % 1012,0 hPa 0,0 l/m 11,4 km/h (2 Bft) W-SW 250 2 min 0,000 mm 3,4 UV-I 744 W/m 13,0 C 31,6 C 16,1 km/h (3 Bft) 95,74 %
21.06.2017 16:24 31,7 C 26,7 C 33 % 1011,9 hPa 0,0 l/m 14,0 km/h (3 Bft) W-SW 248 2 min 0,000 mm 3,3 UV-I 740 W/m 13,4 C 31,4 C 19,3 km/h (3 Bft) 96,00 %
21.06.2017 16:26 31,7 C 26,7 C 33 % 1012,0 hPa 0,0 l/m 9,2 km/h (2 Bft) W 281 2 min 0,000 mm 3,3 UV-I 704 W/m 13,4 C 31,6 C 14,5 km/h (3 Bft) 95,74 %
21.06.2017 16:28 31,7 C 26,7 C 34 % 1011,9 hPa 0,0 l/m 8,5 km/h (2 Bft) W 266 2 min 0,000 mm 3,1 UV-I 647 W/m 13,9 C 31,6 C 17,7 km/h (3 Bft) 94,74 %
21.06.2017 16:30 31,8 C 26,7 C 34 % 1011,9 hPa 0,0 l/m 8,1 km/h (2 Bft) W-SW 240 2 min 0,000 mm 2,9 UV-I 638 W/m 14,0 C 31,7 C 14,5 km/h (3 Bft) 97,87 %
21.06.2017 16:32 31,6 C 26,7 C 32 % 1011,9 hPa 0,0 l/m 8,7 km/h (2 Bft) SW 222 2 min 0,000 mm 2,3 UV-I 521 W/m 12,9 C 31,5 C 16,1 km/h (3 Bft) 93,62 %
21.06.2017 16:34 31,4 C 26,7 C 33 % 1011,9 hPa 0,0 l/m 8,5 km/h (2 Bft) W-SW 240 0 min 0,000 mm 2,1 UV-I 286 W/m 13,2 C 31,3 C 14,5 km/h (3 Bft) 96,00 %
21.06.2017 16:36 31,2 C 26,7 C 33 % 1011,8 hPa 0,0 l/m 7,3 km/h (2 Bft) N-NW 335 0 min 0,000 mm 2,2 UV-I 312 W/m 13,0 C 31,1 C 14,5 km/h (3 Bft) 95,74 %
21.06.2017 16:38 31,0 C 26,7 C 35 % 1011,8 hPa 0,0 l/m 3,7 km/h (1 Bft) W-NW 290 2 min 0,000 mm 2,3 UV-I 432 W/m 13,7 C 31,0 C 11,3 km/h (2 Bft) 97,87 %
21.06.2017 16:40 30,8 C 26,7 C 39 % 1011,8 hPa 0,0 l/m 2,9 km/h (1 Bft) N-NW 344 2 min 0,000 mm 2,5 UV-I 523 W/m 15,2 C 30,8 C 6,4 km/h (2 Bft) 95,74 %
21.06.2017 16:42 30,8 C 26,7 C 37 % 1011,8 hPa 0,0 l/m 4,8 km/h (1 Bft) N-NW 335 2 min 0,000 mm 2,4 UV-I 505 W/m 14,4 C 30,8 C 9,7 km/h (2 Bft) 92,00 %
21.06.2017 16:44 30,7 C 26,7 C 35 % 1011,8 hPa 0,0 l/m 5,6 km/h (1 Bft) N-NW 338 0 min 0,000 mm 2,1 UV-I 332 W/m 13,5 C 30,7 C 9,7 km/h (2 Bft) 94,87 %
21.06.2017 16:46 30,6 C 26,7 C 36 % 1011,7 hPa 0,0 l/m 4,2 km/h (1 Bft) NW 323 2 min 0,000 mm 2,1 UV-I 432 W/m 13,8 C 30,6 C 12,9 km/h (3 Bft) 96,00 %
21.06.2017 16:48 30,7 C 26,7 C 36 % 1011,7 hPa 0,0 l/m 4,4 km/h (1 Bft) NW 310 2 min 0,000 mm 2,2 UV-I 538 W/m 13,9 C 30,7 C 11,3 km/h (2 Bft) 93,88 %
21.06.2017 16:50 30,6 C 26,7 C 38 % 1011,7 hPa 0,0 l/m 4,5 km/h (1 Bft) N-NO 20 2 min 0,000 mm 2,0 UV-I 397 W/m 14,6 C 30,6 C 9,7 km/h (2 Bft) 97,92 %
21.06.2017 16:52 30,4 C 26,7 C 38 % 1011,7 hPa 0,0 l/m 3,1 km/h (1 Bft) NW 318 2 min 0,000 mm 2,1 UV-I 395 W/m 14,5 C 30,4 C 6,4 km/h (2 Bft) 100,00 %
21.06.2017 16:54 30,5 C 26,7 C 38 % 1011,6 hPa 0,0 l/m 2,1 km/h (1 Bft) NO 40 2 min 0,000 mm 2,2 UV-I 481 W/m 14,5 C 30,5 C 4,8 km/h (1 Bft) 93,62 %
21.06.2017 16:56 30,6 C 26,7 C 39 % 1011,6 hPa 0,0 l/m 3,1 km/h (1 Bft) N-NW 333 2 min 0,000 mm 2,1 UV-I 411 W/m 15,0 C 30,6 C 6,4 km/h (2 Bft) 97,87 %
21.06.2017 16:58 30,5 C 26,7 C 39 % 1011,6 hPa 0,0 l/m 4,6 km/h (1 Bft) N-NW 329 2 min 0,000 mm 2,1 UV-I 456 W/m 15,0 C 30,5 C 8,0 km/h (2 Bft) 97,56 %
21.06.2017 17:00 30,5 C 26,7 C 40 % 1011,7 hPa 0,0 l/m 2,0 km/h (1 Bft) NW 324 2 min 0,000 mm 2,2 UV-I 558 W/m 15,3 C 30,5 C 4,8 km/h (1 Bft) 97,87 %
21.06.2017 17:02 30,7 C 27,2 C 40 % 1011,7 hPa 0,0 l/m 2,5 km/h (1 Bft) N-NW 342 2 min 0,457 mm 2,3 UV-I 572 W/m 15,5 C 30,7 C 11,3 km/h (2 Bft) 98,00 %
21.06.2017 17:04 30,8 C 27,2 C 37 % 1011,7 hPa 0,0 l/m 2,7 km/h (1 Bft) N-NO 17 2 min 0,000 mm 2,3 UV-I 610 W/m 14,4 C 30,8 C 8,0 km/h (2 Bft) 93,62 %
21.06.2017 17:06 30,9 C 27,2 C 38 % 1011,7 hPa 0,0 l/m 6,6 km/h (2 Bft) W-NW 284 2 min 0,000 mm 2,3 UV-I 580 W/m 14,9 C 30,9 C 16,1 km/h (3 Bft) 95,74 %
21.06.2017 17:08 30,9 C 27,2 C 37 % 1011,8 hPa 0,0 l/m 4,7 km/h (1 Bft) N-NW 341 2 min 0,000 mm 2,2 UV-I 559 W/m 14,5 C 30,9 C 11,3 km/h (2 Bft) 98,00 %
21.06.2017 17:10 30,8 C 27,2 C 37 % 1011,7 hPa 0,0 l/m 5,1 km/h (1 Bft) W-NW 298 2 min 0,000 mm 2,2 UV-I 553 W/m 14,4 C 30,8 C 11,3 km/h (2 Bft) 94,74 %
21.06.2017 17:12 30,8 C 27,2 C 38 % 1011,8 hPa 0,0 l/m 6,1 km/h (2 Bft) N-NW 327 2 min 0,000 mm 2,2 UV-I 561 W/m 14,8 C 30,8 C 14,5 km/h (3 Bft) 97,87 %
21.06.2017 17:14 30,7 C 27,2 C 37 % 1011,7 hPa 0,0 l/m 6,5 km/h (2 Bft) NW 309 2 min 0,000 mm 2,2 UV-I 565 W/m 14,3 C 30,7 C 14,5 km/h (3 Bft) 93,62 %
21.06.2017 17:16 30,7 C 27,2 C 37 % 1011,8 hPa 0,0 l/m 3,6 km/h (1 Bft) NW 316 2 min 0,000 mm 2,1 UV-I 563 W/m 14,3 C 30,7 C 11,3 km/h (2 Bft) 95,74 %
21.06.2017 17:18 30,7 C 27,2 C 40 % 1011,8 hPa 0,0 l/m 4,5 km/h (1 Bft) W-NW 299 2 min 0,000 mm 2,1 UV-I 552 W/m 15,5 C 30,7 C 12,9 km/h (3 Bft) 95,74 %
21.06.2017 17:20 30,9 C 27,2 C 39 % 1011,8 hPa 0,0 l/m 4,4 km/h (1 Bft) N-NW 333 2 min 0,000 mm 2,0 UV-I 516 W/m 15,3 C 30,9 C 8,0 km/h (2 Bft) 91,49 %
21.06.2017 17:22 30,8 C 27,2 C 39 % 1011,8 hPa 0,0 l/m 3,6 km/h (1 Bft) N-NW 347 2 min 0,000 mm 1,9 UV-I 449 W/m 15,2 C 30,8 C 6,4 km/h (2 Bft) 97,87 %
21.06.2017 17:24 30,8 C 27,2 C 39 % 1011,8 hPa 0,0 l/m 3,4 km/h (1 Bft) N-NW 332 2 min 0,000 mm 1,8 UV-I 473 W/m 15,2 C 30,8 C 6,4 km/h (2 Bft) 89,36 %
21.06.2017 17:26 30,7 C 27,2 C 39 % 1011,7 hPa 0,0 l/m 4,3 km/h (1 Bft) N-NO 19 2 min 0,000 mm 1,9 UV-I 518 W/m 15,1 C 30,7 C 11,3 km/h (2 Bft) 91,67 %
21.06.2017 17:28 30,8 C 27,2 C 39 % 1011,7 hPa 0,0 l/m 6,5 km/h (2 Bft) NO 42 2 min 0,000 mm 1,9 UV-I 530 W/m 15,2 C 30,8 C 14,5 km/h (3 Bft) 97,87 %
21.06.2017 17:30 30,8 C 27,2 C 39 % 1011,6 hPa 0,0 l/m 4,8 km/h (1 Bft) N-NO 17 2 min 0,000 mm 1,8 UV-I 526 W/m 15,2 C 30,8 C 9,7 km/h (2 Bft) 95,74 %
21.06.2017 17:32 30,8 C 27,2 C 40 % 1011,6 hPa 0,0 l/m 5,1 km/h (1 Bft) N-NO 32 2 min 0,000 mm 1,8 UV-I 505 W/m 15,6 C 30,8 C 9,7 km/h (2 Bft) 98,00 %
21.06.2017 17:34 30,8 C 27,2 C 40 % 1011,5 hPa 0,0 l/m 12,5 km/h (3 Bft) O 86 2 min 0,000 mm 1,7 UV-I 503 W/m 15,6 C 30,4 C 16,1 km/h (3 Bft) 93,62 %
21.06.2017 17:36 30,9 C 27,2 C 40 % 1011,4 hPa 0,0 l/m 10,1 km/h (2 Bft) N-NO 33 2 min 0,000 mm 1,7 UV-I 530 W/m 15,7 C 30,7 C 17,7 km/h (3 Bft) 95,74 %
21.06.2017 17:39 30,8 C 27,2 C 40 % 1011,3 hPa 0,0 l/m 12,8 km/h (3 Bft) N-NO 17 3 min 0,000 mm 1,7 UV-I 535 W/m 15,6 C 30,4 C 19,3 km/h (3 Bft) 95,71 %
21.06.2017 17:40 30,9 C 27,2 C 41 % 1011,3 hPa 0,0 l/m 18,3 km/h (3 Bft) N 5 1 min 0,000 mm 1,7 UV-I 541 W/m 16,1 C 30,3 C 22,5 km/h (4 Bft) 95,83 %
21.06.2017 17:42 30,8 C 27,2 C 44 % 1011,3 hPa 0,0 l/m 9,7 km/h (2 Bft) NO 53 2 min 0,000 mm 1,7 UV-I 543 W/m 17,1 C 30,6 C 17,7 km/h (3 Bft) 98,00 %
21.06.2017 17:44 30,8 C 27,2 C 42 % 1011,3 hPa 0,0 l/m 8,7 km/h (2 Bft) NO 53 2 min 0,000 mm 1,7 UV-I 546 W/m 16,4 C 30,6 C 14,5 km/h (3 Bft) 93,62 %
21.06.2017 17:46 30,7 C 27,2 C 41 % 1011,3 hPa 0,0 l/m 7,2 km/h (2 Bft) N-NO 22 2 min 0,000 mm 1,6 UV-I 544 W/m 15,9 C 30,6 C 9,7 km/h (2 Bft) 95,74 %
21.06.2017 17:48 30,8 C 27,2 C 42 % 1011,2 hPa 0,0 l/m 12,7 km/h (3 Bft) O-NO 65 2 min 0,000 mm 1,6 UV-I 537 W/m 16,4 C 30,4 C 19,3 km/h (3 Bft) 97,14 %
21.06.2017 17:50 30,8 C 27,2 C 42 % 1011,2 hPa 0,0 l/m 8,9 km/h (2 Bft) N-NO 24 2 min 0,000 mm 1,6 UV-I 538 W/m 16,4 C 30,6 C 16,1 km/h (3 Bft) 93,88 %
21.06.2017 17:52 30,8 C 27,2 C 43 % 1011,3 hPa 0,0 l/m 13,6 km/h (3 Bft) O-NO 59 2 min 0,000 mm 1,6 UV-I 535 W/m 16,7 C 30,4 C 19,3 km/h (3 Bft) 100,00 %
21.06.2017 17:54 30,7 C 27,2 C 42 % 1011,3 hPa 0,0 l/m 11,6 km/h (2 Bft) NO 44 2 min 0,000 mm 1,5 UV-I 531 W/m 16,3 C 30,4 C 17,7 km/h (3 Bft) 91,49 %
21.06.2017 17:56 30,7 C 27,2 C 42 % 1011,3 hPa 0,0 l/m 10,4 km/h (2 Bft) NO 38 2 min 0,000 mm 1,5 UV-I 517 W/m 16,3 C 30,4 C 14,5 km/h (3 Bft) 92,00 %
21.06.2017 17:58 30,6 C 27,2 C 42 % 1011,3 hPa 0,0 l/m 10,7 km/h (2 Bft) NO 39 2 min 0,000 mm 1,5 UV-I 500 W/m 16,2 C 30,3 C 16,1 km/h (3 Bft) 100,00 %
21.06.2017 18:00 30,7 C 27,2 C 43 % 1011,3 hPa 0,0 l/m 12,2 km/h (2 Bft) NO 44 2 min 0,457 mm 1,4 UV-I 484 W/m 16,7 C 30,3 C 17,7 km/h (3 Bft) 100,00 %
21.06.2017 18:02 30,6 C 27,2 C 41 % 1011,3 hPa 0,0 l/m 11,8 km/h (2 Bft) NO 51 2 min 0,000 mm 1,4 UV-I 468 W/m 15,8 C 30,2 C 19,3 km/h (3 Bft) 100,00 %
21.06.2017 18:04 30,5 C 27,2 C 43 % 1011,3 hPa 0,0 l/m 13,2 km/h (3 Bft) NO 45 2 min 0,000 mm 1,3 UV-I 452 W/m 16,5 C 30,1 C 19,3 km/h (3 Bft) 97,87 %
21.06.2017 18:06 30,4 C 27,2 C 43 % 1011,3 hPa 0,0 l/m 13,8 km/h (3 Bft) N-NO 12 2 min 0,000 mm 1,3 UV-I 439 W/m 16,4 C 29,9 C 22,5 km/h (4 Bft) 95,74 %
21.06.2017 18:08 30,2 C 27,2 C 43 % 1011,3 hPa 0,0 l/m 15,3 km/h (3 Bft) N-NO 12 2 min 0,000 mm 1,2 UV-I 428 W/m 16,2 C 29,6 C 20,9 km/h (4 Bft) 97,44 %
21.06.2017 18:10 30,0 C 27,2 C 44 % 1011,4 hPa 0,0 l/m 12,6 km/h (3 Bft) NO 52 2 min 0,000 mm 1,2 UV-I 420 W/m 16,4 C 29,5 C 17,7 km/h (3 Bft) 94,00 %
21.06.2017 18:12 29,9 C 27,2 C 42 % 1011,4 hPa 0,0 l/m 13,1 km/h (3 Bft) O-NO 57 2 min 0,000 mm 1,1 UV-I 413 W/m 15,6 C 29,4 C 20,9 km/h (4 Bft) 100,00 %
21.06.2017 18:14 29,9 C 27,2 C 42 % 1011,4 hPa 0,0 l/m 16,5 km/h (3 Bft) O-NO 65 2 min 0,000 mm 1,1 UV-I 410 W/m 15,6 C 29,2 C 20,9 km/h (4 Bft) 96,00 %
21.06.2017 18:16 29,8 C 27,2 C 42 % 1011,4 hPa 0,0 l/m 16,1 km/h (3 Bft) O-NO 63 2 min 0,000 mm 1,1 UV-I 408 W/m 15,5 C 29,1 C 22,5 km/h (4 Bft) 100,00 %
21.06.2017 18:18 29,7 C 27,2 C 43 % 1011,4 hPa 0,0 l/m 14,6 km/h (3 Bft) O-NO 57 2 min 0,000 mm 1,0 UV-I 409 W/m 15,8 C 29,0 C 19,3 km/h (3 Bft) 94,00 %
21.06.2017 18:20 29,7 C 27,2 C 42 % 1011,4 hPa 0,0 l/m 15,4 km/h (3 Bft) O-NO 76 2 min 0,000 mm 1,0 UV-I 411 W/m 15,4 C 29,0 C 20,9 km/h (4 Bft) 97,87 %
21.06.2017 18:22 29,6 C 27,2 C 42 % 1011,4 hPa 0,0 l/m 13,7 km/h (3 Bft) NO 45 2 min 0,000 mm 1,0 UV-I 412 W/m 15,3 C 29,0 C 20,9 km/h (4 Bft) 97,87 %
21.06.2017 18:24 29,6 C 27,2 C 43 % 1011,4 hPa 0,0 l/m 10,1 km/h (2 Bft) N-NO 32 2 min 0,000 mm 0,9 UV-I 411 W/m 15,7 C 29,2 C 16,1 km/h (3 Bft) 98,00 %
21.06.2017 18:26 29,6 C 27,2 C 44 % 1011,4 hPa 0,0 l/m 14,9 km/h (3 Bft) NO 53 2 min 0,000 mm 0,9 UV-I 407 W/m 16,0 C 28,9 C 22,5 km/h (4 Bft) 95,74 %
21.06.2017 18:28 29,6 C 27,2 C 43 % 1011,4 hPa 0,0 l/m 16,6 km/h (3 Bft) O-NO 74 2 min 0,000 mm 0,9 UV-I 405 W/m 15,7 C 28,8 C 24,1 km/h (4 Bft) 96,00 %
21.06.2017 18:30 29,5 C 27,2 C 43 % 1011,4 hPa 0,0 l/m 14,0 km/h (3 Bft) O-NO 59 2 min 0,000 mm 0,9 UV-I 402 W/m 15,6 C 28,8 C 20,9 km/h (4 Bft) 97,37 %
21.06.2017 18:32 29,5 C 27,2 C 44 % 1011,3 hPa 0,0 l/m 13,5 km/h (3 Bft) NO 46 2 min 0,000 mm 0,9 UV-I 395 W/m 15,9 C 28,9 C 19,3 km/h (3 Bft) 92,00 %
21.06.2017 18:34 29,4 C 27,2 C 45 % 1011,3 hPa 0,0 l/m 13,9 km/h (3 Bft) NO 45 2 min 0,000 mm 0,9 UV-I 384 W/m 16,2 C 28,7 C 20,9 km/h (4 Bft) 98,00 %
21.06.2017 18:36 29,4 C 27,2 C 44 % 1011,3 hPa 0,0 l/m 16,9 km/h (3 Bft) NO 48 2 min 0,000 mm 0,8 UV-I 344 W/m 15,8 C 28,5 C 20,9 km/h (4 Bft) 100,00 %
21.06.2017 18:38 29,3 C 27,2 C 45 % 1011,3 hPa 0,0 l/m 10,1 km/h (2 Bft) O-NO 67 2 min 0,000 mm 0,8 UV-I 302 W/m 16,1 C 28,9 C 19,3 km/h (3 Bft) 97,87 %
21.06.2017 18:40 29,2 C 27,2 C 45 % 1011,3 hPa 0,0 l/m 11,0 km/h (2 Bft) NO 54 2 min 0,000 mm 0,8 UV-I 316 W/m 16,0 C 28,7 C 16,1 km/h (3 Bft) 100,00 %
21.06.2017 18:42 29,1 C 27,2 C 45 % 1011,3 hPa 0,0 l/m 16,4 km/h (3 Bft) NO 51 2 min 0,000 mm 0,7 UV-I 276 W/m 15,9 C 28,2 C 22,5 km/h (4 Bft) 100,00 %
21.06.2017 18:44 29,0 C 27,2 C 45 % 1011,3 hPa 0,0 l/m 12,3 km/h (3 Bft) O-NO 65 2 min 0,000 mm 0,7 UV-I 267 W/m 15,8 C 28,4 C 16,1 km/h (3 Bft) 90,00 %
21.06.2017 18:46 28,8 C 27,2 C 45 % 1011,2 hPa 0,0 l/m 14,6 km/h (3 Bft) O-NO 64 2 min 0,000 mm 0,7 UV-I 281 W/m 15,7 C 27,9 C 20,9 km/h (4 Bft) 92,00 %
21.06.2017 18:48 28,8 C 27,2 C 45 % 1011,2 hPa 0,0 l/m 13,1 km/h (3 Bft) O-NO 65 2 min 0,000 mm 0,7 UV-I 289 W/m 15,7 C 28,1 C 19,3 km/h (3 Bft) 94,87 %
21.06.2017 18:50 28,8 C 27,2 C 46 % 1011,3 hPa 0,0 l/m 12,4 km/h (3 Bft) NO 40 2 min 0,000 mm 0,6 UV-I 273 W/m 16,0 C 28,1 C 17,7 km/h (3 Bft) 100,00 %
21.06.2017 18:52 28,7 C 27,2 C 45 % 1011,3 hPa 0,0 l/m 12,4 km/h (3 Bft) NO 55 2 min 0,000 mm 0,6 UV-I 283 W/m 15,6 C 28,0 C 17,7 km/h (3 Bft) 97,87 %
21.06.2017 18:54 28,7 C 27,2 C 44 % 1011,3 hPa 0,0 l/m 12,2 km/h (2 Bft) O-NO 65 2 min 0,000 mm 0,6 UV-I 261 W/m 15,2 C 28,0 C 17,7 km/h (3 Bft) 96,00 %
21.06.2017 18:56 28,7 C 27,2 C 45 % 1011,3 hPa 0,0 l/m 11,2 km/h (2 Bft) O-NO 63 2 min 0,000 mm 0,6 UV-I 252 W/m 15,6 C 28,1 C 19,3 km/h (3 Bft) 100,00 %
21.06.2017 18:58 28,6 C 27,2 C 45 % 1011,3 hPa 0,0 l/m 12,5 km/h (3 Bft) O-NO 63 2 min 0,000 mm 0,5 UV-I 249 W/m 15,5 C 27,9 C 16,1 km/h (3 Bft) 97,87 %
21.06.2017 19:00 28,6 C 27,2 C 45 % 1011,3 hPa 0,0 l/m 9,5 km/h (2 Bft) NO 45 2 min 0,381 mm 0,5 UV-I 265 W/m 15,5 C 28,2 C 14,5 km/h (3 Bft) 97,87 %
21.06.2017 19:02 28,6 C 27,2 C 45 % 1011,4 hPa 0,0 l/m 9,8 km/h (2 Bft) O-NO 61 2 min 0,000 mm 0,5 UV-I 287 W/m 15,5 C 28,2 C 16,1 km/h (3 Bft) 97,37 %
21.06.2017 19:04 28,7 C 27,2 C 44 % 1011,4 hPa 0,0 l/m 9,1 km/h (2 Bft) O-NO 61 2 min 0,000 mm 0,5 UV-I 283 W/m 15,2 C 28,4 C 14,5 km/h (3 Bft) 98,00 %
21.06.2017 19:06 28,7 C 27,2 C 43 % 1011,5 hPa 0,0 l/m 9,4 km/h (2 Bft) NO 50 2 min 0,000 mm 0,5 UV-I 276 W/m 14,9 C 28,3 C 12,9 km/h (3 Bft) 95,74 %
21.06.2017 19:08 28,7 C 27,2 C 45 % 1011,5 hPa 0,0 l/m 10,1 km/h (2 Bft) O-NO 58 2 min 0,000 mm 0,5 UV-I 264 W/m 15,6 C 28,2 C 17,7 km/h (3 Bft) 100,00 %
21.06.2017 19:10 28,7 C 27,2 C 44 % 1011,6 hPa 0,0 l/m 8,7 km/h (2 Bft) O-NO 74 2 min 0,000 mm 0,0 UV-I 254 W/m 15,2 C 28,4 C 14,5 km/h (3 Bft) 97,87 %
21.06.2017 19:12 28,7 C 27,2 C 43 % 1011,6 hPa 0,0 l/m 11,0 km/h (2 Bft) NO 46 2 min 0,000 mm 0,0 UV-I 245 W/m 14,9 C 28,1 C 17,7 km/h (3 Bft) 100,00 %
21.06.2017 19:14 28,7 C 27,2 C 43 % 1011,6 hPa 0,0 l/m 11,4 km/h (2 Bft) NO 49 2 min 0,000 mm 0,0 UV-I 249 W/m 14,9 C 28,1 C 16,1 km/h (3 Bft) 95,74 %
21.06.2017 19:16 28,7 C 27,2 C 45 % 1011,8 hPa 0,0 l/m 9,6 km/h (2 Bft) NO 49 2 min 0,000 mm 0,0 UV-I 245 W/m 15,6 C 28,3 C 12,9 km/h (3 Bft) 100,00 %
21.06.2017 19:18 28,7 C 27,2 C 46 % 1011,8 hPa 0,0 l/m 8,3 km/h (2 Bft) NO 53 2 min 0,000 mm 0,0 UV-I 238 W/m 15,9 C 28,4 C 11,3 km/h (2 Bft) 95,74 %
21.06.2017 19:20 28,7 C 27,2 C 46 % 1011,8 hPa 0,0 l/m 8,5 km/h (2 Bft) O-NO 59 2 min 0,000 mm 0,0 UV-I 236 W/m 15,9 C 28,4 C 14,5 km/h (3 Bft) 97,87 %
21.06.2017 19:22 28,6 C 27,2 C 46 % 1011,8 hPa 0,0 l/m 11,1 km/h (2 Bft) O-NO 60 2 min 0,000 mm 0,0 UV-I 229 W/m 15,8 C 28,0 C 16,1 km/h (3 Bft) 95,74 %
21.06.2017 19:24 28,5 C 27,2 C 46 % 1011,8 hPa 0,0 l/m 10,8 km/h (2 Bft) O-NO 65 2 min 0,000 mm 0,0 UV-I 214 W/m 15,7 C 27,9 C 14,5 km/h (3 Bft) 100,00 %
21.06.2017 19:26 28,4 C 27,2 C 47 % 1011,9 hPa 0,0 l/m 8,5 km/h (2 Bft) NO 42 2 min 0,000 mm 0,0 UV-I 208 W/m 16,0 C 28,1 C 12,9 km/h (3 Bft) 97,87 %
21.06.2017 19:28 28,3 C 27,2 C 48 % 1011,9 hPa 0,0 l/m 8,3 km/h (2 Bft) NO 46 2 min 0,000 mm 0,0 UV-I 179 W/m 16,2 C 28,0 C 11,3 km/h (2 Bft) 95,74 %
21.06.2017 19:30 28,2 C 27,2 C 49 % 1011,8 hPa 0,0 l/m 8,9 km/h (2 Bft) O-NO 69 2 min 0,000 mm 0,0 UV-I 152 W/m 16,5 C 27,8 C 14,5 km/h (3 Bft) 100,00 %
21.06.2017 19:32 28,2 C 27,2 C 49 % 1011,9 hPa 0,0 l/m 7,7 km/h (2 Bft) NO 53 2 min 0,000 mm 0,0 UV-I 161 W/m 16,5 C 28,0 C 12,9 km/h (3 Bft) 95,74 %
21.06.2017 19:34 28,1 C 27,2 C 50 % 1011,9 hPa 0,0 l/m 5,9 km/h (2 Bft) O-NO 70 2 min 0,000 mm 0,0 UV-I 137 W/m 16,7 C 28,1 C 9,7 km/h (2 Bft) 100,00 %
21.06.2017 19:36 28,0 C 27,2 C 50 % 1011,9 hPa 0,0 l/m 6,7 km/h (2 Bft) O-NO 60 2 min 0,000 mm 0,0 UV-I 132 W/m 16,6 C 28,0 C 9,7 km/h (2 Bft) 97,87 %
21.06.2017 19:38 27,9 C 27,2 C 51 % 1011,9 hPa 0,0 l/m 7,1 km/h (2 Bft) NO 43 2 min 0,000 mm 0,0 UV-I 142 W/m 16,8 C 27,8 C 9,7 km/h (2 Bft) 98,00 %
21.06.2017 19:40 27,9 C 27,2 C 52 % 1011,9 hPa 0,0 l/m 6,7 km/h (2 Bft) O-NO 63 2 min 0,000 mm 0,0 UV-I 147 W/m 17,1 C 27,9 C 9,7 km/h (2 Bft) 97,87 %
21.06.2017 19:42 27,9 C 27,2 C 52 % 1011,9 hPa 0,0 l/m 7,0 km/h (2 Bft) O-NO 63 2 min 0,000 mm 0,0 UV-I 127 W/m 17,1 C 27,8 C 11,3 km/h (2 Bft) 97,87 %
21.06.2017 19:44 27,8 C 27,2 C 52 % 1011,9 hPa 0,0 l/m 7,1 km/h (2 Bft) O-NO 70 2 min 0,000 mm 0,0 UV-I 109 W/m 17,0 C 27,7 C 9,7 km/h (2 Bft) 93,62 %
21.06.2017 19:46 27,8 C 27,2 C 53 % 1011,8 hPa 0,0 l/m 5,4 km/h (1 Bft) O-NO 75 0 min 0,000 mm 0,0 UV-I 99 W/m 17,3 C 27,8 C 9,7 km/h (2 Bft) 97,87 %
21.06.2017 19:48 27,7 C 27,2 C 52 % 1011,8 hPa 0,0 l/m 7,6 km/h (2 Bft) O-NO 64 0 min 0,000 mm 0,0 UV-I 87 W/m 16,9 C 27,5 C 12,9 km/h (3 Bft) 94,29 %
21.06.2017 19:50 27,6 C 27,2 C 51 % 1011,8 hPa 0,0 l/m 8,6 km/h (2 Bft) O 84 0 min 0,000 mm 0,0 UV-I 86 W/m 16,5 C 27,2 C 14,5 km/h (3 Bft) 100,00 %
21.06.2017 19:52 27,6 C 27,2 C 50 % 1011,8 hPa 0,0 l/m 9,2 km/h (2 Bft) O-NO 62 2 min 0,000 mm 0,0 UV-I 100 W/m 16,2 C 27,1 C 12,9 km/h (3 Bft) 97,87 %
21.06.2017 19:54 27,6 C 27,2 C 50 % 1011,8 hPa 0,0 l/m 7,5 km/h (2 Bft) O-NO 65 2 min 0,000 mm 0,0 UV-I 95 W/m 16,2 C 27,4 C 12,9 km/h (3 Bft) 95,74 %
21.06.2017 19:56 27,6 C 27,2 C 49 % 1011,8 hPa 0,0 l/m 8,7 km/h (2 Bft) O-NO 68 2 min 0,000 mm 0,0 UV-I 90 W/m 15,9 C 27,2 C 12,9 km/h (3 Bft) 95,74 %
21.06.2017 19:58 27,6 C 27,2 C 49 % 1011,9 hPa 0,0 l/m 7,1 km/h (2 Bft) O 80 2 min 0,000 mm 0,0 UV-I 87 W/m 15,9 C 27,5 C 11,3 km/h (2 Bft) 97,87 %
21.06.2017 20:00 27,5 C 27,2 C 48 % 1011,8 hPa 0,0 l/m 7,1 km/h (2 Bft) O-NO 70 2 min 0,204 mm 0,0 UV-I 85 W/m 15,5 C 27,4 C 9,7 km/h (2 Bft) 93,62 %
21.06.2017 20:02 27,5 C 27,2 C 49 % 1012,0 hPa 0,0 l/m 5,8 km/h (2 Bft) O-NO 70 2 min 0,000 mm 0,0 UV-I 84 W/m 15,8 C 27,5 C 9,7 km/h (2 Bft) 94,44 %
21.06.2017 20:04 27,4 C 27,2 C 50 % 1012,0 hPa 0,0 l/m 5,3 km/h (1 Bft) O-NO 61 2 min 0,000 mm 0,0 UV-I 84 W/m 16,0 C 27,4 C 9,7 km/h (2 Bft) 95,16 %
21.06.2017 20:06 27,4 C 27,2 C 51 % 1012,0 hPa 0,0 l/m 6,2 km/h (2 Bft) O-NO 78 2 min 0,000 mm 0,0 UV-I 80 W/m 16,3 C 27,4 C 9,7 km/h (2 Bft) 95,74 %
21.06.2017 20:08 27,3 C 27,2 C 51 % 1011,9 hPa 0,0 l/m 5,5 km/h (1 Bft) NO 49 2 min 0,000 mm 0,0 UV-I 75 W/m 16,3 C 27,3 C 8,0 km/h (2 Bft) 93,62 %
21.06.2017 20:10 27,2 C 27,2 C 51 % 1011,9 hPa 0,0 l/m 4,9 km/h (1 Bft) O-NO 67 0 min 0,000 mm 0,0 UV-I 68 W/m 16,2 C 27,2 C 6,4 km/h (2 Bft) 95,74 %
21.06.2017 20:12 27,1 C 27,2 C 52 % 1012,0 hPa 0,0 l/m 4,9 km/h (1 Bft) O 83 0 min 0,000 mm 0,0 UV-I 63 W/m 16,4 C 27,1 C 8,0 km/h (2 Bft) 94,00 %
21.06.2017 20:14 27,0 C 27,2 C 53 % 1011,9 hPa 0,0 l/m 3,7 km/h (1 Bft) O-NO 64 0 min 0,000 mm 0,0 UV-I 60 W/m 16,6 C 27,0 C 4,8 km/h (1 Bft) 97,14 %
21.06.2017 20:16 26,8 C 27,2 C 55 % 1011,9 hPa 0,0 l/m 3,7 km/h (1 Bft) O-NO 64 0 min 0,000 mm 0,0 UV-I 54 W/m 17,0 C 26,8 C 6,4 km/h (2 Bft) 97,87 %
21.06.2017 20:18 26,6 C 27,2 C 54 % 1011,9 hPa 0,0 l/m 4,2 km/h (1 Bft) O-NO 64 0 min 0,000 mm 0,0 UV-I 47 W/m 16,5 C 26,6 C 6,4 km/h (2 Bft) 93,62 %
21.06.2017 20:20 26,5 C 27,2 C 55 % 1011,9 hPa 0,0 l/m 4,7 km/h (1 Bft) O-NO 62 0 min 0,000 mm 0,0 UV-I 41 W/m 16,7 C 26,5 C 8,0 km/h (2 Bft) 89,36 %
21.06.2017 20:22 26,4 C 27,2 C 56 % 1011,9 hPa 0,0 l/m 4,7 km/h (1 Bft) NO 55 0 min 0,000 mm 0,0 UV-I 37 W/m 16,9 C 26,4 C 8,0 km/h (2 Bft) 96,00 %
21.06.2017 20:24 26,3 C 26,7 C 55 % 1011,9 hPa 0,0 l/m 4,6 km/h (1 Bft) NO 55 0 min 0,000 mm 0,0 UV-I 32 W/m 16,5 C 26,3 C 6,4 km/h (2 Bft) 93,62 %
21.06.2017 20:26 26,2 C 26,7 C 57 % 1011,9 hPa 0,0 l/m 3,3 km/h (1 Bft) NO 56 0 min 0,000 mm 0,0 UV-I 31 W/m 17,0 C 26,2 C 4,8 km/h (1 Bft) 95,74 %
21.06.2017 20:28 26,1 C 26,7 C 56 % 1011,9 hPa 0,0 l/m 3,0 km/h (1 Bft) NO 56 0 min 0,000 mm 0,0 UV-I 30 W/m 16,6 C 26,1 C 4,8 km/h (1 Bft) 97,87 %
21.06.2017 20:30 26,1 C 26,7 C 56 % 1011,9 hPa 0,0 l/m 1,7 km/h (1 Bft) NO 56 0 min 0,000 mm 0,0 UV-I 29 W/m 16,6 C 26,1 C 3,2 km/h (1 Bft) 94,00 %
21.06.2017 20:32 26,1 C 26,7 C 54 % 1011,9 hPa 0,0 l/m 2,6 km/h (1 Bft) NO 56 0 min 0,000 mm 0,0 UV-I 27 W/m 16,0 C 26,1 C 4,8 km/h (1 Bft) 95,74 %
21.06.2017 20:34 26,0 C 26,7 C 54 % 1011,9 hPa 0,0 l/m 2,6 km/h (1 Bft) NO 56 0 min 0,000 mm 0,0 UV-I 24 W/m 16,0 C 26,0 C 4,8 km/h (1 Bft) 93,62 %
21.06.2017 20:36 26,1 C 26,7 C 53 % 1012,0 hPa 0,0 l/m 2,0 km/h (1 Bft) NO 56 0 min 0,000 mm 0,0 UV-I 23 W/m 15,8 C 26,1 C 3,2 km/h (1 Bft) 95,74 %
21.06.2017 20:38 26,1 C 26,7 C 53 % 1011,9 hPa 0,0 l/m 0,8 km/h (0 Bft) NO 56 0 min 0,000 mm 0,0 UV-I 21 W/m 15,8 C 26,1 C 3,2 km/h (1 Bft) 97,87 %
21.06.2017 20:40 26,1 C 26,7 C 52 % 1012,0 hPa 0,0 l/m 1,6 km/h (1 Bft) NO 56 0 min 0,000 mm 0,0 UV-I 19 W/m 15,5 C 26,1 C 4,8 km/h (1 Bft) 97,87 %
21.06.2017 20:42 26,1 C 26,7 C 53 % 1012,0 hPa 0,0 l/m 0,0 km/h (0 Bft) NO 56 0 min 0,000 mm 0,0 UV-I 18 W/m 15,8 C 26,1 C 0,0 km/h (0 Bft) 97,87 %
21.06.2017 20:44 25,9 C 26,7 C 55 % 1011,9 hPa 0,0 l/m 0,0 km/h (0 Bft) NO 56 0 min 0,000 mm 0,0 UV-I 15 W/m 16,2 C 25,9 C 0,0 km/h (0 Bft) 95,83 %
21.06.2017 20:46 25,8 C 26,7 C 55 % 1012,0 hPa 0,0 l/m 0,0 km/h (0 Bft) NO 56 0 min 0,000 mm 0,0 UV-I 14 W/m 16,1 C 25,8 C 0,0 km/h (0 Bft) 97,87 %
21.06.2017 20:48 25,6 C 26,7 C 56 % 1012,0 hPa 0,0 l/m 0,0 km/h (0 Bft) NO 56 0 min 0,000 mm 0,0 UV-I 14 W/m 16,2 C 25,6 C 0,0 km/h (0 Bft) 95,74 %
21.06.2017 20:50 25,4 C 26,7 C 57 % 1012,0 hPa 0,0 l/m 0,0 km/h (0 Bft) NO 56 0 min 0,000 mm 0,0 UV-I 12 W/m 16,2 C 25,4 C 0,0 km/h (0 Bft) 97,37 %
21.06.2017 20:52 25,3 C 26,7 C 57 % 1012,0 hPa 0,0 l/m 0,3 km/h (0 Bft) NO 56 0 min 0,000 mm 0,0 UV-I 11 W/m 16,2 C 25,3 C 1,6 km/h (1 Bft) 96,00 %
21.06.2017 20:54 25,3 C 26,7 C 57 % 1012,0 hPa 0,0 l/m 1,0 km/h (0 Bft) NO 56 2 min 0,000 mm 0,0 UV-I 11 W/m 16,2 C 25,3 C 1,6 km/h (1 Bft) 95,74 %
21.06.2017 20:56 25,3 C 26,7 C 57 % 1012,0 hPa 0,0 l/m 1,0 km/h (0 Bft) NO 56 0 min 0,000 mm 0,0 UV-I 9 W/m 16,2 C 25,3 C 1,6 km/h (1 Bft) 95,74 %
21.06.2017 20:58 25,3 C 26,7 C 57 % 1012,0 hPa 0,0 l/m 1,3 km/h (1 Bft) NO 56 0 min 0,000 mm 0,0 UV-I 9 W/m 16,2 C 25,3 C 1,6 km/h (1 Bft) 94,00 %
21.06.2017 21:00 25,3 C 26,7 C 58 % 1012,1 hPa 0,0 l/m 1,4 km/h (1 Bft) NO 56 0 min 0,000 mm 0,0 UV-I 8 W/m 16,4 C 25,3 C 3,2 km/h (1 Bft) 95,74 %
21.06.2017 21:02 25,2 C 26,7 C 58 % 1012,0 hPa 0,0 l/m 1,9 km/h (1 Bft) NO 56 0 min 0,050 mm 0,0 UV-I 7 W/m 16,3 C 25,2 C 3,2 km/h (1 Bft) 97,87 %
21.06.2017 21:04 25,2 C 26,7 C 58 % 1012,1 hPa 0,0 l/m 2,2 km/h (1 Bft) NO 56 0 min 0,000 mm 0,0 UV-I 7 W/m 16,3 C 25,2 C 3,2 km/h (1 Bft) 96,00 %
21.06.2017 21:06 25,1 C 26,7 C 58 % 1012,0 hPa 0,0 l/m 0,5 km/h (0 Bft) NO 56 0 min 0,000 mm 0,0 UV-I 7 W/m 16,2 C 25,1 C 1,6 km/h (1 Bft) 97,37 %
21.06.2017 21:08 25,0 C 26,7 C 58 % 1012,1 hPa 0,0 l/m 1,9 km/h (1 Bft) NO 56 0 min 0,000 mm 0,0 UV-I 7 W/m 16,1 C 25,0 C 3,2 km/h (1 Bft) 95,74 %
21.06.2017 21:10 24,9 C 26,7 C 58 % 1012,1 hPa 0,0 l/m 2,3 km/h (1 Bft) NO 56 0 min 0,000 mm 0,0 UV-I 6 W/m 16,1 C 24,9 C 3,2 km/h (1 Bft) 93,62 %
21.06.2017 21:12 24,8 C 26,7 C 58 % 1012,1 hPa 0,0 l/m 2,6 km/h (1 Bft) NO 56 0 min 0,000 mm 0,0 UV-I 5 W/m 16,0 C 24,8 C 3,2 km/h (1 Bft) 97,87 %
21.06.2017 21:14 24,8 C 26,7 C 59 % 1012,1 hPa 0,0 l/m 2,1 km/h (1 Bft) NO 56 0 min 0,000 mm 0,0 UV-I 5 W/m 16,2 C 24,8 C 3,2 km/h (1 Bft) 93,62 %
21.06.2017 21:16 24,7 C 26,7 C 59 % 1012,2 hPa 0,0 l/m 1,6 km/h (1 Bft) NO 56 0 min 0,000 mm 0,0 UV-I 5 W/m 16,1 C 24,7 C 3,2 km/h (1 Bft) 95,74 %
21.06.2017 21:18 24,6 C 26,7 C 59 % 1012,2 hPa 0,0 l/m 2,2 km/h (1 Bft) NO 56 0 min 0,000 mm 0,0 UV-I 5 W/m 16,0 C 24,6 C 3,2 km/h (1 Bft) 93,62 %
21.06.2017 21:20 24,6 C 26,7 C 59 % 1012,3 hPa 0,0 l/m 2,7 km/h (1 Bft) NO 56 0 min 0,000 mm 0,0 UV-I 5 W/m 16,0 C 24,6 C 4,8 km/h (1 Bft) 93,75 %
21.06.2017 21:22 24,5 C 26,7 C 59 % 1012,3 hPa 0,0 l/m 3,3 km/h (1 Bft) NO 56 0 min 0,000 mm 0,0 UV-I 5 W/m 15,9 C 24,5 C 4,8 km/h (1 Bft) 94,00 %
21.06.2017 21:24 24,4 C 26,7 C 60 % 1012,3 hPa 0,0 l/m 3,3 km/h (1 Bft) NO 56 0 min 0,000 mm 0,0 UV-I 5 W/m 16,1 C 24,4 C 4,8 km/h (1 Bft) 98,00 %
21.06.2017 21:26 24,4 C 26,7 C 60 % 1012,3 hPa 0,0 l/m 2,1 km/h (1 Bft) NO 56 0 min 0,000 mm 0,0 UV-I 1 W/m 16,1 C 24,4 C 3,2 km/h (1 Bft) 93,62 %
21.06.2017 21:28 24,4 C 26,7 C 60 % 1012,4 hPa 0,0 l/m 1,7 km/h (1 Bft) NO 56 0 min 0,000 mm 0,0 UV-I 0 W/m 16,1 C 24,4 C 3,2 km/h (1 Bft) 93,62 %
21.06.2017 21:30 24,3 C 26,7 C 61 % 1012,4 hPa 0,0 l/m 2,1 km/h (1 Bft) NO 56 0 min 0,000 mm 0,0 UV-I 0 W/m 16,3 C 24,3 C 3,2 km/h (1 Bft) 97,87 %
21.06.2017 21:32 24,3 C 26,7 C 60 % 1012,4 hPa 0,0 l/m 2,0 km/h (1 Bft) NO 56 0 min 0,000 mm 0,0 UV-I 0 W/m 16,0 C 24,3 C 3,2 km/h (1 Bft) 97,37 %
21.06.2017 21:34 24,1 C 26,7 C 61 % 1012,5 hPa 0,0 l/m 2,1 km/h (1 Bft) NO 56 0 min 0,000 mm 0,0 UV-I 0 W/m 16,1 C 24,1 C 3,2 km/h (1 Bft) 97,87 %
21.06.2017 21:36 24,1 C 26,7 C 61 % 1012,5 hPa 0,0 l/m 1,2 km/h (1 Bft) NO 56 0 min 0,000 mm 0,0 UV-I 0 W/m 16,1 C 24,1 C 3,2 km/h (1 Bft) 98,00 %
21.06.2017 21:38 24,0 C 26,7 C 62 % 1012,6 hPa 0,0 l/m 0,1 km/h (0 Bft) NO 56 0 min 0,000 mm 0,0 UV-I 0 W/m 16,3 C 24,0 C 1,6 km/h (1 Bft) 95,74 %
21.06.2017 21:40 23,9 C 26,7 C 65 % 1012,7 hPa 0,0 l/m 0,2 km/h (0 Bft) NO 56 0 min 0,000 mm 0,0 UV-I 0 W/m 16,9 C 23,9 C 1,6 km/h (1 Bft) 97,87 %
21.06.2017 21:42 23,8 C 26,7 C 65 % 1012,7 hPa 0,0 l/m 0,0 km/h (0 Bft) NO 56 0 min 0,000 mm 0,0 UV-I 0 W/m 16,8 C 23,8 C 0,0 km/h (0 Bft) 95,74 %
21.06.2017 21:44 23,7 C 26,7 C 64 % 1012,7 hPa 0,0 l/m 0,0 km/h (0 Bft) NO 56 0 min 0,000 mm 0,0 UV-I 0 W/m 16,5 C 23,7 C 0,0 km/h (0 Bft) 100,00 %
21.06.2017 21:46 23,6 C 26,7 C 64 % 1012,7 hPa 0,0 l/m 0,0 km/h (0 Bft) NO 56 0 min 0,000 mm 0,0 UV-I 0 W/m 16,4 C 23,6 C 0,0 km/h (0 Bft) 97,87 %
21.06.2017 21:48 23,5 C 26,7 C 64 % 1012,8 hPa 0,0 l/m 0,0 km/h (0 Bft) NO 56 0 min 0,000 mm 0,0 UV-I 0 W/m 16,3 C 23,5 C 0,0 km/h (0 Bft) 95,74 %
21.06.2017 21:50 23,4 C 26,7 C 65 % 1012,8 hPa 0,0 l/m 0,0 km/h (0 Bft) NO 56 0 min 0,000 mm 0,0 UV-I 0 W/m 16,4 C 23,4 C 0,0 km/h (0 Bft) 97,87 %
21.06.2017 21:52 23,4 C 26,7 C 65 % 1012,9 hPa 0,0 l/m 0,0 km/h (0 Bft) NO 56 0 min 0,000 mm 0,0 UV-I 0 W/m 16,4 C 23,4 C 0,0 km/h (0 Bft) 96,00 %
21.06.2017 21:54 23,3 C 26,7 C 67 % 1012,9 hPa 0,0 l/m 0,0 km/h (0 Bft) NO 56 0 min 0,000 mm 0,0 UV-I 0 W/m 16,8 C 23,3 C 0,0 km/h (0 Bft) 95,74 %
21.06.2017 21:56 23,3 C 26,7 C 68 % 1012,9 hPa 0,0 l/m 0,0 km/h (0 Bft) NO 56 0 min 0,000 mm 0,0 UV-I 0 W/m 17,1 C 23,3 C 0,0 km/h (0 Bft) 97,87 %
21.06.2017 21:58 23,3 C 26,7 C 67 % 1012,9 hPa 0,0 l/m 0,0 km/h (0 Bft) NO 56 0 min 0,000 mm 0,0 UV-I 0 W/m 16,8 C 23,3 C 0,0 km/h (0 Bft) 95,74 %
21.06.2017 22:00 23,3 C 26,7 C 67 % 1012,9 hPa 0,0 l/m 0,0 km/h (0 Bft) NO 56 0 min 0,026 mm 0,0 UV-I 0 W/m 16,8 C 23,3 C 0,0 km/h (0 Bft) 93,62 %
21.06.2017 22:02 23,3 C 26,7 C 67 % 1012,9 hPa 0,0 l/m 0,0 km/h (0 Bft) NO 56 0 min 0,000 mm 0,0 UV-I 0 W/m 16,8 C 23,3 C 0,0 km/h (0 Bft) 97,87 %
21.06.2017 22:04 23,3 C 26,7 C 67 % 1013,0 hPa 0,0 l/m 0,0 km/h (0 Bft) NO 56 0 min 0,000 mm 0,0 UV-I 0 W/m 16,8 C 23,3 C 0,0 km/h (0 Bft) 94,74 %
21.06.2017 22:06 23,3 C 26,7 C 67 % 1013,0 hPa 0,0 l/m 0,0 km/h (0 Bft) NO 56 0 min 0,000 mm 0,0 UV-I 0 W/m 16,8 C 23,3 C 0,0 km/h (0 Bft) 97,87 %
21.06.2017 22:08 23,2 C 26,7 C 67 % 1013,0 hPa 0,0 l/m 0,0 km/h (0 Bft) NO 56 0 min 0,000 mm 0,0 UV-I 0 W/m 16,7 C 23,2 C 0,0 km/h (0 Bft) 95,74 %
21.06.2017 22:10 23,2 C 26,7 C 67 % 1013,0 hPa 0,0 l/m 0,0 km/h (0 Bft) NO 56 0 min 0,000 mm 0,0 UV-I 0 W/m 16,7 C 23,2 C 0,0 km/h (0 Bft) 96,00 %
21.06.2017 22:12 23,2 C 26,7 C 67 % 1013,0 hPa 0,0 l/m 0,0 km/h (0 Bft) NO 56 0 min 0,000 mm 0,0 UV-I 0 W/m 16,7 C 23,2 C 1,6 km/h (1 Bft) 97,87 %
21.06.2017 22:14 23,2 C 26,7 C 66 % 1013,0 hPa 0,0 l/m 0,0 km/h (0 Bft) NO 56 0 min 0,000 mm 0,0 UV-I 0 W/m 16,5 C 23,2 C 0,0 km/h (0 Bft) 95,74 %
21.06.2017 22:16 23,1 C 26,7 C 67 % 1013,0 hPa 0,0 l/m 0,0 km/h (0 Bft) NO 56 0 min 0,000 mm 0,0 UV-I 0 W/m 16,6 C 23,1 C 0,0 km/h (0 Bft) 92,00 %
21.06.2017 22:18 23,1 C 26,7 C 67 % 1013,0 hPa 0,0 l/m 0,0 km/h (0 Bft) NO 56 0 min 0,000 mm 0,0 UV-I 0 W/m 16,6 C 23,1 C 0,0 km/h (0 Bft) 97,87 %
21.06.2017 22:20 23,1 C 26,7 C 67 % 1013,0 hPa 0,0 l/m 0,0 km/h (0 Bft) NO 56 0 min 0,000 mm 0,0 UV-I 0 W/m 16,6 C 23,1 C 0,0 km/h (0 Bft) 97,37 %
21.06.2017 22:22 23,0 C 26,7 C 68 % 1013,0 hPa 0,0 l/m 0,0 km/h (0 Bft) NO 56 0 min 0,000 mm 0,0 UV-I 0 W/m 16,8 C 23,0 C 0,0 km/h (0 Bft) 97,87 %
21.06.2017 22:24 22,9 C 26,7 C 68 % 1013,0 hPa 0,0 l/m 0,5 km/h (0 Bft) NO 56 0 min 0,000 mm 0,0 UV-I 0 W/m 16,7 C 22,9 C 1,6 km/h (1 Bft) 100,00 %
21.06.2017 22:26 22,9 C 26,7 C 68 % 1013,1 hPa 0,0 l/m 2,2 km/h (1 Bft) NO 56 0 min 0,000 mm 0,0 UV-I 0 W/m 16,7 C 22,9 C 3,2 km/h (1 Bft) 95,74 %
21.06.2017 22:28 22,8 C 26,7 C 69 % 1013,1 hPa 0,0 l/m 2,4 km/h (1 Bft) NO 56 0 min 0,000 mm 0,0 UV-I 0 W/m 16,8 C 22,8 C 3,2 km/h (1 Bft) 100,00 %
21.06.2017 22:30 22,8 C 26,7 C 68 % 1013,0 hPa 0,0 l/m 0,1 km/h (0 Bft) NO 56 0 min 0,000 mm 0,0 UV-I 0 W/m 16,6 C 22,8 C 1,6 km/h (1 Bft) 97,87 %
21.06.2017 22:32 22,7 C 26,7 C 69 % 1013,1 hPa 0,0 l/m 0,0 km/h (0 Bft) NO 56 0 min 0,000 mm 0,0 UV-I 0 W/m 16,7 C 22,7 C 0,0 km/h (0 Bft) 100,00 %
21.06.2017 22:34 22,6 C 26,7 C 69 % 1013,1 hPa 0,0 l/m 0,0 km/h (0 Bft) NO 56 0 min 0,000 mm 0,0 UV-I 0 W/m 16,6 C 22,6 C 0,0 km/h (0 Bft) 97,87 %
21.06.2017 22:36 22,6 C 26,7 C 69 % 1013,0 hPa 0,0 l/m 0,0 km/h (0 Bft) NO 56 0 min 0,000 mm 0,0 UV-I 0 W/m 16,6 C 22,6 C 0,0 km/h (0 Bft) 96,00 %
21.06.2017 22:38 22,5 C 26,7 C 70 % 1013,0 hPa 0,0 l/m 0,0 km/h (0 Bft) NO 56 0 min 0,000 mm 0,0 UV-I 0 W/m 16,7 C 22,5 C 0,0 km/h (0 Bft) 100,00 %
21.06.2017 22:40 22,4 C 26,7 C 70 % 1013,0 hPa 0,0 l/m 0,0 km/h (0 Bft) NO 56 0 min 0,000 mm 0,0 UV-I 0 W/m 16,7 C 22,4 C 1,6 km/h (1 Bft) 97,87 %
21.06.2017 22:42 22,4 C 26,7 C 70 % 1013,1 hPa 0,0 l/m 0,0 km/h (0 Bft) NO 56 0 min 0,000 mm 0,0 UV-I 0 W/m 16,7 C 22,4 C 0,0 km/h (0 Bft) 98,00 %
21.06.2017 22:44 22,3 C 26,7 C 70 % 1013,0 hPa 0,0 l/m 0,2 km/h (0 Bft) NO 56 0 min 0,000 mm 0,0 UV-I 0 W/m 16,6 C 22,3 C 1,6 km/h (1 Bft) 97,87 %
21.06.2017 22:46 22,3 C 26,7 C 70 % 1013,0 hPa 0,0 l/m 1,9 km/h (1 Bft) NO 56 0 min 0,000 mm 0,0 UV-I 0 W/m 16,6 C 22,3 C 3,2 km/h (1 Bft) 97,37 %
21.06.2017 22:48 22,4 C 26,7 C 71 % 1013,0 hPa 0,0 l/m 1,8 km/h (1 Bft) NO 56 0 min 0,000 mm 0,0 UV-I 0 W/m 16,9 C 22,4 C 4,8 km/h (1 Bft) 97,87 %
21.06.2017 22:50 22,3 C 26,7 C 71 % 1012,9 hPa 0,0 l/m 4,3 km/h (1 Bft) O-NO 57 0 min 0,000 mm 0,0 UV-I 0 W/m 16,8 C 22,3 C 4,8 km/h (1 Bft) 97,87 %
21.06.2017 22:52 22,2 C 26,7 C 71 % 1012,9 hPa 0,0 l/m 4,4 km/h (1 Bft) O-NO 73 0 min 0,000 mm 0,0 UV-I 0 W/m 16,7 C 22,2 C 4,8 km/h (1 Bft) 97,87 %
21.06.2017 22:54 22,0 C 26,7 C 72 % 1012,9 hPa 0,0 l/m 5,0 km/h (1 Bft) SW 234 0 min 0,000 mm 0,0 UV-I 0 W/m 16,7 C 22,0 C 11,3 km/h (2 Bft) 97,87 %
21.06.2017 22:56 21,8 C 26,7 C 73 % 1013,0 hPa 0,0 l/m 7,3 km/h (2 Bft) W-SW 238 0 min 0,000 mm 0,0 UV-I 0 W/m 16,7 C 21,5 C 9,7 km/h (2 Bft) 100,00 %
21.06.2017 22:58 21,7 C 26,7 C 73 % 1013,0 hPa 0,0 l/m 4,3 km/h (1 Bft) SW 234 0 min 0,000 mm 0,0 UV-I 0 W/m 16,6 C 21,7 C 6,4 km/h (2 Bft) 97,87 %
21.06.2017 23:00 21,7 C 26,7 C 73 % 1012,9 hPa 0,0 l/m 1,3 km/h (1 Bft) SW 234 0 min 0,000 mm 0,0 UV-I 0 W/m 16,6 C 21,7 C 3,2 km/h (1 Bft) 100,00 %
21.06.2017 23:02 21,7 C 26,7 C 74 % 1012,9 hPa 0,0 l/m 0,1 km/h (0 Bft) SW 234 0 min 0,025 mm 0,0 UV-I 0 W/m 16,9 C 21,7 C 1,6 km/h (1 Bft) 97,87 %
21.06.2017 23:04 21,7 C 26,7 C 73 % 1012,9 hPa 0,0 l/m 0,6 km/h (0 Bft) SW 234 0 min 0,000 mm 0,0 UV-I 0 W/m 16,6 C 21,7 C 3,2 km/h (1 Bft) 100,00 %
21.06.2017 23:06 21,6 C 26,7 C 74 % 1012,9 hPa 0,0 l/m 0,4 km/h (0 Bft) SW 234 0 min 0,000 mm 0,0 UV-I 0 W/m 16,8 C 21,6 C 1,6 km/h (1 Bft) 97,87 %
21.06.2017 23:08 21,5 C 26,7 C 74 % 1012,9 hPa 0,0 l/m 0,5 km/h (0 Bft) SW 234 0 min 0,000 mm 0,0 UV-I 0 W/m 16,7 C 21,5 C 1,6 km/h (1 Bft) 100,00 %
21.06.2017 23:10 21,4 C 26,7 C 74 % 1012,9 hPa 0,0 l/m 0,0 km/h (0 Bft) SW 234 0 min 0,000 mm 0,0 UV-I 0 W/m 16,6 C 21,4 C 0,0 km/h (0 Bft) 95,74 %
21.06.2017 23:12 21,6 C 26,7 C 74 % 1012,8 hPa 0,0 l/m 0,0 km/h (0 Bft) SW 234 0 min 0,000 mm 0,0 UV-I 0 W/m 16,8 C 21,6 C 0,0 km/h (0 Bft) 97,87 %
21.06.2017 23:14 21,7 C 26,7 C 74 % 1013,0 hPa 0,0 l/m 0,3 km/h (0 Bft) SW 234 0 min 0,000 mm 0,0 UV-I 0 W/m 16,9 C 21,7 C 1,6 km/h (1 Bft) 100,00 %
21.06.2017 23:16 21,6 C 26,7 C 74 % 1013,0 hPa 0,0 l/m 1,2 km/h (1 Bft) SW 234 0 min 0,000 mm 0,0 UV-I 0 W/m 16,8 C 21,6 C 3,2 km/h (1 Bft) 93,62 %
21.06.2017 23:18 21,6 C 26,7 C 74 % 1012,9 hPa 0,0 l/m 2,3 km/h (1 Bft) SW 234 0 min 0,000 mm 0,0 UV-I 0 W/m 16,8 C 21,6 C 3,2 km/h (1 Bft) 97,92 %
21.06.2017 23:20 21,6 C 26,7 C 74 % 1012,9 hPa 0,0 l/m 3,3 km/h (1 Bft) SW 231 0 min 0,000 mm 0,0 UV-I 0 W/m 16,8 C 21,6 C 4,8 km/h (1 Bft) 97,87 %
21.06.2017 23:22 21,4 C 26,7 C 74 % 1012,9 hPa 0,0 l/m 2,6 km/h (1 Bft) SW 230 0 min 0,000 mm 0,0 UV-I 0 W/m 16,6 C 21,4 C 4,8 km/h (1 Bft) 98,00 %
21.06.2017 23:24 21,4 C 26,7 C 74 % 1012,9 hPa 0,0 l/m 0,9 km/h (0 Bft) SW 230 0 min 0,000 mm 0,0 UV-I 0 W/m 16,6 C 21,4 C 1,6 km/h (1 Bft) 100,00 %
21.06.2017 23:26 21,4 C 26,7 C 75 % 1012,9 hPa 0,0 l/m 0,9 km/h (0 Bft) SW 230 0 min 0,000 mm 0,0 UV-I 0 W/m 16,8 C 21,4 C 3,2 km/h (1 Bft) 97,87 %
21.06.2017 23:28 21,4 C 26,7 C 75 % 1012,8 hPa 0,0 l/m 2,0 km/h (1 Bft) SW 230 0 min 0,000 mm 0,0 UV-I 0 W/m 16,8 C 21,4 C 3,2 km/h (1 Bft) 100,00 %
21.06.2017 23:30 21,4 C 26,7 C 75 % 1012,9 hPa 0,0 l/m 1,2 km/h (1 Bft) SW 230 0 min 0,000 mm 0,0 UV-I 0 W/m 16,8 C 21,4 C 3,2 km/h (1 Bft) 97,87 %
21.06.2017 23:32 21,3 C 26,7 C 75 % 1012,8 hPa 0,0 l/m 1,3 km/h (1 Bft) SW 230 0 min 0,000 mm 0,0 UV-I 0 W/m 16,7 C 21,3 C 3,2 km/h (1 Bft) 96,00 %
21.06.2017 23:34 21,3 C 26,7 C 75 % 1012,8 hPa 0,0 l/m 0,5 km/h (0 Bft) SW 230 0 min 0,000 mm 0,0 UV-I 0 W/m 16,7 C 21,3 C 1,6 km/h (1 Bft) 95,12 %
21.06.2017 23:36 21,3 C 26,7 C 75 % 1012,8 hPa 0,0 l/m 0,1 km/h (0 Bft) SW 230 0 min 0,000 mm 0,0 UV-I 0 W/m 16,7 C 21,3 C 1,6 km/h (1 Bft) 100,00 %
21.06.2017 23:38 21,1 C 26,7 C 75 % 1012,8 hPa 0,0 l/m 0,0 km/h (0 Bft) SW 230 0 min 0,000 mm 0,0 UV-I 0 W/m 16,5 C 21,1 C 0,0 km/h (0 Bft) 97,87 %
21.06.2017 23:40 21,0 C 26,7 C 76 % 1012,8 hPa 0,0 l/m 0,0 km/h (0 Bft) SW 230 0 min 0,000 mm 0,0 UV-I 0 W/m 16,6 C 21,0 C 0,0 km/h (0 Bft) 100,00 %
21.06.2017 23:42 20,9 C 26,7 C 77 % 1012,8 hPa 0,0 l/m 2,4 km/h (1 Bft) SW 230 0 min 0,000 mm 0,0 UV-I 0 W/m 16,7 C 20,9 C 3,2 km/h (1 Bft) 100,00 %
21.06.2017 23:44 20,9 C 26,7 C 77 % 1012,8 hPa 0,0 l/m 2,5 km/h (1 Bft) SW 230 0 min 0,000 mm 0,0 UV-I 0 W/m 16,7 C 20,9 C 3,2 km/h (1 Bft) 100,00 %
21.06.2017 23:46 20,8 C 26,7 C 77 % 1012,9 hPa 0,0 l/m 1,8 km/h (1 Bft) SW 230 0 min 0,000 mm 0,0 UV-I 0 W/m 16,6 C 20,8 C 3,2 km/h (1 Bft) 94,00 %
21.06.2017 23:48 20,8 C 26,7 C 77 % 1012,9 hPa 0,0 l/m 0,6 km/h (0 Bft) SW 230 0 min 0,000 mm 0,0 UV-I 0 W/m 16,6 C 20,8 C 1,6 km/h (1 Bft) 91,49 %
21.06.2017 23:50 20,7 C 26,7 C 77 % 1012,9 hPa 0,0 l/m 0,0 km/h (0 Bft) SW 230 0 min 0,000 mm 0,0 UV-I 0 W/m 16,5 C 20,7 C 0,0 km/h (0 Bft) 93,62 %
21.06.2017 23:52 20,7 C 26,7 C 78 % 1012,9 hPa 0,0 l/m 0,0 km/h (0 Bft) SW 230 0 min 0,000 mm 0,0 UV-I 0 W/m 16,7 C 20,7 C 0,0 km/h (0 Bft) 98,00 %
21.06.2017 23:54 20,7 C 26,7 C 78 % 1012,9 hPa 0,0 l/m 0,7 km/h (0 Bft) SW 230 0 min 0,000 mm 0,0 UV-I 0 W/m 16,7 C 20,7 C 1,6 km/h (1 Bft) 95,74 %
21.06.2017 23:56 20,7 C 26,7 C 78 % 1012,9 hPa 0,0 l/m 2,0 km/h (1 Bft) SW 230 0 min 0,000 mm 0,0 UV-I 0 W/m 16,7 C 20,7 C 3,2 km/h (1 Bft) 93,62 %
21.06.2017 23:58 20,7 C 26,7 C 78 % 1012,9 hPa 0,0 l/m 3,7 km/h (1 Bft) SW 230 0 min 0,000 mm 0,0 UV-I 0 W/m 16,7 C 20,7 C 6,4 km/h (2 Bft) 95,74 %
_ Min-Zeit 04:36 00:48 14:40 17:48 - 02:52 - - - - - - 14:40 05:00 02:54 14:28
Minimum _ 19,4 C 25,0 C 29 % 1011,2 hPa - 0,0 km/h (0 Bft) - - - - - - 10,9 C 17,8 C 0,0 km/h (0 Bft) 87,23 %
_ Max-Zeit 15:36 17:02 05:18 08:56 00:00 17:40 - - 15:03 14:00 13:10 13:36 12:18 15:36 16:12 00:00
Maximum _ 32,0 C 27,2 C 81 % 1014,2 hPa 0,0 l/m 18,3 km/h
N (3 Bft)
- - 3 min 0,635 mm 6,3 UV-I 988 W/m 17,9 C 32,0 C 25,7 km/h
W-SW (4 Bft)
100,00 %
Durchschnitt _ 25,3 C 25,9 C 59 % 1012,7 hPa #0,0 l/m 4,9 km/h (1 Bft) SW - #13:54 h #6,172 mm 3,3 UV-I 475 W/m 16,1 C 25,2 C 8,6 km/h (2 Bft) 96,79 %